Detalle de ayer:

10/8/22
Time         Wind Dir  Wind Gust   Humidity       Temp   Tot Rain Wind Chill Heat Index  Dew Point   Barom SL Temp Out H Temp Out L  DailyRain   HourRain   24HrRain   RainRate   Wind Run   Deg Heat   Deg Cool  MonthRain
                          km/hr          %         C         mm         C         C         C         mb         C         C         mm         mm         mm      mm/hr         km         C         C         mm
0:00              246        0.0         75       24.7      189.4       24.7       26.7       20.0     1012.9       24.7       24.7        0.0        0.0        0.0       0.00      358.5       0.00       4.90        0.0
0:02              246        0.0         75       24.7      189.4       24.7       26.7       19.9     1012.9       24.7       24.7        0.0        0.0        0.0       0.00        0.5       0.00       0.03        0.0
0:04              246        0.0         75       24.6      189.4       24.6       26.6       19.9     1012.9       24.7       24.6        0.0        0.0        0.0       0.00        1.0       0.00       0.03        0.0
0:06              246        0.0         75       24.6      189.4       24.6       26.6       19.9     1012.9       24.7       24.6        0.0        0.0        0.0       0.00        1.5       0.00       0.03        0.0
0:08              246        0.0         75       24.6      189.4       24.6       26.5       19.8     1012.9       24.7       24.6        0.0        0.0        0.0       0.00        2.0       0.00       0.03        0.0
0:10              246        0.0         75       24.5      189.4       24.5       26.5       19.8     1012.9       24.7       24.5        0.0        0.0        0.0       0.00        2.4       0.00       0.03        0.0
0:12              246        0.0         75       24.4      189.4       24.4       26.4       19.7     1012.8       24.7       24.4        0.0        0.0        0.0       0.00        3.0       0.00       0.03        0.0
0:14              246        0.0         75       24.4      189.4       24.4       26.4       19.7     1012.8       24.7       24.4        0.0        0.0        0.0       0.00        3.5       0.00       0.03        0.0
0:16              246        0.0         75       24.4      189.4       24.4       26.4       19.7     1012.9       24.7       24.4        0.0        0.0        0.0       0.00        4.0       0.00       0.05        0.0
0:18              246        0.0         75       24.3      189.4       24.3       26.3       19.6     1012.9       24.7       24.3        0.0        0.0        0.0       0.00        4.6       0.00       0.05        0.0
0:20              246        0.0         76       24.3      189.4       24.3       26.3       19.8     1012.9       24.7       24.3        0.0        0.0        0.0       0.00        5.1       0.00       0.05        0.0
0:22              246        0.0         76       24.3      189.4       24.3       26.3       19.8     1012.9       24.7       24.3        0.0        0.0        0.0       0.00        5.5       0.00       0.05        0.0
0:24              246        0.0         76       24.2      189.4       24.2       26.3       19.7     1012.9       24.7       24.2        0.0        0.0        0.0       0.00        5.9       0.00       0.05        0.0
0:26              245        0.0         76       24.2      189.4       24.2       26.3       19.7     1012.8       24.7       24.2        0.0        0.0        0.0       0.00        6.2       0.00       0.05        0.0
0:28              246        0.0         76       24.2      189.4       24.2       26.2       19.7     1012.9       24.7       24.2        0.0        0.0        0.0       0.00        6.3       0.00       0.05        0.0
0:30              246        0.0         76       24.2      189.4       24.2       26.2       19.7     1012.8       24.7       24.2        0.0        0.0        0.0       0.00        6.6       0.00       0.05        0.0
0:32              246        0.0         76       24.1      189.4       24.1       26.2       19.6     1012.8       24.7       24.1        0.0        0.0        0.0       0.00        6.9       0.00       0.08        0.0
0:34              246        0.0         77       24.1      189.4       24.1       26.2       19.8     1012.9       24.7       24.1        0.0        0.0        0.0       0.00        7.2       0.00       0.08        0.0
0:36              246        0.0         77       24.1      189.4       24.1       26.2       19.8     1012.9       24.7       24.1        0.0        0.0        0.0       0.00        7.5       0.00       0.08        0.0
0:38              246        0.0         77       24.1      189.4       24.1       26.2       19.8     1012.9       24.7       24.1        0.0        0.0        0.0       0.00        7.8       0.00       0.08        0.0
0:40              246        0.0         76       24.1      189.4       24.1       26.1       19.6     1012.8       24.7       24.1        0.0        0.0        0.0       0.00        8.3       0.00       0.08        0.0
0:42              246        0.0         77       24.0      189.4       24.0       26.1       19.7     1012.9       24.7       24.0        0.0        0.0        0.0       0.00        8.8       0.00       0.08        0.0
0:44              246        0.0         77       24.0      189.4       24.0       26.1       19.7     1012.9       24.7       24.0        0.0        0.0        0.0       0.00        9.3       0.00       0.08        0.0
0:46              246        0.0         77       23.9      189.4       23.9       26.1       19.7     1012.8       24.7       23.9        0.0        0.0        0.0       0.00        9.8       0.00       0.10        0.0
0:48              246        0.0         77       23.9      189.4       23.9       26.0       19.6     1012.8       24.7       23.9        0.0        0.0        0.0       0.00       10.3       0.00       0.10        0.0
0:50              246        0.0         77       23.8      189.4       23.8       26.0       19.6     1012.9       24.7       23.8        0.0        0.0        0.0       0.00       10.8       0.00       0.10        0.0
0:52              246        0.0         77       23.8      189.4       23.8       26.0       19.6     1012.8       24.7       23.8        0.0        0.0        0.0       0.00       11.5       0.00       0.10        0.0
0:54              246        0.0         77       23.8      189.4       23.8       25.9       19.5     1012.8       24.7       23.8        0.0        0.0        0.0       0.00       11.9       0.00       0.10        0.0
0:56              246        0.0         77       23.8      189.4       23.8       25.9       19.5     1012.8       24.7       23.8        0.0        0.0        0.0       0.00       12.3       0.00       0.10        0.0
0:58              246        0.0         78       23.7      189.4       23.7       25.9       19.7     1012.8       24.7       23.7        0.0        0.0        0.0       0.00       12.8       0.00       0.10        0.0
1:00              246        0.0         78       23.7      189.4       23.7       25.9       19.7     1012.8       24.7       23.7        0.0        0.0        0.0       0.00       13.3       0.00       0.10        0.0
1:02              246        0.0         78       23.7      189.4       23.7       25.9       19.6     1012.9       24.7       23.7        0.0        0.0        0.0       0.00       13.9       0.00       0.11        0.0
1:04              246        0.0         78       23.7      189.4       23.7       25.9       19.6     1012.8       24.7       23.7        0.0        0.0        0.0       0.00       14.4       0.00       0.11        0.0
1:06              246        0.0         78       23.6      189.4       23.6       25.8       19.6     1012.8       24.7       23.6        0.0        0.0        0.0       0.00       15.0       0.00       0.11        0.0
1:08              246        0.0         78       23.6      189.4       23.6       25.8       19.5     1012.7       24.7       23.6        0.0        0.0        0.0       0.00       15.7       0.00       0.11        0.0
1:10              246        0.0         78       23.5      189.4       23.5       25.7       19.4     1012.7       24.7       23.5        0.0        0.0        0.0       0.00       16.4       0.00       0.11        0.0
1:12              246        0.0         78       23.5      189.4       23.5       25.7       19.4     1012.7       24.7       23.5        0.0        0.0        0.0       0.00       16.9       0.00       0.11        0.0
1:14              246        0.0         78       23.4      189.4       23.4       25.6       19.4     1012.6       24.7       23.4        0.0        0.0        0.0       0.00       17.6       0.00       0.11        0.0
1:16              246        0.0         78       23.4      189.4       23.4       25.6       19.3     1012.5       24.7       23.4        0.0        0.0        0.0       0.00       18.0       0.00       0.13        0.0
1:18              246        0.0         79       23.3      189.4       23.3       25.6       19.5     1012.6       24.7       23.3        0.0        0.0        0.0       0.00       18.5       0.00       0.13        0.0
1:20              246        0.0         79       23.3      189.4       23.3       25.6       19.5     1012.7       24.7       23.3        0.0        0.0        0.0       0.00       19.0       0.00       0.13        0.0
1:22              246        0.0         79       23.3      189.4       23.3       25.6       19.4     1012.5       24.7       23.3        0.0        0.0        0.0       0.00       19.4       0.00       0.13        0.0
1:24              246        0.0         79       23.2      189.4       23.2       25.5       19.4     1012.6       24.7       23.2        0.0        0.0        0.0       0.00       19.9       0.00       0.13        0.0
1:26              246        0.0         79       23.2      189.4       23.2       25.5       19.4     1012.6       24.7       23.2        0.0        0.0        0.0       0.00       20.5       0.00       0.13        0.0
1:28              246        0.0         79       23.2      189.4       23.2       25.4       19.3     1012.6       24.7       23.2        0.0        0.0        0.0       0.00       21.2       0.00       0.13        0.0
1:30              246        0.0         79       23.1      189.4       23.1       25.4       19.3     1012.5       24.7       23.1        0.0        0.0        0.0       0.00       21.7       0.00       0.13        0.0
1:32              246        0.0         79       23.1      189.4       23.1       25.4       19.3     1012.5       24.7       23.1        0.0        0.0        0.0       0.00       22.2       0.00       0.14        0.0
1:34              246        0.0         79       23.1      189.4       23.1       25.3       19.2     1012.7       24.7       23.1        0.0        0.0        0.0       0.00       22.5       0.00       0.14        0.0
1:36              246        0.0         79       23.1      189.4       23.1       25.3       19.2     1012.6       24.7       23.1        0.0        0.0        0.0       0.00       22.9       0.00       0.14        0.0
1:38              246        0.0         79       23.0      189.4       23.0       25.3       19.2     1012.6       24.7       23.0        0.0        0.0        0.0       0.00       23.3       0.00       0.14        0.0
1:40              246        0.0         79       23.0      189.4       23.0       25.3       19.2     1012.6       24.7       23.0        0.0        0.0        0.0       0.00       23.8       0.00       0.14        0.0
1:42              246        0.0         80       22.9      189.4       22.9       25.3       19.3     1012.6       24.7       22.9        0.0        0.0        0.0       0.00       24.2       0.00       0.14        0.0
1:44              246        0.0         80       22.9      189.4       22.9       25.2       19.3     1012.6       24.7       22.9        0.0        0.0        0.0       0.00       24.8       0.00       0.14        0.0
1:46              246        0.0         80       22.9      189.4       22.9       25.2       19.3     1012.6       24.7       22.9        0.0        0.0        0.0       0.00       25.3       0.00       0.15        0.0
1:48              246        0.0         80       22.8      189.4       22.8       25.2       19.2     1012.6       24.7       22.8        0.0        0.0        0.0       0.00       25.6       0.00       0.15        0.0
1:50              246        0.0         80       22.8      189.4       22.8       25.2       19.2     1012.7       24.7       22.8        0.0        0.0        0.0       0.00       26.0       0.00       0.15        0.0
1:52              246        0.0         80       22.8      189.4       22.8       25.2       19.2     1012.7       24.7       22.8        0.0        0.0        0.0       0.00       26.4       0.00       0.15        0.0
1:54              246        0.0         80       22.8      189.4       22.8       25.1       19.2     1012.6       24.7       22.8        0.0        0.0        0.0       0.00       26.8       0.00       0.15        0.0
1:56              246        0.0         80       22.8      189.4       22.8       25.1       19.2     1012.6       24.7       22.8        0.0        0.0        0.0       0.00       27.1       0.00       0.15        0.0
1:58              246        0.0         80       22.8      189.4       22.8       25.1       19.2     1012.5       24.7       22.7        0.0        0.0        0.0       0.00       27.6       0.00       0.15        0.0
2:00              246        0.0         80       22.7      189.4       22.7       25.1       19.1     1012.5       24.7       22.7        0.0        0.0        0.0       0.00       27.9       0.00       0.15        0.0
2:02              246        0.0         80       22.7      189.4       22.7       25.1       19.1     1012.4       24.7       22.7        0.0        0.0        0.0       0.00       28.2       0.00       0.16        0.0
2:04              246        0.0         80       22.7      189.4       22.7       25.1       19.1     1012.4       24.7       22.7        0.0        0.0        0.0       0.00       28.6       0.00       0.16        0.0
2:06              246        0.0         80       22.7      189.4       22.7       25.0       19.0     1012.4       24.7       22.7        0.0        0.0        0.0       0.00       28.9       0.00       0.16        0.0
2:08              246        0.0         80       22.7      189.4       22.7       25.0       19.0     1012.4       24.7       22.7        0.0        0.0        0.0       0.00       29.0       0.00       0.16        0.0
2:10              246        0.0         80       22.6      189.4       22.6       25.0       19.0     1012.4       24.7       22.6        0.0        0.0        0.0       0.00       29.1       0.00       0.16        0.0
2:12              246        0.0         80       22.6      189.4       22.6       25.0       19.0     1012.3       24.7       22.6        0.0        0.0        0.0       0.00       29.4       0.00       0.16        0.0
2:14              246        0.0         81       22.6      189.4       22.6       25.0       19.2     1012.4       24.7       22.6        0.0        0.0        0.0       0.00       29.6       0.00       0.16        0.0
2:16              245        0.0         81       22.6      189.4       22.6       25.0       19.1     1012.4       24.7       22.6        0.0        0.0        0.0       0.00       29.7       0.00       0.16        0.0
2:18              246        0.0         81       22.6      189.4       22.6       25.0       19.1     1012.3       24.7       22.6        0.0        0.0        0.0       0.00       29.9       0.00       0.16        0.0
2:20              246        0.0         81       22.5      189.4       22.5       24.9       19.1     1012.3       24.7       22.5        0.0        0.0        0.0       0.00       30.1       0.00       0.16        0.0
2:22              246        0.0         81       22.5      189.4       22.5       24.9       19.1     1012.3       24.7       22.5        0.0        0.0        0.0       0.00       30.1       0.00       0.16        0.0
2:24              246        0.0         81       22.5      189.4       22.5       24.9       19.1     1012.2       24.7       22.5        0.0        0.0        0.0       0.00       30.2       0.00       0.16        0.0
2:26              246        0.0         81       22.5      189.4       22.5       24.9       19.1     1012.2       24.7       22.5        0.0        0.0        0.0       0.00       30.4       0.00       0.16        0.0
2:28              246        0.0         81       22.5      189.4       22.5       24.9       19.1     1012.1       24.7       22.5        0.0        0.0        0.0       0.00       30.4       0.00       0.16        0.0
2:30              246        0.0         81       22.5      189.4       22.5       24.9       19.1     1012.3       24.7       22.5        0.0        0.0        0.0       0.00       30.5       0.00       0.16        0.0
2:32              245        0.0         81       22.5      189.4       22.5       24.9       19.1     1012.3       24.7       22.5        0.0        0.0        0.0       0.00       30.6       0.00       0.17        0.0
2:34              246        0.0         81       22.5      189.4       22.5       24.9       19.1     1012.2       24.7       22.5        0.0        0.0        0.0       0.00       30.6       0.00       0.17        0.0
2:36              246        0.0         81       22.5      189.4       22.5       24.9       19.1     1012.3       24.7       22.5        0.0        0.0        0.0       0.00       30.6       0.00       0.17        0.0
2:38              246        0.0         81       22.5      189.4       22.5       24.9       19.1     1012.2       24.7       22.5        0.0        0.0        0.0       0.00       30.8       0.00       0.17        0.0
2:40              246        0.0         81       22.5      189.4       22.5       24.9       19.1     1012.3       24.7       22.5        0.0        0.0        0.0       0.00       30.9       0.00       0.17        0.0
2:42              246        0.0         81       22.5      189.4       22.5       24.9       19.1     1012.2       24.7       22.5        0.0        0.0        0.0       0.00       30.9       0.00       0.17        0.0
2:44              246        0.0         81       22.5      189.4       22.5       24.9       19.1     1012.2       24.7       22.5        0.0        0.0        0.0       0.00       30.9       0.00       0.17        0.0
2:46              246        0.0         81       22.5      189.4       22.5       24.9       19.1     1012.2       24.7       22.5        0.0        0.0        0.0       0.00       30.9       0.00       0.17        0.0
2:48              246        0.0         81       22.5      189.4       22.5       24.9       19.1     1012.2       24.7       22.5        0.0        0.0        0.0       0.00       30.9       0.00       0.17        0.0
2:50              246        0.0         81       22.5      189.4       22.5       24.9       19.1     1012.4       24.7       22.5        0.0        0.0        0.0       0.00       30.9       0.00       0.17        0.0
2:52              246        0.0         81       22.5      189.4       22.5       24.9       19.1     1012.3       24.7       22.5        0.0        0.0        0.0       0.00       30.9       0.00       0.17        0.0
2:54              246        0.0         81       22.5      189.4       22.5       24.9       19.1     1012.3       24.7       22.5        0.0        0.0        0.0       0.00       30.9       0.00       0.17        0.0
2:56              246        0.0         81       22.5      189.4       22.5       24.9       19.1     1012.3       24.7       22.5        0.0        0.0        0.0       0.00       31.0       0.00       0.17        0.0
2:58              246        0.0         81       22.6      189.4       22.6       25.0       19.1     1012.3       24.7       22.5        0.0        0.0        0.0       0.00       31.2       0.00       0.17        0.0
3:00              246        0.0         81       22.6      189.4       22.6       25.0       19.1     1012.3       24.7       22.5        0.0        0.0        0.0       0.00       31.5       0.00       0.17        0.0
3:02              246        0.0         81       22.6      189.4       22.6       25.0       19.2     1012.3       24.7       22.5        0.0        0.0        0.0       0.00       31.6       0.00       0.18        0.0
3:04              246        0.0         81       22.6      189.4       22.6       25.0       19.2     1012.1       24.7       22.5        0.0        0.0        0.0       0.00       31.7       0.00       0.18        0.0
3:06              246        0.0         81       22.6      189.4       22.6       25.0       19.2     1012.2       24.7       22.5        0.0        0.0        0.0       0.00       31.7       0.00       0.18        0.0
3:08              246        0.0         81       22.6      189.4       22.6       25.0       19.2     1012.0       24.7       22.5        0.0        0.0        0.0       0.00       31.7       0.00       0.18        0.0
3:10              246        0.0         81       22.6      189.4       22.6       25.0       19.2     1012.1       24.7       22.5        0.0        0.0        0.0       0.00       31.8       0.00       0.18        0.0
3:12              246        0.0         81       22.6      189.4       22.6       25.0       19.2     1012.0       24.7       22.5        0.0        0.0        0.0       0.00       32.0       0.00       0.18        0.0
3:14              246        0.0         81       22.6      189.4       22.6       25.0       19.2     1012.0       24.7       22.5        0.0        0.0        0.0       0.00       32.0       0.00       0.18        0.0
3:16              246        0.0         81       22.7      189.4       22.7       25.1       19.2     1012.0       24.7       22.5        0.0        0.0        0.0       0.00       32.0       0.00       0.19        0.0
3:18              246        0.0         81       22.7      189.4       22.7       25.1       19.2     1012.0       24.7       22.5        0.0        0.0        0.0       0.00       32.0       0.00       0.19        0.0
3:20              246        0.0         81       22.7      189.4       22.7       25.1       19.2     1012.0       24.7       22.5        0.0        0.0        0.0       0.00       32.0       0.00       0.19        0.0
3:22              246        0.0         81       22.7      189.4       22.7       25.1       19.2     1012.0       24.7       22.5        0.0        0.0        0.0       0.00       32.0       0.00       0.19        0.0
3:24              246        0.0         81       22.7      189.4       22.7       25.1       19.2     1012.0       24.7       22.5        0.0        0.0        0.0       0.00       32.1       0.00       0.19        0.0
3:26              246        0.0         81       22.7      189.4       22.7       25.1       19.2     1012.1       24.7       22.5        0.0        0.0        0.0       0.00       32.1       0.00       0.19        0.0
3:28              246        0.0         81       22.7      189.4       22.7       25.1       19.3     1012.0       24.7       22.5        0.0        0.0        0.0       0.00       32.1       0.00       0.19        0.0
3:30              246        0.0         81       22.7      189.4       22.7       25.1       19.3     1012.1       24.7       22.5        0.0        0.0        0.0       0.00       32.2       0.00       0.19        0.0
3:32              246        0.0         81       22.7      189.4       22.7       25.1       19.3     1012.0       24.7       22.5        0.0        0.0        0.0       0.00       32.2       0.00       0.19        0.0
3:34              246        0.0         81       22.7      189.4       22.7       25.1       19.3     1012.2       24.7       22.5        0.0        0.0        0.0       0.00       32.2       0.00       0.19        0.0
3:36              246        0.0         81       22.7      189.4       22.7       25.1       19.3     1012.2       24.7       22.5        0.0        0.0        0.0       0.00       32.2       0.00       0.19        0.0
3:38              246        0.0         81       22.7      189.4       22.7       25.1       19.3     1012.2       24.7       22.5        0.0        0.0        0.0       0.00       32.2       0.00       0.19        0.0
3:40              246        0.0         80       22.7      189.4       22.7       25.1       19.1     1012.1       24.7       22.5        0.0        0.0        0.0       0.00       32.3       0.00       0.19        0.0
3:42              246        0.0         80       22.7      189.4       22.7       25.1       19.1     1012.1       24.7       22.5        0.0        0.0        0.0       0.00       32.4       0.00       0.19        0.0
3:44              246        0.0         80       22.7      189.4       22.7       25.1       19.1     1012.2       24.7       22.5        0.0        0.0        0.0       0.00       32.5       0.00       0.19        0.0
3:46              246        0.0         80       22.7      189.4       22.7       25.0       19.0     1012.1       24.7       22.5        0.0        0.0        0.0       0.00       32.5       0.00       0.20        0.0
3:48              246        0.0         81       22.7      189.4       22.7       25.1       19.3     1012.2       24.7       22.5        0.0        0.0        0.0       0.00       32.7       0.00       0.20        0.0
3:50              246        0.0         81       22.7      189.4       22.7       25.1       19.3     1012.1       24.7       22.5        0.0        0.0        0.0       0.00       32.7       0.00       0.20        0.0
3:52              246        0.0         81       22.7      189.4       22.7       25.1       19.3     1012.2       24.7       22.5        0.0        0.0        0.0       0.00       32.7       0.00       0.20        0.0
3:54              246        0.0         81       22.7      189.4       22.7       25.1       19.3     1012.1       24.7       22.5        0.0        0.0        0.0       0.00       32.8       0.00       0.20        0.0
3:56              246        0.0         81       22.8      189.4       22.8       25.2       19.4     1012.2       24.7       22.5        0.0        0.0        0.0       0.00       32.9       0.00       0.20        0.0
3:58              246        0.0         81       22.8      189.4       22.8       25.2       19.4     1012.2       24.7       22.5        0.0        0.0        0.0       0.00       33.2       0.00       0.20        0.0
4:00              246        0.0         81       22.8      189.4       22.8       25.2       19.4     1012.1       24.7       22.5        0.0        0.0        0.0       0.00       33.3       0.00       0.20        0.0
4:02              246        0.0         81       22.8      189.4       22.8       25.2       19.4     1012.1       24.7       22.5        0.0        0.0        0.0       0.00       33.4       0.00       0.21        0.0
4:04              246        0.0         81       22.8      189.4       22.8       25.3       19.4     1012.1       24.7       22.5        0.0        0.0        0.0       0.00       33.5       0.00       0.21        0.0
4:06              246        0.0         81       22.8      189.4       22.8       25.3       19.4     1012.1       24.7       22.5        0.0        0.0        0.0       0.00       33.6       0.00       0.21        0.0
4:08              246        0.0         81       22.8      189.4       22.8       25.3       19.4     1012.0       24.7       22.5        0.0        0.0        0.0       0.00       33.6       0.00       0.21        0.0
4:10              246        0.0         81       22.8      189.4       22.8       25.3       19.4     1012.0       24.7       22.5        0.0        0.0        0.0       0.00       33.7       0.00       0.21        0.0
4:12              246        0.0         81       22.9      189.4       22.9       25.3       19.5     1012.1       24.7       22.5        0.0        0.0        0.0       0.00       33.8       0.00       0.21        0.0
4:14              246        0.0         81       22.9      189.4       22.9       25.3       19.5     1012.0       24.7       22.5        0.0        0.0        0.0       0.00       34.0       0.00       0.21        0.0
4:16              246        0.0         81       22.9      189.4       22.9       25.4       19.5     1012.2       24.7       22.5        0.0        0.0        0.0       0.00       34.2       0.00       0.22        0.0
4:18              246        0.0         81       22.9      189.4       22.9       25.4       19.5     1012.2       24.7       22.5        0.0        0.0        0.0       0.00       34.2       0.00       0.22        0.0
4:20              246        0.0         81       22.9      189.4       22.9       25.4       19.5     1012.2       24.7       22.5        0.0        0.0        0.0       0.00       34.2       0.00       0.22        0.0
4:22              246        0.0         81       22.9      189.4       22.9       25.4       19.5     1012.2       24.7       22.5        0.0        0.0        0.0       0.00       34.4       0.00       0.22        0.0
4:24              246        0.0         81       23.0      189.4       23.0       25.4       19.6     1012.1       24.7       22.5        0.0        0.0        0.0       0.00       34.6       0.00       0.22        0.0
4:26              246        0.0         81       23.0      189.4       23.0       25.4       19.6     1012.1       24.7       22.5        0.0        0.0        0.0       0.00       34.6       0.00       0.22        0.0
4:28              246        0.0         81       23.0      189.4       23.0       25.4       19.6     1012.1       24.7       22.5        0.0        0.0        0.0       0.00       34.7       0.00       0.22        0.0
4:30              246        0.0         80       23.1      189.4       23.1       25.4       19.4     1012.2       24.7       22.5        0.0        0.0        0.0       0.00       35.2       0.00       0.22        0.0
4:32              246        0.0         80       23.1      189.4       23.1       25.4       19.4     1012.2       24.7       22.5        0.0        0.0        0.0       0.00       35.7       0.00       0.23        0.0
4:34              246        0.0         80       23.1      189.4       23.1       25.4       19.4     1012.2       24.7       22.5        0.0        0.0        0.0       0.00       36.1       0.00       0.23        0.0
4:36              246        0.0         80       23.1      189.4       23.1       25.4       19.4     1012.1       24.7       22.5        0.0        0.0        0.0       0.00       36.3       0.00       0.23        0.0
4:38              246        0.0         80       23.1      189.4       23.1       25.5       19.5     1012.1       24.7       22.5        0.0        0.0        0.0       0.00       36.5       0.00       0.23        0.0
4:40              246        0.0         80       23.1      189.4       23.1       25.5       19.5     1012.2       24.7       22.5        0.0        0.0        0.0       0.00       36.6       0.00       0.23        0.0
4:42              246        0.0         80       23.1      189.4       23.1       25.5       19.5     1012.0       24.7       22.5        0.0        0.0        0.0       0.00       36.9       0.00       0.23        0.0
4:44              246        0.0         80       23.1      189.4       23.1       25.5       19.5     1012.2       24.7       22.5        0.0        0.0        0.0       0.00       36.9       0.00       0.23        0.0
4:46              246        0.0         80       23.1      189.4       23.1       25.4       19.4     1012.1       24.7       22.5        0.0        0.0        0.0       0.00       36.9       0.00       0.24        0.0
4:48              246        0.0         80       23.1      189.4       23.1       25.4       19.4     1012.2       24.7       22.5        0.0        0.0        0.0       0.00       36.9       0.00       0.24        0.0
4:50              246        0.0         80       23.1      189.4       23.1       25.4       19.4     1012.2       24.7       22.5        0.0        0.0        0.0       0.00       37.0       0.00       0.24        0.0
4:52              246        0.0         80       23.1      189.4       23.1       25.4       19.4     1012.3       24.7       22.5        0.0        0.0        0.0       0.00       37.3       0.00       0.24        0.0
4:54              246        0.0         80       23.1      189.4       23.1       25.4       19.4     1012.2       24.7       22.5        0.0        0.0        0.0       0.00       37.5       0.00       0.24        0.0
4:56              246        0.0         80       23.0      189.4       23.0       25.3       19.4     1012.2       24.7       22.5        0.0        0.0        0.0       0.00       37.6       0.00       0.24        0.0
4:58              246        0.0         80       23.0      189.4       23.0       25.3       19.4     1012.1       24.7       22.5        0.0        0.0        0.0       0.00       37.6       0.00       0.24        0.0
5:00              246        0.0         80       23.0      189.4       23.0       25.3       19.4     1012.0       24.7       22.5        0.0        0.0        0.0       0.00       37.6       0.00       0.24        0.0
5:02              246        0.0         80       23.0      189.4       23.0       25.3       19.4     1012.2       24.7       22.5        0.0        0.0        0.0       0.00       37.6       0.00       0.25        0.0
5:04              246        0.0         80       22.9      189.4       22.9       25.3       19.3     1012.2       24.7       22.5        0.0        0.0        0.0       0.00       37.6       0.00       0.25        0.0
5:06              246        0.0         80       22.9      189.4       22.9       25.3       19.3     1012.2       24.7       22.5        0.0        0.0        0.0       0.00       37.7       0.00       0.25        0.0
5:08              246        0.0         80       22.9      189.4       22.9       25.3       19.3     1012.2       24.7       22.5        0.0        0.0        0.0       0.00       37.7       0.00       0.25        0.0
5:10              246        0.0         80       22.9      189.4       22.9       25.2       19.3     1012.2       24.7       22.5        0.0        0.0        0.0       0.00       37.9       0.00       0.25        0.0
5:12              246        0.0         81       22.9      189.4       22.9       25.3       19.5     1012.2       24.7       22.5        0.0        0.0        0.0       0.00       37.9       0.00       0.25        0.0
5:14              246        0.0         81       22.9      189.4       22.9       25.3       19.5     1012.1       24.7       22.5        0.0        0.0        0.0       0.00       38.0       0.00       0.25        0.0
5:16              246        0.0         81       22.9      189.4       22.9       25.3       19.5     1012.3       24.7       22.5        0.0        0.0        0.0       0.00       38.0       0.00       0.26        0.0
5:18              246        0.0         81       22.9      189.4       22.9       25.3       19.5     1012.2       24.7       22.5        0.0        0.0        0.0       0.00       38.0       0.00       0.26        0.0
5:20              246        0.0         81       22.8      189.4       22.8       25.3       19.4     1012.3       24.7       22.5        0.0        0.0        0.0       0.00       38.1       0.00       0.26        0.0
5:22              246        0.0         81       22.8      189.4       22.8       25.3       19.4     1012.3       24.7       22.5        0.0        0.0        0.0       0.00       38.4       0.00       0.26        0.0
5:24              246        0.0         81       22.8      189.4       22.8       25.3       19.4     1012.4       24.7       22.5        0.0        0.0        0.0       0.00       38.7       0.00       0.26        0.0
5:26              246        0.0         81       22.8      189.4       22.8       25.3       19.4     1012.4       24.7       22.5        0.0        0.0        0.0       0.00       38.8       0.00       0.26        0.0
5:28              246        0.0         81       22.8      189.4       22.8       25.3       19.4     1012.4       24.7       22.5        0.0        0.0        0.0       0.00       38.8       0.00       0.26        0.0
5:30              246        0.0         81       22.8      189.4       22.8       25.3       19.4     1012.4       24.7       22.5        0.0        0.0        0.0       0.00       38.8       0.00       0.26        0.0
5:32              246        0.0         81       22.8      189.4       22.8       25.3       19.4     1012.3       24.7       22.5        0.0        0.0        0.0       0.00       38.8       0.00       0.27        0.0
5:34              246        0.0         81       22.8      189.4       22.8       25.3       19.4     1012.2       24.7       22.5        0.0        0.0        0.0       0.00       38.8       0.00       0.27        0.0
5:36              246        0.0         81       22.9      189.4       22.9       25.3       19.5     1012.3       24.7       22.5        0.0        0.0        0.0       0.00       38.8       0.00       0.27        0.0
5:38              246        0.0         81       22.9      189.4       22.9       25.3       19.5     1012.3       24.7       22.5        0.0        0.0        0.0       0.00       38.8       0.00       0.27        0.0
5:40              246        0.0         81       22.9      189.4       22.9       25.3       19.5     1012.3       24.7       22.5        0.0        0.0        0.0       0.00       38.8       0.00       0.27        0.0
5:42              246        0.0         81       22.9      189.4       22.9       25.3       19.5     1012.4       24.7       22.5        0.0        0.0        0.0       0.00       38.8       0.00       0.27        0.0
5:44              246        0.0         81       22.9      189.4       22.9       25.3       19.5     1012.3       24.7       22.5        0.0        0.0        0.0       0.00       38.8       0.00       0.27        0.0
5:46              246        0.0         81       22.9      189.4       22.9       25.4       19.5     1012.5       24.7       22.5        0.0        0.0        0.0       0.00       38.8       0.00       0.28        0.0
5:48              184        0.0         81       22.9      189.4       22.9       25.4       19.5     1012.5       24.7       22.5        0.0        0.0        0.0       0.00       38.8       0.00       0.28        0.0
5:50              184        0.0         81       22.9      189.4       22.9       25.4       19.5     1012.4       24.7       22.5        0.0        0.0        0.0       0.00       38.9       0.00       0.28        0.0
5:52              184        0.0         81       22.9      189.4       22.9       25.4       19.5     1012.5       24.7       22.5        0.0        0.0        0.0       0.00       38.9       0.00       0.28        0.0
5:54              184        0.0         81       22.9      189.4       22.9       25.4       19.5     1012.5       24.7       22.5        0.0        0.0        0.0       0.00       38.9       0.00       0.28        0.0
5:56              184        0.0         81       22.9      189.4       22.9       25.4       19.5     1012.4       24.7       22.5        0.0        0.0        0.0       0.00       38.9       0.00       0.28        0.0
5:58              184        0.0         81       23.0      189.4       23.0       25.4       19.6     1012.3       24.7       22.5        0.0        0.0        0.0       0.00       39.0       0.00       0.28        0.0
6:00              184        0.0         81       23.0      189.4       23.0       25.4       19.6     1012.4       24.7       22.5        0.0        0.0        0.0       0.00       39.2       0.00       0.28        0.0
6:02              184        0.0         81       23.0      189.4       23.0       25.4       19.6     1012.4       24.7       22.5        0.0        0.0        0.0       0.00       39.2       0.00       0.29        0.0
6:04              184        0.0         81       23.0      189.4       23.0       25.4       19.6     1012.5       24.7       22.5        0.0        0.0        0.0       0.00       39.2       0.00       0.29        0.0
6:06              184        0.0         81       23.0      189.4       23.0       25.4       19.6     1012.5       24.7       22.5        0.0        0.0        0.0       0.00       39.2       0.00       0.29        0.0
6:08              184        0.0         81       23.0      189.4       23.0       25.4       19.6     1012.5       24.7       22.5        0.0        0.0        0.0       0.00       39.4       0.00       0.29        0.0
6:10              184        0.0         81       23.0      189.4       23.0       25.4       19.6     1012.5       24.7       22.5        0.0        0.0        0.0       0.00       39.6       0.00       0.29        0.0
6:12              184        0.0         81       23.0      189.4       23.0       25.4       19.6     1012.6       24.7       22.5        0.0        0.0        0.0       0.00       39.8       0.00       0.29        0.0
6:14              184        0.0         81       23.0      189.4       23.0       25.4       19.6     1012.6       24.7       22.5        0.0        0.0        0.0       0.00       40.0       0.00       0.29        0.0
6:16              184        0.0         81       23.0      189.4       23.0       25.4       19.6     1012.6       24.7       22.5        0.0        0.0        0.0       0.00       40.4       0.00       0.30        0.0
6:18              184        0.0         80       22.9      189.4       22.9       25.3       19.3     1012.6       24.7       22.5        0.0        0.0        0.0       0.00       40.9       0.00       0.30        0.0
6:20              184        0.0         81       22.9      189.4       22.9       25.4       19.5     1012.6       24.7       22.5        0.0        0.0        0.0       0.00       41.2       0.00       0.30        0.0
6:22              184        0.0         81       22.9      189.4       22.9       25.3       19.5     1012.6       24.7       22.5        0.0        0.0        0.0       0.00       41.3       0.00       0.30        0.0
6:24              184        0.0         81       22.9      189.4       22.9       25.3       19.5     1012.7       24.7       22.5        0.0        0.0        0.0       0.00       41.5       0.00       0.30        0.0
6:26              184        0.0         81       22.9      189.4       22.9       25.3       19.5     1012.7       24.7       22.5        0.0        0.0        0.0       0.00       42.1       0.00       0.30        0.0
6:28              184        0.0         81       22.9      189.4       22.9       25.3       19.5     1012.7       24.7       22.5        0.0        0.0        0.0       0.00       42.5       0.00       0.30        0.0
6:30              184        0.0         81       22.8      189.4       22.8       25.3       19.4     1012.7       24.7       22.5        0.0        0.0        0.0       0.00       42.7       0.00       0.30        0.0
6:32              184        0.0         81       22.8      189.4       22.8       25.2       19.4     1012.6       24.7       22.5        0.0        0.0        0.0       0.00       42.8       0.00       0.31        0.0
6:34              184        0.0         81       22.7      189.4       22.7       25.1       19.3     1012.7       24.7       22.5        0.0        0.0        0.0       0.00       42.8       0.00       0.31        0.0
6:36              179        0.0         81       22.7      189.4       22.7       25.1       19.3     1012.6       24.7       22.5        0.0        0.0        0.0       0.00       43.1       0.00       0.31        0.0
6:38              187        0.0         81       22.7      189.4       22.7       25.1       19.3     1012.6       24.7       22.5        0.0        0.0        0.0       0.00       43.4       0.00       0.31        0.0
6:40              187        0.0         81       22.7      189.4       22.7       25.1       19.2     1012.7       24.7       22.5        0.0        0.0        0.0       0.00       43.6       0.00       0.31        0.0
6:42              187        0.0         81       22.7      189.4       22.7       25.1       19.2     1012.7       24.7       22.5        0.0        0.0        0.0       0.00       44.0       0.00       0.31        0.0
6:44              187        0.0         81       22.7      189.4       22.7       25.1       19.2     1012.6       24.7       22.5        0.0        0.0        0.0       0.00       44.3       0.00       0.31        0.0
6:46              187        0.0         81       22.7      189.4       22.7       25.1       19.2     1012.6       24.7       22.5        0.0        0.0        0.0       0.00       44.7       0.00       0.32        0.0
6:48              187        0.0         81       22.7      189.4       22.7       25.1       19.2     1012.6       24.7       22.5        0.0        0.0        0.0       0.00       45.0       0.00       0.32        0.0
6:50              187        0.0         81       22.7      189.4       22.7       25.1       19.2     1012.6       24.7       22.5        0.0        0.0        0.0       0.00       45.2       0.00       0.32        0.0
6:51              187        0.0         81       22.7      189.4       22.7       25.1       19.2     1012.7       24.7       22.5        0.0        0.0        0.0       0.00       45.4       0.00       0.32        0.0
6:54              187        0.0         81       22.7      189.4       22.7       25.1       19.2     1012.6       24.7       22.5        0.0        0.0        0.0       0.00       45.7       0.00       0.32        0.0
6:56              187        0.0         81       22.7      189.4       22.7       25.1       19.3     1012.7       24.7       22.5        0.0        0.0        0.0       0.00       46.0       0.00       0.32        0.0
6:58              187        0.0         81       22.7      189.4       22.7       25.1       19.3     1012.7       24.7       22.5        0.0        0.0        0.0       0.00       46.2       0.00       0.32        0.0
7:00              187        0.0         81       22.7      189.4       22.7       25.1       19.3     1012.6       24.7       22.5        0.0        0.0        0.0       0.00       46.6       0.00       0.32        0.0
7:02              187        0.0         81       22.8      189.4       22.8       25.2       19.4     1012.6       24.7       22.5        0.0        0.0        0.0       0.00       47.1       0.00       0.32        0.0
7:04              187        0.0         81       22.8      189.4       22.8       25.2       19.4     1012.7       24.7       22.5        0.0        0.0        0.0       0.00       47.5       0.00       0.32        0.0
7:06              187        0.0         81       22.8      189.4       22.8       25.3       19.4     1012.7       24.7       22.5        0.0        0.0        0.0       0.00       47.9       0.00       0.32        0.0
7:08              187        0.0         81       22.9      189.4       22.9       25.3       19.5     1012.7       24.7       22.5        0.0        0.0        0.0       0.00       48.2       0.00       0.32        0.0
7:10              187        0.0         81       22.9      189.4       22.9       25.4       19.5     1012.7       24.7       22.5        0.0        0.0        0.0       0.00       48.7       0.00       0.32        0.0
7:12              187        0.0         81       23.0      189.4       23.0       25.4       19.6     1012.7       24.7       22.5        0.0        0.0        0.0       0.00       49.1       0.00       0.32        0.0
7:14              187        0.0         81       23.1      189.4       23.1       25.5       19.6     1012.7       24.7       22.5        0.0        0.0        0.0       0.00       49.6       0.00       0.32        0.0
7:16              187        0.0         81       23.1      189.4       23.1       25.5       19.6     1012.7       24.7       22.5        0.0        0.0        0.0       0.00       50.2       0.00       0.33        0.0
7:18              187        0.0         80       23.1      189.4       23.1       25.5       19.5     1012.7       24.7       22.5        0.0        0.0        0.0       0.00       50.5       0.00       0.33        0.0
7:20              187        0.0         80       23.1      189.4       23.1       25.5       19.5     1012.7       24.7       22.5        0.0        0.0        0.0       0.00       50.9       0.00       0.33        0.0
7:22              187        0.0         81       23.2      189.4       23.2       25.6       19.7     1012.7       24.7       22.5        0.0        0.0        0.0       0.00       51.2       0.00       0.33        0.0
7:24              187        0.0         81       23.2      189.4       23.2       25.6       19.8     1012.7       24.7       22.5        0.0        0.0        0.0       0.00       51.5       0.00       0.33        0.0
7:26              187        0.0         81       23.3      189.4       23.3       25.7       19.8     1012.7       24.7       22.5        0.0        0.0        0.0       0.00       51.8       0.00       0.33        0.0
7:28              187        0.0         81       23.3      189.4       23.3       25.8       19.9     1012.7       24.7       22.5        0.0        0.0        0.0       0.00       52.1       0.00       0.33        0.0
7:30              187        0.0         81       23.4      189.4       23.4       25.8       19.9     1012.7       24.7       22.5        0.0        0.0        0.0       0.00       52.4       0.00       0.33        0.0
7:32              187        0.0         80       23.4      189.4       23.4       25.8       19.8     1012.7       24.7       22.5        0.0        0.0        0.0       0.00       52.8       0.00       0.35        0.0
7:34              187        0.0         80       23.5      189.4       23.5       25.8       19.9     1012.7       24.7       22.5        0.0        0.0        0.0       0.00       53.2       0.00       0.35        0.0
7:36              187        0.0         80       23.6      189.4       23.6       25.9       19.9     1012.7       24.7       22.5        0.0        0.0        0.0       0.00       53.6       0.00       0.35        0.0
7:38              187        0.0         80       23.6      189.4       23.6       25.9       19.9     1012.7       24.7       22.5        0.0        0.0        0.0       0.00       54.0       0.00       0.35        0.0
7:40              187        0.0         80       23.6      189.4       23.6       26.0       20.0     1012.7       24.7       22.5        0.0        0.0        0.0       0.00       54.3       0.00       0.35        0.0
7:42              187        0.0         80       23.7      189.4       23.7       26.0       20.0     1012.7       24.7       22.5        0.0        0.0        0.0       0.00       54.7       0.00       0.35        0.0
7:44              187        0.0         80       23.7      189.4       23.7       26.1       20.1     1012.7       24.7       22.5        0.0        0.0        0.0       0.00       55.1       0.00       0.35        0.0
7:46              187        0.0         80       23.8      189.4       23.8       26.1       20.1     1012.7       24.7       22.5        0.0        0.0        0.0       0.00       55.4       0.00       0.37        0.0
7:48              187        0.0         80       23.8      189.4       23.8       26.2       20.2     1012.7       24.7       22.5        0.0        0.0        0.0       0.00       55.5       0.00       0.37        0.0
7:50              187        0.0         79       23.9      189.4       23.9       26.2       20.0     1012.7       24.7       22.5        0.0        0.0        0.0       0.00       55.9       0.00       0.37        0.0
7:52              187        0.0         79       23.9      189.4       23.9       26.2       20.1     1012.7       24.7       22.5        0.0        0.0        0.0       0.00       56.2       0.00       0.37        0.0
7:54              187        0.0         79       24.1      189.4       24.1       26.3       20.2     1012.7       24.7       22.5        0.0        0.0        0.0       0.00       56.5       0.00       0.37        0.0
7:56              188        0.0         79       24.1      189.4       24.1       26.4       20.2     1012.7       24.7       22.5        0.0        0.0        0.0       0.00       56.7       0.00       0.37        0.0
7:58              188        0.0         79       24.2      189.4       24.2       26.5       20.4     1012.7       24.7       22.5        0.0        0.0        0.0       0.00       57.1       0.00       0.37        0.0
8:00              188        0.0         79       24.3      189.4       24.3       26.6       20.4     1012.7       24.7       22.5        0.0        0.0        0.0       0.00       57.5       0.00       0.37        0.0
8:02              188        0.0         79       24.3      189.4       24.3       26.6       20.5     1012.7       24.7       22.5        0.0        0.0        0.0       0.00       58.0       0.00       0.39        0.0
8:04              188        0.0         79       24.4      189.4       24.4       26.7       20.5     1012.7       24.7       22.5        0.0        0.0        0.0       0.00       58.5       0.00       0.39        0.0
8:06              188        0.0         78       24.5      189.4       24.5       26.7       20.4     1012.7       24.7       22.5        0.0        0.0        0.0       0.00       58.8       0.00       0.39        0.0
8:08              188        0.0         78       24.6      189.4       24.6       26.8       20.5     1012.7       24.7       22.5        0.0        0.0        0.0       0.00       59.3       0.00       0.39        0.0
8:10              188        0.0         78       24.6      189.4       24.6       26.8       20.5     1012.7       24.7       22.5        0.0        0.0        0.0       0.00       59.8       0.00       0.39        0.0
8:12              188        0.0         78       24.7      189.4       24.7       26.9       20.6     1012.7       24.7       22.5        0.0        0.0        0.0       0.00       60.3       0.00       0.39        0.0
8:14              188        0.0         78       24.7      189.4       24.7       26.9       20.6     1012.7       24.7       22.5        0.0        0.0        0.0       0.00       60.7       0.00       0.39        0.0
8:16              188        0.0         78       24.8      189.4       24.8       27.0       20.7     1012.7       24.8       22.5        0.0        0.0        0.0       0.00       61.2       0.00       0.42        0.0
8:18              188        0.0         77       24.8      189.4       24.8       27.0       20.5     1012.7       24.8       22.5        0.0        0.0        0.0       0.00       61.7       0.00       0.42        0.0
8:20              203        0.0         77       24.8      189.4       24.8       27.0       20.5     1012.7       24.8       22.5        0.0        0.0        0.0       0.00       62.2       0.00       0.42        0.0
8:22              203        0.0         77       24.8      189.4       24.8       27.0       20.5     1012.7       24.8       22.5        0.0        0.0        0.0       0.00       62.8       0.00       0.42        0.0
8:24              204        0.0         77       24.8      189.4       24.8       27.0       20.5     1012.7       24.8       22.5        0.0        0.0        0.0       0.00       63.4       0.00       0.42        0.0
8:26              204        0.0         77       24.8      189.4       24.8       27.0       20.5     1012.7       24.8       22.5        0.0        0.0        0.0       0.00       64.1       0.00       0.42        0.0
8:28              205        0.0         77       24.9      189.4       24.9       27.0       20.6     1012.7       24.9       22.5        0.0        0.0        0.0       0.00       64.7       0.00       0.42        0.0
8:30              205        0.0         77       24.9      189.4       24.9       27.0       20.6     1012.7       24.9       22.5        0.0        0.0        0.0       0.00       65.2       0.00       0.42        0.0
8:32              205        0.0         77       24.9      189.4       24.9       27.1       20.6     1012.6       24.9       22.5        0.0        0.0        0.0       0.00       65.8       0.00       0.45        0.0
8:34              205        0.0         77       25.0      189.4       25.0       27.1       20.7     1012.7       25.0       22.5        0.0        0.0        0.0       0.00       66.6       0.00       0.45        0.0
8:36              205        0.0         77       25.0      189.4       25.0       27.1       20.7     1012.7       25.0       22.5        0.0        0.0        0.0       0.00       67.1       0.00       0.45        0.0
8:38              205        0.0         77       25.1      189.4       25.1       27.2       20.7     1012.7       25.1       22.5        0.0        0.0        0.0       0.00       67.5       0.00       0.45        0.0
8:40              205        0.0         76       25.1      189.4       25.1       27.2       20.6     1012.7       25.1       22.5        0.0        0.0        0.0       0.00       68.0       0.00       0.45        0.0
8:42              205        0.0         76       25.2      189.4       25.2       27.2       20.6     1012.7       25.2       22.5        0.0        0.0        0.0       0.00       68.7       0.00       0.45        0.0
8:44              205        0.0         76       25.2      189.4       25.2       27.3       20.7     1012.7       25.2       22.5        0.0        0.0        0.0       0.00       69.4       0.00       0.45        0.0
8:46              205        0.0         76       25.2      189.4       25.2       27.3       20.7     1012.6       25.2       22.5        0.0        0.0        0.0       0.00       70.1       0.00       0.48        0.0
8:48              147        0.0         76       25.2      189.4       25.2       27.3       20.7     1012.6       25.3       22.5        0.0        0.0        0.0       0.00       70.7       0.00       0.48        0.0
8:50              147        0.0         76       25.3      189.4       25.3       27.3       20.7     1012.7       25.3       22.5        0.0        0.0        0.0       0.00       71.3       0.00       0.48        0.0
8:52              147        0.0         76       25.3      189.4       25.3       27.4       20.8     1012.6       25.3       22.5        0.0        0.0        0.0       0.00       71.9       0.00       0.48        0.0
8:54              149        0.0         76       25.4      189.4       25.4       27.4       20.9     1012.7       25.4       22.5        0.0        0.0        0.0       0.00       72.6       0.00       0.48        0.0
8:56              149        0.0         76       25.4      189.4       25.4       27.5       20.9     1012.6       25.4       22.5        0.0        0.0        0.0       0.00       73.1       0.00       0.48        0.0
8:58              149        0.0         75       25.6      189.4       25.6       27.5       20.8     1012.6       25.6       22.5        0.0        0.0        0.0       0.00       73.7       0.00       0.48        0.0
9:00              150        0.0         75       25.7      189.4       25.7       27.7       20.9     1012.6       25.7       22.5        0.0        0.0        0.0       0.00       74.4       0.00       0.48        0.0
9:02              153        0.0         75       25.7      189.4       25.7       27.7       21.0     1012.6       25.7       22.5        0.0        0.0        0.0       0.00       75.2       0.00       0.52        0.0
9:04              157        0.0         74       25.7      189.4       25.7       27.6       20.7     1012.6       25.7       22.5        0.0        0.0        0.0       0.00       76.3       0.00       0.52        0.0
9:06              157        0.0         74       25.8      189.4       25.8       27.7       20.8     1012.6       25.8       22.5        0.0        0.0        0.0       0.00       77.2       0.00       0.52        0.0
9:08              157        0.0         74       25.8      189.4       25.8       27.7       20.8     1012.6       25.8       22.5        0.0        0.0        0.0       0.00       77.7       0.00       0.52        0.0
9:10              157        0.0         74       25.9      189.4       25.9       27.8       20.9     1012.6       25.9       22.5        0.0        0.0        0.0       0.00       78.5       0.00       0.52        0.0
9:12              157        0.0         74       25.9      189.4       25.9       27.9       21.0     1012.7       25.9       22.5        0.0        0.0        0.0       0.00       79.5       0.00       0.52        0.0
9:14              157        0.0         73       26.0      189.4       26.0       27.8       20.8     1012.7       26.0       22.5        0.0        0.0        0.0       0.00       80.3       0.00       0.52        0.0
9:16              160        0.0         73       26.1      189.4       26.1       27.9       20.8     1012.6       26.1       22.5        0.0        0.0        0.0       0.00       81.3       0.00       0.56        0.0
9:18              160        0.0         72       26.1      189.4       26.1       27.8       20.6     1012.7       26.1       22.5        0.0        0.0        0.0       0.00       82.2       0.00       0.56        0.0
9:20              160        0.0         72       26.1      189.4       26.1       27.9       20.7     1012.7       26.1       22.5        0.0        0.0        0.0       0.00       83.4       0.00       0.56        0.0
9:22              163        0.0         72       26.2      189.4       26.2       27.9       20.7     1012.7       26.2       22.5        0.0        0.0        0.0       0.00       84.8       0.00       0.56        0.0
9:24              164        0.0         72       26.3      189.4       26.3       28.1       20.8     1012.6       26.3       22.5        0.0        0.0        0.0       0.00       85.8       0.00       0.56        0.0
9:26              164        0.0         72       26.3      189.4       26.3       28.1       20.9     1012.6       26.3       22.5        0.0        0.0        0.0       0.00       86.8       0.00       0.56        0.0
9:28              165        0.0         71       26.4      189.4       26.4       28.1       20.7     1012.6       26.4       22.5        0.0        0.0        0.0       0.00       87.8       0.00       0.56        0.0
9:30              165        0.0         71       26.4      189.4       26.4       28.2       20.8     1012.6       26.4       22.5        0.0        0.0        0.0       0.00       88.8       0.00       0.56        0.0
9:32              165        0.0         71       26.4      189.4       26.4       28.2       20.8     1012.6       26.4       22.5        0.0        0.0        0.0       0.00       89.7       0.00       0.61        0.0
9:34              164        0.0         71       26.5      189.4       26.5       28.2       20.8     1012.6       26.5       22.5        0.0        0.0        0.0       0.00       90.4       0.00       0.61        0.0
9:36              165        0.0         71       26.6      189.4       26.6       28.3       20.9     1012.5       26.6       22.5        0.0        0.0        0.0       0.00       91.1       0.00       0.61        0.0
9:38              165        0.0         70       26.6      189.4       26.6       28.3       20.7     1012.5       26.6       22.5        0.0        0.0        0.0       0.00       92.3       0.00       0.61        0.0
9:40              166        0.0         70       26.7      189.4       26.7       28.4       20.8     1012.5       26.7       22.5        0.0        0.0        0.0       0.00       93.5       0.00       0.61        0.0
9:42              166        0.0         70       26.7      189.4       26.7       28.4       20.8     1012.5       26.7       22.5        0.0        0.0        0.0       0.00       94.4       0.00       0.61        0.0
9:44              166        0.0         70       26.8      189.4       26.8       28.5       20.9     1012.6       26.8       22.5        0.0        0.0        0.0       0.00       95.2       0.00       0.61        0.0
9:46              166        0.0         70       26.8      189.4       26.8       28.5       20.9     1012.5       26.8       22.5        0.0        0.0        0.0       0.00       95.6       0.00       0.66        0.0
9:48              166        0.0         69       26.8      189.4       26.8       28.5       20.7     1012.5       26.8       22.5        0.0        0.0        0.0       0.00       96.3       0.00       0.66        0.0
9:50              166        0.0         69       26.9      189.4       26.9       28.6       20.7     1012.5       26.9       22.5        0.0        0.0        0.0       0.00       96.8       0.00       0.66        0.0
9:52              166        0.0         69       26.9      189.4       26.9       28.7       20.8     1012.6       26.9       22.5        0.0        0.0        0.0       0.00       97.7       0.00       0.66        0.0
9:54              166        0.0         69       27.1      189.4       27.1       28.9       20.9     1012.5       27.1       22.5        0.0        0.0        0.0       0.00       98.5       0.00       0.66        0.0
9:56              166        0.0         69       27.1      189.4       27.1       29.0       20.9     1012.5       27.1       22.5        0.0        0.0        0.0       0.00       99.5       0.00       0.66        0.0
9:58              166        0.0         68       27.2      189.4       27.2       29.1       20.8     1012.5       27.2       22.5        0.0        0.0        0.0       0.00      100.3       0.00       0.66        0.0
10:00             166        0.0         68       27.3      189.4       27.3       29.1       20.9     1012.6       27.3       22.5        0.0        0.0        0.0       0.00      100.7       0.00       0.66        0.0
10:02             167        0.0         68       27.4      189.4       27.4       29.3       21.0     1012.6       27.4       22.5        0.0        0.0        0.0       0.00      101.5       0.00       0.71        0.0
10:04             168        0.0         68       27.4      189.4       27.4       29.3       21.0     1012.7       27.4       22.5        0.0        0.0        0.0       0.00      102.4       0.00       0.71        0.0
10:06             168        0.0         67       27.4      189.4       27.4       29.2       20.7     1012.7       27.4       22.5        0.0        0.0        0.0       0.00      103.1       0.00       0.71        0.0
10:08             168        0.0         67       27.4      189.4       27.4       29.3       20.8     1012.7       27.4       22.5        0.0        0.0        0.0       0.00      104.1       0.00       0.71        0.0
10:10             168        0.0         66       27.5      189.4       27.5       29.3       20.6     1012.7       27.5       22.5        0.0        0.0        0.0       0.00      104.9       0.00       0.71        0.0
10:12             168        0.0         66       27.5      189.4       27.5       29.3       20.6     1012.7       27.5       22.5        0.0        0.0        0.0       0.00      105.5       0.00       0.71        0.0
10:14             168        0.0         66       27.6      189.4       27.6       29.5       20.7     1012.7       27.6       22.5        0.0        0.0        0.0       0.00      106.2       0.00       0.71        0.0
10:16             168        0.0         67       27.7      189.4       27.7       29.8       21.0     1012.7       27.7       22.5        0.0        0.0        0.0       0.00      106.6       0.00       0.77        0.0
10:18             168        0.0         66       27.8      189.4       27.8       29.9       20.9     1012.7       27.8       22.5        0.0        0.0        0.0       0.00      107.4       0.00       0.77        0.0
10:20             168        0.0         66       27.9      189.4       27.9       30.0       21.0     1012.7       27.9       22.5        0.0        0.0        0.0       0.00      108.3       0.00       0.77        0.0
10:22             168        0.0         66       28.0      189.4       28.0       30.2       21.1     1012.7       28.0       22.5        0.0        0.0        0.0       0.00      109.3       0.00       0.77        0.0
10:24             168        0.0         65       28.1      189.4       28.1       30.2       20.9     1012.7       28.1       22.5        0.0        0.0        0.0       0.00      110.1       0.00       0.77        0.0
10:26             168        0.0         65       28.2      189.4       28.2       30.4       21.0     1012.6       28.2       22.5        0.0        0.0        0.0       0.00      110.8       0.00       0.77        0.0
10:28             168        0.0         64       28.3      189.4       28.3       30.5       20.9     1012.6       28.3       22.5        0.0        0.0        0.0       0.00      111.4       0.00       0.77        0.0
10:30             168        0.0         64       28.4      189.4       28.4       30.6       20.9     1012.6       28.4       22.5        0.0        0.0        0.0       0.00      112.2       0.00       0.77        0.0
10:32             168        0.0         64       28.5      189.4       28.5       30.8       21.0     1012.6       28.5       22.5        0.0        0.0        0.0       0.00      113.1       0.00       0.84        0.0
10:34             168        0.0         63       28.6      189.4       28.6       30.7       20.8     1012.4       28.6       22.5        0.0        0.0        0.0       0.00      113.6       0.00       0.84        0.0
10:36             168        0.0         63       28.6      189.4       28.6       30.8       20.9     1012.5       28.6       22.5        0.0        0.0        0.0       0.00      114.2       0.00       0.84        0.0
10:38             168        0.0         63       28.7      189.4       28.7       30.9       20.9     1012.4       28.7       22.5        0.0        0.0        0.0       0.00      114.5       0.00       0.84        0.0
10:40             168        0.0         63       28.7      189.4       28.7       31.0       21.0     1012.4       28.7       22.5        0.0        0.0        0.0       0.00      114.8       0.00       0.84        0.0
10:42             168        0.0         63       28.8      189.4       28.8       31.2       21.1     1012.4       28.8       22.5        0.0        0.0        0.0       0.00      115.2       0.00       0.84        0.0
10:44             168        0.0         61       28.9      189.4       28.9       31.0       20.6     1012.3       28.9       22.5        0.0        0.0        0.0       0.00      115.8       0.00       0.84        0.0
10:46             168        0.0         61       29.0      189.4       29.0       31.2       20.7     1012.4       29.0       22.5        0.0        0.0        0.0       0.00      116.2       0.00       0.91        0.0
10:48             169        0.0         61       29.1      189.4       29.1       31.3       20.8     1012.3       29.1       22.5        0.0        0.0        0.0       0.00      116.8       0.00       0.91        0.0
10:50             168        0.0         61       29.1      189.4       29.1       31.3       20.8     1012.2       29.1       22.5        0.0        0.0        0.0       0.00      118.0       0.00       0.91        0.0
10:52             168        0.0         61       29.1      189.4       29.1       31.3       20.8     1012.2       29.1       22.5        0.0        0.0        0.0       0.00      118.7       0.00       0.91        0.0
10:54             168        0.0         61       29.0      189.4       29.0       31.2       20.7     1012.2       29.1       22.5        0.0        0.0        0.0       0.00      119.3       0.00       0.91        0.0
10:56             168        0.0         61       29.0      189.4       29.0       31.2       20.7     1012.2       29.1       22.5        0.0        0.0        0.0       0.00      119.4       0.00       0.91        0.0
10:58             197        0.0         61       29.1      189.4       29.1       31.3       20.8     1012.3       29.1       22.5        0.0        0.0        0.0       0.00      119.9       0.00       0.91        0.0
11:00             197        0.0         61       29.2      189.4       29.2       31.5       20.9     1012.2       29.2       22.5        0.0        0.0        0.0       0.00      120.4       0.00       0.91        0.0
11:02             197        0.0         60       29.2      189.4       29.2       31.4       20.7     1012.1       29.2       22.5        0.0        0.0        0.0       0.00      120.8       0.00       0.99        0.0
11:04             197        0.0         60       29.3      189.4       29.3       31.6       20.8     1012.1       29.3       22.5        0.0        0.0        0.0       0.00      121.3       0.00       0.99        0.0
11:06             200        0.0         60       29.4      189.4       29.4       31.7       20.8     1012.0       29.4       22.5        0.0        0.0        0.0       0.00      122.2       0.00       0.99        0.0
11:08             202        0.0         60       29.5      189.4       29.5       31.9       20.9     1012.1       29.5       22.5        0.0        0.0        0.0       0.00      122.7       0.00       0.99        0.0
11:10             199        0.0         60       29.6      189.4       29.6       32.0       21.0     1012.0       29.6       22.5        0.0        0.0        0.0       0.00      123.7       0.00       0.99        0.0
11:12             199        0.0         59       29.6      189.4       29.6       31.9       20.8     1012.0       29.6       22.5        0.0        0.0        0.0       0.00      124.4       0.00       0.99        0.0
11:14             164        0.0         59       29.7      189.4       29.7       32.1       20.9     1012.0       29.7       22.5        0.0        0.0        0.0       0.00      125.2       0.00       0.99        0.0
11:16             169        0.0         59       29.8      189.4       29.8       32.3       21.0     1012.1       29.8       22.5        0.0        0.0        0.0       0.00      126.6       0.00       1.07        0.0
11:18             189        0.0         58       29.9      189.4       29.9       32.3       20.8     1012.1       29.9       22.5        0.0        0.0        0.0       0.00      127.7       0.00       1.07        0.0
11:20             199        0.0         58       30.1      189.4       30.1       32.5       20.9     1012.0       30.1       22.5        0.0        0.0        0.0       0.00      128.4       0.00       1.07        0.0
11:22             157        0.0         58       30.1      189.4       30.1       32.6       20.9     1012.0       30.1       22.5        0.0        0.0        0.0       0.00      128.9       0.00       1.07        0.0
11:24             173        0.0         57       30.2      189.4       30.2       32.6       20.8     1012.0       30.2       22.5        0.0        0.0        0.0       0.00      129.6       0.00       1.07        0.0
11:26             177        0.0         57       30.3      189.4       30.3       32.8       20.8     1012.0       30.3       22.5        0.0        0.0        0.0       0.00      130.1       0.00       1.07        0.0
11:28             177        0.0         57       30.4      189.4       30.4       33.0       20.9     1012.0       30.4       22.5        0.0        0.0        0.0       0.00      131.0       0.00       1.07        0.0
11:30             200        0.0         56       30.4      189.4       30.4       32.9       20.7     1012.0       30.4       22.5        0.0        0.0        0.0       0.00      132.4       0.00       1.07        0.0
11:32             193        0.0         56       30.5      189.4       30.5       33.0       20.7     1012.0       30.5       22.5        0.0        0.0        0.0       0.00      133.5       0.00       1.16        0.0
11:34             181        0.0         56       30.5      189.4       30.5       33.0       20.7     1012.0       30.5       22.5        0.0        0.0        0.0       0.00      134.7       0.00       1.16        0.0
11:36             180        0.0         56       30.6      189.4       30.6       33.1       20.8     1012.0       30.6       22.5        0.0        0.0        0.0       0.00      135.6       0.00       1.16        0.0
11:38             181        0.0         56       30.6      189.4       30.6       33.2       20.8     1012.0       30.6       22.5        0.0        0.0        0.0       0.00      136.5       0.00       1.16        0.0
11:40             175        0.0         57       30.7      189.4       30.7       33.6       21.2     1012.0       30.7       22.5        0.0        0.0        0.0       0.00      137.1       0.00       1.16        0.0
11:42             175        0.0         56       30.8      189.4       30.8       33.6       21.0     1011.9       30.8       22.5        0.0        0.0        0.0       0.00      138.1       0.00       1.16        0.0
11:44             159        0.0         56       30.9      189.4       30.9       33.7       21.1     1012.0       30.9       22.5        0.0        0.0        0.0       0.00      139.2       0.00       1.16        0.0
11:46             194        0.0         56       30.9      189.4       30.9       33.8       21.2     1012.0       30.9       22.5        0.0        0.0        0.0       0.00      140.6       0.00       1.25        0.0
11:48             180        0.0         56       30.9      189.4       30.9       33.8       21.2     1012.0       31.0       22.5        0.0        0.0        0.0       0.00      141.4       0.00       1.25        0.0
11:50             202        0.0         56       30.9      189.4       30.9       33.8       21.2     1012.0       31.0       22.5        0.0        0.0        0.0       0.00      142.5       0.00       1.25        0.0
11:52             215        0.0         56       30.9      189.4       30.9       33.7       21.1     1012.0       31.0       22.5        0.0        0.0        0.0       0.00      142.9       0.00       1.25        0.0
11:54             219        0.0         56       30.8      189.4       30.8       33.6       21.0     1012.0       31.0       22.5        0.0        0.0        0.0       0.00      144.0       0.00       1.25        0.0
11:56             194        0.0         56       30.8      189.4       30.8       33.5       21.0     1011.9       31.0       22.5        0.0        0.0        0.0       0.00      144.8       0.00       1.25        0.0
11:58             167        0.0         56       30.7      189.4       30.7       33.4       20.9     1012.0       31.0       22.5        0.0        0.0        0.0       0.00      145.9       0.00       1.25        0.0
12:00             183        0.0         56       30.7      189.4       30.7       33.4       20.9     1012.0       31.0       22.5        0.0        0.0        0.0       0.00      146.5       0.00       1.25        0.0
12:02             197        0.0         56       30.7      189.4       30.7       33.4       20.9     1012.0       31.0       22.5        0.0        0.0        0.0       0.00      147.2       0.00       1.34        0.0
12:04             200        0.0         56       30.7      189.4       30.7       33.4       20.9     1012.0       31.0       22.5        0.0        0.0        0.0       0.00      148.2       0.00       1.34        0.0
12:06             244        0.0         57       30.6      189.4       30.6       33.4       21.1     1012.0       31.0       22.5        0.0        0.0        0.0       0.00      149.0       0.00       1.34        0.0
12:08             178        0.0         57       30.6      189.4       30.6       33.3       21.1     1011.9       31.0       22.5        0.0        0.0        0.0       0.00      149.7       0.00       1.34        0.0
12:10             171        0.0         57       30.5      189.4       30.5       33.2       21.0     1012.0       31.0       22.5        0.0        0.0        0.0       0.00      150.3       0.00       1.34        0.0
12:12             142        0.0         57       30.6      189.4       30.6       33.3       21.1     1011.9       31.0       22.5        0.0        0.0        0.0       0.00      151.0       0.00       1.34        0.0
12:14             178        0.0         57       30.7      189.4       30.7       33.5       21.2     1011.9       31.0       22.5        0.0        0.0        0.0       0.00      151.9       0.00       1.34        0.0
12:16             192        0.0         57       30.7      189.4       30.7       33.5       21.2     1011.9       31.0       22.5        0.0        0.0        0.0       0.00      152.6       0.00       1.43        0.0
12:18             178        0.0         57       30.7      189.4       30.7       33.5       21.2     1011.9       31.0       22.5        0.0        0.0        0.0       0.00      153.6       0.00       1.43        0.0
12:20             160        0.0         57       30.7      189.4       30.7       33.6       21.2     1011.8       31.0       22.5        0.0        0.0        0.0       0.00      154.1       0.00       1.43        0.0
12:21             183        0.0         57       30.8      189.4       30.8       33.7       21.3     1011.9       31.0       22.5        0.0        0.0        0.0       0.00      154.8       0.00       1.43        0.0
12:24             155        0.0         57       30.9      189.4       30.9       33.9       21.4     1011.8       31.0       22.5        0.0        0.0        0.0       0.00      155.4       0.00       1.43        0.0
12:26             189        0.0         56       30.9      189.4       30.9       33.8       21.2     1011.7       31.0       22.5        0.0        0.0        0.0       0.00      155.7       0.00       1.43        0.0
12:28             222        0.0         56       31.0      189.4       31.0       33.9       21.2     1011.7       31.0       22.5        0.0        0.0        0.0       0.00      156.3       0.00       1.43        0.0
12:30             225        0.0         56       31.0      189.4       31.0       33.9       21.2     1011.7       31.0       22.5        0.0        0.0        0.0       0.00      156.9       0.00       1.43        0.0
12:32             219        0.0         56       31.0      189.4       31.0       33.9       21.2     1011.7       31.0       22.5        0.0        0.0        0.0       0.00      157.6       0.00       1.52        0.0
12:34             228        0.0         56       31.0      189.4       31.0       33.9       21.2     1011.7       31.0       22.5        0.0        0.0        0.0       0.00      158.1       0.00       1.52        0.0
12:36             226        0.0         56       31.0      189.4       31.0       33.9       21.2     1011.7       31.0       22.5        0.0        0.0        0.0       0.00      158.8       0.00       1.52        0.0
12:38             203        0.0         56       30.9      189.4       30.9       33.7       21.1     1011.6       31.0       22.5        0.0        0.0        0.0       0.00      160.1       0.00       1.52        0.0
12:40             188        0.0         56       31.0      189.4       31.0       33.9       21.2     1011.7       31.0       22.5        0.0        0.0        0.0       0.00      161.2       0.00       1.52        0.0
12:42             188        0.0         56       31.1      189.4       31.1       34.0       21.3     1011.7       31.1       22.5        0.0        0.0        0.0       0.00      161.9       0.00       1.52        0.0
12:44             196        0.0         56       31.2      189.4       31.2       34.2       21.4     1011.7       31.2       22.5        0.0        0.0        0.0       0.00      162.6       0.00       1.52        0.0
12:46             196        0.0         55       31.2      189.4       31.2       34.1       21.1     1011.6       31.2       22.5        0.0        0.0        0.0       0.00      162.9       0.00       1.62        0.0
12:48             196        0.0         56       31.3      189.4       31.3       34.4       21.5     1011.5       31.3       22.5        0.0        0.0        0.0       0.00      163.3       0.00       1.62        0.0
12:50             196        0.0         55       31.4      189.4       31.4       34.4       21.3     1011.7       31.4       22.5        0.0        0.0        0.0       0.00      163.8       0.00       1.62        0.0
12:52             186        0.0         55       31.5      189.4       31.5       34.6       21.4     1011.5       31.5       22.5        0.0        0.0        0.0       0.00      164.5       0.00       1.62        0.0
12:54             170        0.0         54       31.6      189.4       31.6       34.6       21.2     1011.5       31.6       22.5        0.0        0.0        0.0       0.00      165.6       0.00       1.62        0.0
12:56             161        0.0         55       31.7      189.4       31.7       35.0       21.5     1011.6       31.7       22.5        0.0        0.0        0.0       0.00      166.5       0.00       1.62        0.0
12:58             168        0.0         54       31.7      189.4       31.7       34.8       21.3     1011.5       31.7       22.5        0.0        0.0        0.0       0.00      167.4       0.00       1.62        0.0
13:00             162        0.0         55       31.7      189.4       31.7       35.1       21.6     1011.5       31.7       22.5        0.0        0.0        0.0       0.00      167.8       0.00       1.62        0.0
13:02             209        0.0         55       31.8      189.4       31.8       35.2       21.6     1011.5       31.8       22.5        0.0        0.0        0.0       0.00      168.5       0.00       1.72        0.0
13:04             194        0.0         55       31.8      189.4       31.8       35.3       21.7     1011.5       31.8       22.5        0.0        0.0        0.0       0.00      169.4       0.00       1.72        0.0
13:06             241        0.0         54       31.9      189.4       31.9       35.1       21.4     1011.4       31.9       22.5        0.0        0.0        0.0       0.00      170.1       0.00       1.72        0.0
13:08             212        0.0         54       31.9      189.4       31.9       35.1       21.4     1011.5       31.9       22.5        0.0        0.0        0.0       0.00      171.3       0.00       1.72        0.0
13:10             216        0.0         54       31.8      189.4       31.8       35.0       21.4     1011.5       31.9       22.5        0.0        0.0        0.0       0.00      172.0       0.00       1.72        0.0
13:12             202        0.0         55       31.7      189.4       31.7       35.1       21.6     1011.5       31.9       22.5        0.0        0.0        0.0       0.00      172.5       0.00       1.72        0.0
13:14             217        0.0         55       31.7      189.4       31.7       35.1       21.6     1011.4       31.9       22.5        0.0        0.0        0.0       0.00      173.0       0.00       1.72        0.0
13:16             186        0.0         55       31.7      189.4       31.7       35.0       21.5     1011.4       31.9       22.5        0.0        0.0        0.0       0.00      173.8       0.00       1.82        0.0
13:18             198        0.0         55       31.7      189.4       31.7       35.0       21.5     1011.4       31.9       22.5        0.0        0.0        0.0       0.00      174.7       0.00       1.82        0.0
13:20             198        0.0         54       31.7      189.4       31.7       34.7       21.2     1011.4       31.9       22.5        0.0        0.0        0.0       0.00      175.5       0.00       1.82        0.0
13:22             223        0.0         55       31.6      189.4       31.6       34.8       21.5     1011.3       31.9       22.5        0.0        0.0        0.0       0.00      176.4       0.00       1.82        0.0
13:24             167        0.0         55       31.6      189.4       31.6       34.7       21.4     1011.3       31.9       22.5        0.0        0.0        0.0       0.00      177.6       0.00       1.82        0.0
13:26             236        0.0         55       31.6      189.4       31.6       34.8       21.5     1011.3       31.9       22.5        0.0        0.0        0.0       0.00      178.7       0.00       1.82        0.0
13:28             214        0.0         54       31.7      189.4       31.7       34.8       21.3     1011.3       31.9       22.5        0.0        0.0        0.0       0.00      179.5       0.00       1.82        0.0
13:30             223        0.0         55       31.7      189.4       31.7       35.1       21.6     1011.4       31.9       22.5        0.0        0.0        0.0       0.00      180.2       0.00       1.82        0.0
13:32             226        0.0         55       31.8      189.4       31.8       35.2       21.6     1011.3       31.9       22.5        0.0        0.0        0.0       0.00      180.8       0.00       1.92        0.0
13:34             225        0.0         55       31.7      189.4       31.7       35.1       21.6     1011.3       31.9       22.5        0.0        0.0        0.0       0.00      181.4       0.00       1.92        0.0
13:36             188        0.0         55       31.6      189.4       31.6       34.8       21.5     1011.2       31.9       22.5        0.0        0.0        0.0       0.00      182.4       0.00       1.92        0.0
13:38             209        0.0         55       31.6      189.4       31.6       34.8       21.5     1011.2       31.9       22.5        0.0        0.0        0.0       0.00      183.3       0.00       1.92        0.0
13:40             223        0.0         54       31.7      189.4       31.7       34.8       21.3     1011.3       31.9       22.5        0.0        0.0        0.0       0.00      184.4       0.00       1.92        0.0
13:42             206        0.0         54       31.8      189.4       31.8       35.0       21.4     1011.3       31.9       22.5        0.0        0.0        0.0       0.00      185.2       0.00       1.92        0.0
13:44             220        0.0         54       31.8      189.4       31.8       35.0       21.4     1011.3       31.9       22.5        0.0        0.0        0.0       0.00      186.0       0.00       1.92        0.0
13:46             207        0.0         54       31.9      189.4       31.9       35.1       21.4     1011.2       31.9       22.5        0.0        0.0        0.0       0.00      186.6       0.00       2.03        0.0
13:48             202        0.0         54       31.9      189.4       31.9       35.1       21.4     1011.2       31.9       22.5        0.0        0.0        0.0       0.00      187.2       0.00       2.03        0.0
13:50             157        0.0         54       31.9      189.4       31.9       35.3       21.5     1011.0       31.9       22.5        0.0        0.0        0.0       0.00      187.8       0.00       2.03        0.0
13:52             149        0.0         54       32.0      189.4       32.0       35.4       21.5     1011.0       32.0       22.5        0.0        0.0        0.0       0.00      188.4       0.00       2.03        0.0
13:54             192        0.0         53       32.2      189.4       32.2       35.4       21.4     1011.0       32.2       22.5        0.0        0.0        0.0       0.00      189.4       0.00       2.03        0.0
13:56             224        0.0         53       32.2      189.4       32.2       35.6       21.4     1011.1       32.2       22.5        0.0        0.0        0.0       0.00      189.9       0.00       2.03        0.0
13:58             217        0.0         53       32.2      189.4       32.2       35.6       21.4     1011.1       32.3       22.5        0.0        0.0        0.0       0.00      190.4       0.00       2.03        0.0
14:00             221        0.0         53       32.2      189.4       32.2       35.6       21.4     1011.0       32.3       22.5        0.0        0.0        0.0       0.00      190.8       0.00       2.03        0.0
14:02             257        0.0         53       32.2      189.4       32.2       35.4       21.4     1011.0       32.3       22.5        0.0        0.0        0.0       0.00      191.5       0.00       2.13        0.0
14:04             207        0.0         53       32.1      189.4       32.1       35.2       21.3     1011.0       32.3       22.5        0.0        0.0        0.0       0.00      192.5       0.00       2.13        0.0
14:06             208        0.0         53       32.1      189.4       32.1       35.2       21.3     1010.9       32.3       22.5        0.0        0.0        0.0       0.00      193.5       0.00       2.13        0.0
14:08             221        0.0         53       32.1      189.4       32.1       35.3       21.3     1010.9       32.3       22.5        0.0        0.0        0.0       0.00      194.7       0.00       2.13        0.0
14:10             224        0.0         54       32.1      189.4       32.1       35.5       21.6     1011.0       32.3       22.5        0.0        0.0        0.0       0.00      195.6       0.00       2.13        0.0
14:12             250        0.0         54       31.9      189.4       31.9       35.3       21.5     1011.0       32.3       22.5        0.0        0.0        0.0       0.00      196.2       0.00       2.13        0.0
14:14             173        0.0         54       31.9      189.4       31.9       35.1       21.4     1010.9       32.3       22.5        0.0        0.0        0.0       0.00      197.0       0.00       2.13        0.0
14:16             219        0.0         54       32.0      189.4       32.0       35.4       21.5     1010.9       32.3       22.5        0.0        0.0        0.0       0.00      198.3       0.00       2.24        0.0
14:18             219        0.0         54       32.1      189.4       32.1       35.6       21.6     1010.9       32.3       22.5        0.0        0.0        0.0       0.00      198.9       0.00       2.24        0.0
14:20             222        0.0         54       32.1      189.4       32.1       35.6       21.6     1011.0       32.3       22.5        0.0        0.0        0.0       0.00      199.9       0.00       2.24        0.0
14:22             217        0.0         54       32.1      189.4       32.1       35.6       21.6     1010.8       32.3       22.5        0.0        0.0        0.0       0.00      200.3       0.00       2.24        0.0
14:24             204        0.0         54       32.2      189.4       32.2       35.7       21.7     1010.8       32.3       22.5        0.0        0.0        0.0       0.00      201.4       0.00       2.24        0.0
14:26             203        0.0         54       32.2      189.4       32.2       35.8       21.7     1010.8       32.3       22.5        0.0        0.0        0.0       0.00      202.2       0.00       2.24        0.0
14:28             240        0.0         54       32.3      189.4       32.3       35.9       21.8     1010.8       32.3       22.5        0.0        0.0        0.0       0.00      202.9       0.00       2.24        0.0
14:30             218        0.0         53       32.3      189.4       32.3       35.7       21.5     1010.9       32.3       22.5        0.0        0.0        0.0       0.00      203.8       0.00       2.24        0.0
14:32             207        0.0         53       32.1      189.4       32.1       35.3       21.3     1010.7       32.3       22.5        0.0        0.0        0.0       0.00      204.7       0.00       2.34        0.0
14:34             225        0.0         54       32.0      189.4       32.0       35.4       21.5     1010.8       32.3       22.5        0.0        0.0        0.0       0.00      205.7       0.00       2.34        0.0
14:36             238        0.0         54       31.9      189.4       31.9       35.1       21.4     1010.7       32.3       22.5        0.0        0.0        0.0       0.00      206.6       0.00       2.34        0.0
14:38             223        0.0         54       31.8      189.4       31.8       35.0       21.4     1010.9       32.3       22.5        0.0        0.0        0.0       0.00      207.3       0.00       2.34        0.0
14:40             197        0.0         54       31.8      189.4       31.8       35.0       21.4     1010.8       32.3       22.5        0.0        0.0        0.0       0.00      208.6       0.00       2.34        0.0
14:42             205        0.0         54       31.8      189.4       31.8       34.9       21.3     1010.6       32.3       22.5        0.0        0.0        0.0       0.00      209.9       0.00       2.34        0.0
14:44             209        0.0         54       31.8      189.4       31.8       35.0       21.4     1010.7       32.3       22.5        0.0        0.0        0.0       0.00      211.2       0.00       2.34        0.0
14:46             197        0.0         54       31.8      189.4       31.8       35.0       21.4     1010.6       32.3       22.5        0.0        0.0        0.0       0.00      212.0       0.00       2.45        0.0
14:48             235        0.0         54       31.9      189.4       31.9       35.1       21.4     1010.7       32.3       22.5        0.0        0.0        0.0       0.00      212.8       0.00       2.45        0.0
14:50             211        0.0         54       31.8      189.4       31.8       35.0       21.4     1010.6       32.3       22.5        0.0        0.0        0.0       0.00      214.0       0.00       2.45        0.0
14:52             200        0.0         55       31.8      189.4       31.8       35.2       21.6     1010.5       32.3       22.5        0.0        0.0        0.0       0.00      214.8       0.00       2.45        0.0
14:54             204        0.0         54       31.8      189.4       31.8       34.9       21.3     1010.6       32.3       22.5        0.0        0.0        0.0       0.00      215.9       0.00       2.45        0.0
14:56             229        0.0         54       31.8      189.4       31.8       35.0       21.4     1010.6       32.3       22.5        0.0        0.0        0.0       0.00      216.8       0.00       2.45        0.0
14:58             232        0.0         54       31.8      189.4       31.8       35.0       21.4     1010.6       32.3       22.5        0.0        0.0        0.0       0.00      217.6       0.00       2.45        0.0
15:00             203        0.0         54       31.8      189.4       31.8       34.9       21.3     1010.6       32.3       22.5        0.0        0.0        0.0       0.00      218.5       0.00       2.45        0.0
15:02             210        0.0         54       31.8      189.4       31.8       34.9       21.3     1010.5       32.3       22.5        0.0        0.0        0.0       0.00      219.1       0.00       2.55        0.0
15:04             195        0.0         54       31.8      189.4       31.8       35.0       21.4     1010.5       32.3       22.5        0.0        0.0        0.0       0.00      219.7       0.00       2.55        0.0
15:06             223        0.0         54       31.9      189.4       31.9       35.1       21.4     1010.5       32.3       22.5        0.0        0.0        0.0       0.00      220.4       0.00       2.55        0.0
15:08             202        0.0         54       31.9      189.4       31.9       35.3       21.5     1010.6       32.3       22.5        0.0        0.0        0.0       0.00      221.9       0.00       2.55        0.0
15:10             215        0.0         54       31.9      189.4       31.9       35.3       21.5     1010.6       32.3       22.5        0.0        0.0        0.0       0.00      223.2       0.00       2.55        0.0
15:12             212        0.0         54       31.9      189.4       31.9       35.3       21.5     1010.6       32.3       22.5        0.0        0.0        0.0       0.00      223.7       0.00       2.55        0.0
15:14             224        0.0         54       32.0      189.4       32.0       35.4       21.5     1010.6       32.3       22.5        0.0        0.0        0.0       0.00      224.6       0.00       2.55        0.0
15:16             199        0.0         54       32.1      189.4       32.1       35.5       21.6     1010.5       32.3       22.5        0.0        0.0        0.0       0.00      225.4       0.00       2.65        0.0
15:18             229        0.0         54       32.1      189.4       32.1       35.5       21.6     1010.6       32.3       22.5        0.0        0.0        0.0       0.00      226.2       0.00       2.65        0.0
15:20             212        0.0         54       32.1      189.4       32.1       35.5       21.6     1010.6       32.3       22.5        0.0        0.0        0.0       0.00      227.2       0.00       2.65        0.0
15:22             224        0.0         53       32.1      189.4       32.1       35.2       21.3     1010.5       32.3       22.5        0.0        0.0        0.0       0.00      228.1       0.00       2.65        0.0
15:24             219        0.0         54       31.9      189.4       31.9       35.1       21.4     1010.5       32.3       22.5        0.0        0.0        0.0       0.00      229.0       0.00       2.65        0.0
15:26             240        0.0         54       31.8      189.4       31.8       34.9       21.3     1010.6       32.3       22.5        0.0        0.0        0.0       0.00      229.7       0.00       2.65        0.0
15:28             217        0.0         55       31.7      189.4       31.7       35.0       21.5     1010.5       32.3       22.5        0.0        0.0        0.0       0.00      230.9       0.00       2.65        0.0
15:30             234        0.0         55       31.7      189.4       31.7       35.0       21.5     1010.6       32.3       22.5        0.0        0.0        0.0       0.00      231.8       0.00       2.65        0.0
15:32             237        0.0         55       31.7      189.4       31.7       35.0       21.5     1010.6       32.3       22.5        0.0        0.0        0.0       0.00      232.5       0.00       2.75        0.0
15:34             272        0.0         55       31.7      189.4       31.7       35.0       21.5     1010.6       32.3       22.5        0.0        0.0        0.0       0.00      233.6       0.00       2.75        0.0
15:36             248        0.0         55       31.6      189.4       31.6       34.7       21.4     1010.6       32.3       22.5        0.0        0.0        0.0       0.00      234.5       0.00       2.75        0.0
15:38             224        0.0         55       31.6      189.4       31.6       34.7       21.4     1010.6       32.3       22.5        0.0        0.0        0.0       0.00      235.8       0.00       2.75        0.0
15:40             229        0.0         55       31.5      189.4       31.5       34.6       21.4     1010.6       32.3       22.5        0.0        0.0        0.0       0.00      236.7       0.00       2.75        0.0
15:42             198        0.0         55       31.5      189.4       31.5       34.6       21.4     1010.6       32.3       22.5        0.0        0.0        0.0       0.00      237.6       0.00       2.75        0.0
15:44             200        0.0         54       31.6      189.4       31.6       34.5       21.1     1010.6       32.3       22.5        0.0        0.0        0.0       0.00      239.1       0.00       2.75        0.0
15:46             182        0.0         54       31.6      189.4       31.6       34.6       21.2     1010.6       32.3       22.5        0.0        0.0        0.0       0.00      240.2       0.00       2.85        0.0
15:48             245        0.0         54       31.6      189.4       31.6       34.6       21.2     1010.6       32.3       22.5        0.0        0.0        0.0       0.00      240.9       0.00       2.85        0.0
15:50             233        0.0         54       31.6      189.4       31.6       34.6       21.2     1010.6       32.3       22.5        0.0        0.0        0.0       0.00      241.7       0.00       2.85        0.0
15:52             218        0.0         55       31.6      189.4       31.6       34.8       21.5     1010.6       32.3       22.5        0.0        0.0        0.0       0.00      242.5       0.00       2.85        0.0
15:54             215        0.0         54       31.6      189.4       31.6       34.6       21.2     1010.6       32.3       22.5        0.0        0.0        0.0       0.00      243.6       0.00       2.85        0.0
15:56             207        0.0         54       31.6      189.4       31.6       34.6       21.2     1010.6       32.3       22.5        0.0        0.0        0.0       0.00      244.7       0.00       2.85        0.0
15:58             252        0.0         54       31.6      189.4       31.6       34.6       21.2     1010.6       32.3       22.5        0.0        0.0        0.0       0.00      245.9       0.00       2.85        0.0
16:00             213        0.0         54       31.4      189.4       31.4       34.3       21.0     1010.6       32.3       22.5        0.0        0.0        0.0       0.00      247.1       0.00       2.85        0.0
16:02             211        0.0         54       31.4      189.4       31.4       34.2       21.0     1010.5       32.3       22.5        0.0        0.0        0.0       0.00      248.4       0.00       2.95        0.0
16:04             209        0.0         54       31.3      189.4       31.3       34.1       20.9     1010.5       32.3       22.5        0.0        0.0        0.0       0.00      249.2       0.00       2.95        0.0
16:06             234        0.0         55       31.3      189.4       31.3       34.3       21.2     1010.6       32.3       22.5        0.0        0.0        0.0       0.00      250.1       0.00       2.95        0.0
16:08             225        0.0         54       31.3      189.4       31.3       34.1       20.9     1010.6       32.3       22.5        0.0        0.0        0.0       0.00      250.7       0.00       2.95        0.0
16:10             215        0.0         55       31.3      189.4       31.3       34.3       21.2     1010.6       32.3       22.5        0.0        0.0        0.0       0.00      251.7       0.00       2.95        0.0
16:12             206        0.0         55       31.4      189.4       31.4       34.4       21.3     1010.6       32.3       22.5        0.0        0.0        0.0       0.00      252.6       0.00       2.95        0.0
16:14             234        0.0         54       31.4      189.4       31.4       34.3       21.0     1010.6       32.3       22.5        0.0        0.0        0.0       0.00      253.6       0.00       2.95        0.0
16:16             200        0.0         55       31.4      189.4       31.4       34.5       21.3     1010.6       32.3       22.5        0.0        0.0        0.0       0.00      254.6       0.00       3.05        0.0
16:18             201        0.0         54       31.4      189.4       31.4       34.3       21.0     1010.6       32.3       22.5        0.0        0.0        0.0       0.00      255.9       0.00       3.05        0.0
16:20             265        0.0         54       31.4      189.4       31.4       34.3       21.0     1010.6       32.3       22.5        0.0        0.0        0.0       0.00      256.9       0.00       3.05        0.0
16:22             227        0.0         54       31.3      189.4       31.3       34.1       20.9     1010.5       32.3       22.5        0.0        0.0        0.0       0.00      258.0       0.00       3.05        0.0
16:24             201        0.0         55       31.3      189.4       31.3       34.2       21.2     1010.6       32.3       22.5        0.0        0.0        0.0       0.00      259.2       0.00       3.05        0.0
16:26             218        0.0         55       31.2      189.4       31.2       34.1       21.1     1010.5       32.3       22.5        0.0        0.0        0.0       0.00      260.2       0.00       3.05        0.0
16:28             225        0.0         55       31.2      189.4       31.2       34.1       21.1     1010.6       32.3       22.5        0.0        0.0        0.0       0.00      260.9       0.00       3.05        0.0
16:30             276        0.0         55       31.2      189.4       31.2       34.0       21.1     1010.6       32.3       22.5        0.0        0.0        0.0       0.00      261.8       0.00       3.05        0.0
16:32             200        0.0         55       31.1      189.4       31.1       33.9       21.0     1010.5       32.3       22.5        0.0        0.0        0.0       0.00      262.6       0.00       3.14        0.0
16:34             196        0.0         55       31.2      189.4       31.2       34.1       21.1     1010.5       32.3       22.5        0.0        0.0        0.0       0.00      263.5       0.00       3.14        0.0
16:36             212        0.0         54       31.3      189.4       31.3       34.0       20.9     1010.5       32.3       22.5        0.0        0.0        0.0       0.00      264.8       0.00       3.14        0.0
16:38             229        0.0         54       31.3      189.4       31.3       34.0       20.9     1010.5       32.3       22.5        0.0        0.0        0.0       0.00      265.6       0.00       3.14        0.0
16:40             248        0.0         55       31.2      189.4       31.2       34.1       21.1     1010.6       32.3       22.5        0.0        0.0        0.0       0.00      266.2       0.00       3.14        0.0
16:42             257        0.0         55       31.1      189.4       31.1       33.9       21.0     1010.6       32.3       22.5        0.0        0.0        0.0       0.00      267.0       0.00       3.14        0.0
16:44             233        0.0         55       31.0      189.4       31.0       33.7       20.9     1010.6       32.3       22.5        0.0        0.0        0.0       0.00      268.0       0.00       3.14        0.0
16:46             223        0.0         56       30.9      189.4       30.9       33.7       21.1     1010.6       32.3       22.5        0.0        0.0        0.0       0.00      268.8       0.00       3.24        0.0
16:48             184        0.0         56       30.8      189.4       30.8       33.6       21.0     1010.5       32.3       22.5        0.0        0.0        0.0       0.00      269.5       0.00       3.24        0.0
16:50             194        0.0         56       30.9      189.4       30.9       33.7       21.1     1010.5       32.3       22.5        0.0        0.0        0.0       0.00      270.3       0.00       3.24        0.0
16:52             227        0.0         56       30.9      189.4       30.9       33.7       21.1     1010.5       32.3       22.5        0.0        0.0        0.0       0.00      271.5       0.00       3.24        0.0
16:54             221        0.0         55       30.9      189.4       30.9       33.5       20.8     1010.5       32.3       22.5        0.0        0.0        0.0       0.00      272.2       0.00       3.24        0.0
16:56             247        0.0         56       30.9      189.4       30.9       33.7       21.1     1010.5       32.3       22.5        0.0        0.0        0.0       0.00      273.2       0.00       3.24        0.0
16:58             236        0.0         56       30.8      189.4       30.8       33.6       21.0     1010.5       32.3       22.5        0.0        0.0        0.0       0.00      274.4       0.00       3.24        0.0
17:00             237        0.0         55       30.8      189.4       30.8       33.4       20.8     1010.6       32.3       22.5        0.0        0.0        0.0       0.00      275.2       0.00       3.24        0.0
17:02             220        0.0         56       30.8      189.4       30.8       33.5       21.0     1010.5       32.3       22.5        0.0        0.0        0.0       0.00      275.8       0.00       3.33        0.0
17:04             256        0.0         56       30.7      189.4       30.7       33.4       20.9     1010.5       32.3       22.5        0.0        0.0        0.0       0.00      277.0       0.00       3.33        0.0
17:06             248        0.0         56       30.7      189.4       30.7       33.4       20.9     1010.5       32.3       22.5        0.0        0.0        0.0       0.00      277.7       0.00       3.33        0.0
17:08             237        0.0         56       30.7      189.4       30.7       33.4       20.9     1010.4       32.3       22.5        0.0        0.0        0.0       0.00      278.3       0.00       3.33        0.0
17:10             221        0.0         56       30.8      189.4       30.8       33.5       21.0     1010.4       32.3       22.5        0.0        0.0        0.0       0.00      279.3       0.00       3.33        0.0
17:12             225        0.0         56       30.8      189.4       30.8       33.5       21.0     1010.3       32.3       22.5        0.0        0.0        0.0       0.00      280.2       0.00       3.33        0.0
17:14             229        0.0         56       30.8      189.4       30.8       33.6       21.0     1010.3       32.3       22.5        0.0        0.0        0.0       0.00      280.6       0.00       3.33        0.0
17:16             248        0.0         55       30.9      189.4       30.9       33.5       20.8     1010.3       32.3       22.5        0.0        0.0        0.0       0.00      281.2       0.00       3.42        0.0
17:18             212        0.0         56       30.9      189.4       30.9       33.7       21.1     1010.4       32.3       22.5        0.0        0.0        0.0       0.00      281.8       0.00       3.42        0.0
17:20             257        0.0         55       30.9      189.4       30.9       33.6       20.9     1010.5       32.3       22.5        0.0        0.0        0.0       0.00      282.7       0.00       3.42        0.0
17:22             227        0.0         55       30.9      189.4       30.9       33.5       20.8     1010.4       32.3       22.5        0.0        0.0        0.0       0.00      283.6       0.00       3.42        0.0
17:24             229        0.0         55       30.7      189.4       30.7       33.2       20.7     1010.4       32.3       22.5        0.0        0.0        0.0       0.00      284.3       0.00       3.42        0.0
17:26             219        0.0         56       30.6      189.4       30.6       33.2       20.8     1010.3       32.3       22.5        0.0        0.0        0.0       0.00      284.9       0.00       3.42        0.0
17:28             213        0.0         56       30.5      189.4       30.5       33.0       20.7     1010.3       32.3       22.5        0.0        0.0        0.0       0.00      285.8       0.00       3.42        0.0
17:30             214        0.0         56       30.4      189.4       30.4       32.8       20.6     1010.4       32.3       22.5        0.0        0.0        0.0       0.00      286.8       0.00       3.42        0.0
17:32             215        0.0         56       30.3      189.4       30.3       32.6       20.5     1010.4       32.3       22.5        0.0        0.0        0.0       0.00      288.0       0.00       3.51        0.0
17:34             242        0.0         57       30.2      189.4       30.2       32.5       20.7     1010.3       32.3       22.5        0.0        0.0        0.0       0.00      288.7       0.00       3.51        0.0
17:36             209        0.0         57       30.1      189.4       30.1       32.4       20.7     1010.3       32.3       22.5        0.0        0.0        0.0       0.00      289.3       0.00       3.51        0.0
17:38             252        0.0         57       30.1      189.4       30.1       32.4       20.6     1010.3       32.3       22.5        0.0        0.0        0.0       0.00      289.9       0.00       3.51        0.0
17:40             257        0.0         57       30.0      189.4       30.0       32.3       20.6     1010.2       32.3       22.5        0.0        0.0        0.0       0.00      290.7       0.00       3.51        0.0
17:42             236        0.0         57       29.9      189.4       29.9       32.1       20.5     1010.3       32.3       22.5        0.0        0.0        0.0       0.00      291.7       0.00       3.51        0.0
17:44             232        0.0         58       29.8      189.4       29.8       32.1       20.7     1010.4       32.3       22.5        0.0        0.0        0.0       0.00      292.3       0.00       3.51        0.0
17:46             231        0.0         58       29.8      189.4       29.8       32.1       20.7     1010.3       32.3       22.5        0.0        0.0        0.0       0.00      293.1       0.00       3.59        0.0
17:48             225        0.0         58       29.8      189.4       29.8       32.1       20.7     1010.3       32.3       22.5        0.0        0.0        0.0       0.00      294.0       0.00       3.59        0.0
17:50             217        0.0         58       29.8      189.4       29.8       32.1       20.7     1010.2       32.3       22.5        0.0        0.0        0.0       0.00      294.7       0.00       3.59        0.0
17:52             234        0.0         58       29.8      189.4       29.8       32.1       20.7     1010.3       32.3       22.5        0.0        0.0        0.0       0.00      295.5       0.00       3.59        0.0
17:54             221        0.0         58       29.8      189.4       29.8       32.0       20.6     1010.3       32.3       22.5        0.0        0.0        0.0       0.00      296.3       0.00       3.59        0.0
17:56             220        0.0         58       29.8      189.4       29.8       32.0       20.6     1010.4       32.3       22.5        0.0        0.0        0.0       0.00      297.1       0.00       3.59        0.0
17:58             238        0.0         58       29.7      189.4       29.7       31.9       20.6     1010.3       32.3       22.5        0.0        0.0        0.0       0.00      297.8       0.00       3.59        0.0
18:00             249        0.0         58       29.7      189.4       29.7       31.8       20.5     1010.3       32.3       22.5        0.0        0.0        0.0       0.00      298.5       0.00       3.59        0.0
18:02             237        0.0         58       29.6      189.4       29.6       31.8       20.5     1010.4       32.3       22.5        0.0        0.0        0.0       0.00      299.2       0.00       3.67        0.0
18:04             227        0.0         58       29.5      189.4       29.5       31.6       20.4     1010.4       32.3       22.5        0.0        0.0        0.0       0.00      300.0       0.00       3.67        0.0
18:06             234        0.0         59       29.4      189.4       29.4       31.5       20.5     1010.5       32.3       22.5        0.0        0.0        0.0       0.00      300.6       0.00       3.67        0.0
18:08             229        0.0         59       29.3      189.4       29.3       31.4       20.5     1010.5       32.3       22.5        0.0        0.0        0.0       0.00      301.1       0.00       3.67        0.0
18:10             223        0.0         59       29.3      189.4       29.3       31.4       20.5     1010.5       32.3       22.5        0.0        0.0        0.0       0.00      301.9       0.00       3.67        0.0
18:12             223        0.0         59       29.3      189.4       29.3       31.4       20.5     1010.3       32.3       22.5        0.0        0.0        0.0       0.00      302.5       0.00       3.67        0.0
18:14             244        0.0         59       29.3      189.4       29.3       31.4       20.5     1010.4       32.3       22.5        0.0        0.0        0.0       0.00      303.4       0.00       3.67        0.0
18:16             232        0.0         59       29.2      189.4       29.2       31.3       20.4     1010.5       32.3       22.5        0.0        0.0        0.0       0.00      304.0       0.00       3.75        0.0
18:18             229        0.0         59       29.2      189.4       29.2       31.2       20.3     1010.5       32.3       22.5        0.0        0.0        0.0       0.00      304.8       0.00       3.75        0.0
18:20             227        0.0         60       29.0      189.4       29.0       31.0       20.5     1010.4       32.3       22.5        0.0        0.0        0.0       0.00      305.4       0.00       3.75        0.0
18:22             238        0.0         60       28.9      189.4       28.9       30.9       20.4     1010.5       32.3       22.5        0.0        0.0        0.0       0.00      305.9       0.00       3.75        0.0
18:24             232        0.0         60       28.9      189.4       28.9       30.8       20.4     1010.5       32.3       22.5        0.0        0.0        0.0       0.00      306.6       0.00       3.75        0.0
18:26             226        0.0         61       28.8      189.4       28.8       30.9       20.6     1010.5       32.3       22.5        0.0        0.0        0.0       0.00      307.1       0.00       3.75        0.0
18:28             228        0.0         60       28.8      189.4       28.8       30.7       20.2     1010.4       32.3       22.5        0.0        0.0        0.0       0.00      307.9       0.00       3.75        0.0
18:30             234        0.0         61       28.7      189.4       28.7       30.7       20.5     1010.4       32.3       22.5        0.0        0.0        0.0       0.00      308.5       0.00       3.75        0.0
18:32             234        0.0         61       28.6      189.4       28.6       30.5       20.4     1010.5       32.3       22.5        0.0        0.0        0.0       0.00      309.1       0.00       3.82        0.0
18:34             223        0.0         61       28.6      189.4       28.6       30.5       20.4     1010.5       32.3       22.5        0.0        0.0        0.0       0.00      309.6       0.00       3.82        0.0
18:36             232        0.0         61       28.6      189.4       28.6       30.4       20.3     1010.5       32.3       22.5        0.0        0.0        0.0       0.00      310.3       0.00       3.82        0.0
18:38             258        0.0         62       28.5      189.4       28.5       30.5       20.5     1010.5       32.3       22.5        0.0        0.0        0.0       0.00      310.8       0.00       3.82        0.0
18:40             253        0.0         62       28.4      189.4       28.4       30.3       20.4     1010.5       32.3       22.5        0.0        0.0        0.0       0.00      311.4       0.00       3.82        0.0
18:42             218        0.0         62       28.3      189.4       28.3       30.1       20.3     1010.5       32.3       22.5        0.0        0.0        0.0       0.00      311.9       0.00       3.82        0.0
18:44             216        0.0         62       28.2      189.4       28.2       30.0       20.3     1010.6       32.3       22.5        0.0        0.0        0.0       0.00      312.4       0.00       3.82        0.0
18:46             225        0.0         63       28.2      189.4       28.2       30.1       20.5     1010.5       32.3       22.5        0.0        0.0        0.0       0.00      313.0       0.00       3.88        0.0
18:48             225        0.0         63       28.1      189.4       28.1       30.0       20.4     1010.6       32.3       22.5        0.0        0.0        0.0       0.00      313.4       0.00       3.88        0.0
18:50             221        0.0         63       28.1      189.4       28.1       29.9       20.4     1010.6       32.3       22.5        0.0        0.0        0.0       0.00      313.9       0.00       3.88        0.0
18:52             225        0.0         63       28.0      189.4       28.0       29.8       20.3     1010.6       32.3       22.5        0.0        0.0        0.0       0.00      314.3       0.00       3.88        0.0
18:54             225        0.0         63       27.9      189.4       27.9       29.7       20.3     1010.6       32.3       22.5        0.0        0.0        0.0       0.00      314.8       0.00       3.88        0.0
18:56             221        0.0         63       27.9      189.4       27.9       29.6       20.2     1010.6       32.3       22.5        0.0        0.0        0.0       0.00      315.3       0.00       3.88        0.0
18:58             218        0.0         63       27.8      189.4       27.8       29.5       20.1     1010.6       32.3       22.5        0.0        0.0        0.0       0.00      315.8       0.00       3.88        0.0
19:00             225        0.0         63       27.7      189.4       27.7       29.4       20.0     1010.6       32.3       22.5        0.0        0.0        0.0       0.00      316.3       0.00       3.88        0.0
19:02             234        0.0         63       27.7      189.4       27.7       29.3       20.0     1010.5       32.3       22.5        0.0        0.0        0.0       0.00      316.8       0.00       3.94        0.0
19:04             228        0.0         63       27.6      189.4       27.6       29.2       19.9     1010.6       32.3       22.5        0.0        0.0        0.0       0.00      317.3       0.00       3.94        0.0
19:06             216        0.0         63       27.5      189.4       27.5       29.0       19.8     1010.7       32.3       22.5        0.0        0.0        0.0       0.00      317.8       0.00       3.94        0.0
19:08             215        0.0         63       27.4      189.4       27.4       28.9       19.8     1010.7       32.3       22.5        0.0        0.0        0.0       0.00      318.3       0.00       3.94        0.0
19:10             207        0.0         64       27.4      189.4       27.4       28.9       20.0     1010.7       32.3       22.5        0.0        0.0        0.0       0.00      318.8       0.00       3.94        0.0
19:12             242        0.0         64       27.3      189.4       27.3       28.9       19.9     1010.7       32.3       22.5        0.0        0.0        0.0       0.00      319.3       0.00       3.94        0.0
19:14             219        0.0         64       27.3      189.4       27.3       28.8       19.9     1010.7       32.3       22.5        0.0        0.0        0.0       0.00      320.0       0.00       3.94        0.0
19:16             226        0.0         64       27.2      189.4       27.2       28.6       19.8     1010.8       32.3       22.5        0.0        0.0        0.0       0.00      320.7       0.00       3.99        0.0
19:18             225        0.0         64       27.1      189.4       27.1       28.5       19.7     1010.7       32.3       22.5        0.0        0.0        0.0       0.00      321.1       0.00       3.99        0.0
19:20             222        0.0         65       27.0      189.4       27.0       28.5       19.9     1010.8       32.3       22.5        0.0        0.0        0.0       0.00      321.5       0.00       3.99        0.0
19:22             217        0.0         65       26.9      189.4       26.9       28.3       19.8     1010.8       32.3       22.5        0.0        0.0        0.0       0.00      322.0       0.00       3.99        0.0
19:24             234        0.0         65       26.8      189.4       26.8       28.2       19.7     1010.8       32.3       22.5        0.0        0.0        0.0       0.00      322.7       0.00       3.99        0.0
19:26             240        0.0         65       26.7      189.4       26.7       28.1       19.6     1010.8       32.3       22.5        0.0        0.0        0.0       0.00      323.5       0.00       3.99        0.0
19:28             209        0.0         65       26.7      189.4       26.7       28.0       19.5     1010.9       32.3       22.5        0.0        0.0        0.0       0.00      324.0       0.00       3.99        0.0
19:30             232        0.0         66       26.6      189.4       26.6       27.9       19.7     1010.9       32.3       22.5        0.0        0.0        0.0       0.00      324.7       0.00       3.99        0.0
19:32             200        0.0         66       26.5      189.4       26.5       27.9       19.6     1010.8       32.3       22.5        0.0        0.0        0.0       0.00      325.2       0.00       4.04        0.0
19:34             221        0.0         66       26.4      189.4       26.4       27.8       19.6     1011.0       32.3       22.5        0.0        0.0        0.0       0.00      325.7       0.00       4.04        0.0
19:36             201        0.0         66       26.3      189.4       26.3       27.7       19.5     1011.0       32.3       22.5        0.0        0.0        0.0       0.00      326.2       0.00       4.04        0.0
19:38             215        0.0         66       26.3      189.4       26.3       27.7       19.4     1011.0       32.3       22.5        0.0        0.0        0.0       0.00      326.7       0.00       4.04        0.0
19:40             223        0.0         66       26.3      189.4       26.3       27.7       19.4     1011.0       32.3       22.5        0.0        0.0        0.0       0.00      327.1       0.00       4.04        0.0
19:42             219        0.0         66       26.2      189.4       26.2       27.5       19.3     1011.0       32.3       22.5        0.0        0.0        0.0       0.00      327.6       0.00       4.04        0.0
19:44             211        0.0         67       26.1      189.4       26.1       27.6       19.5     1011.0       32.3       22.5        0.0        0.0        0.0       0.00      328.0       0.00       4.04        0.0
19:46             234        0.0         67       26.1      189.4       26.1       27.5       19.5     1011.0       32.3       22.5        0.0        0.0        0.0       0.00      328.5       0.00       4.09        0.0
19:48             209        0.0         67       26.0      189.4       26.0       27.4       19.4     1011.0       32.3       22.5        0.0        0.0        0.0       0.00      329.2       0.00       4.09        0.0
19:50             216        0.0         67       25.9      189.4       25.9       27.3       19.3     1011.2       32.3       22.5        0.0        0.0        0.0       0.00      329.9       0.00       4.09        0.0
19:52             216        0.0         67       25.8      189.4       25.8       27.3       19.2     1011.1       32.3       22.5        0.0        0.0        0.0       0.00      330.4       0.00       4.09        0.0
19:54             221        0.0         67       25.8      189.4       25.8       27.2       19.2     1011.1       32.3       22.5        0.0        0.0        0.0       0.00      330.8       0.00       4.09        0.0
19:56             238        0.0         67       25.7      189.4       25.7       27.2       19.1     1011.2       32.3       22.5        0.0        0.0        0.0       0.00      331.3       0.00       4.09        0.0
19:58             239        0.0         67       25.7      189.4       25.7       27.1       19.1     1011.4       32.3       22.5        0.0        0.0        0.0       0.00      332.0       0.00       4.09        0.0
20:00             225        0.0         68       25.6      189.4       25.6       27.1       19.3     1011.3       32.3       22.5        0.0        0.0        0.0       0.00      332.7       0.00       4.09        0.0
20:02             223        0.0         68       25.6      189.4       25.6       27.1       19.2     1011.5       32.3       22.5        0.0        0.0        0.0       0.00      333.5       0.00       4.12        0.0
20:04             223        0.0         68       25.5      189.4       25.5       27.0       19.2     1011.4       32.3       22.5        0.0        0.0        0.0       0.00      334.3       0.00       4.12        0.0
20:06             222        0.0         68       25.4      189.4       25.4       27.0       19.1     1011.4       32.3       22.5        0.0        0.0        0.0       0.00      335.2       0.00       4.12        0.0
20:08             221        0.0         68       25.4      189.4       25.4       26.9       19.1     1011.5       32.3       22.5        0.0        0.0        0.0       0.00      336.1       0.00       4.12        0.0
20:10             222        0.0         68       25.3      189.4       25.3       26.8       19.0     1011.5       32.3       22.5        0.0        0.0        0.0       0.00      337.0       0.00       4.12        0.0
20:12             221        0.0         68       25.3      189.4       25.3       26.8       19.0     1011.5       32.3       22.5        0.0        0.0        0.0       0.00      338.0       0.00       4.12        0.0
20:14             221        0.0         68       25.2      189.4       25.2       26.7       18.9     1011.6       32.3       22.5        0.0        0.0        0.0       0.00      338.9       0.00       4.12        0.0
20:16             221        0.0         68       25.2      189.4       25.2       26.7       18.8     1011.6       32.3       22.5        0.0        0.0        0.0       0.00      339.7       0.00       4.16        0.0
20:18             218        0.0         68       25.1      189.4       25.1       26.6       18.8     1011.7       32.3       22.5        0.0        0.0        0.0       0.00      340.8       0.00       4.16        0.0
20:20             218        0.0         68       25.1      189.4       25.1       26.6       18.7     1011.7       32.3       22.5        0.0        0.0        0.0       0.00      341.7       0.00       4.16        0.0
20:22             218        0.0         69       25.0      189.4       25.0       26.6       18.9     1011.8       32.3       22.5        0.0        0.0        0.0       0.00      342.4       0.00       4.16        0.0
20:24             218        0.0         69       24.9      189.4       24.9       26.5       18.9     1011.7       32.3       22.5        0.0        0.0        0.0       0.00      343.2       0.00       4.16        0.0
20:26             218        0.0         69       24.9      189.4       24.9       26.5       18.8     1011.8       32.3       22.5        0.0        0.0        0.0       0.00      343.9       0.00       4.16        0.0
20:28             218        0.0         69       24.9      189.4       24.9       26.5       18.8     1011.8       32.3       22.5        0.0        0.0        0.0       0.00      344.7       0.00       4.16        0.0
20:30             217        0.0         69       24.8      189.4       24.8       26.4       18.8     1011.8       32.3       22.5        0.0        0.0        0.0       0.00      345.7       0.00       4.16        0.0
20:32             217        0.0         69       24.8      189.4       24.8       26.4       18.7     1011.7       32.3       22.5        0.0        0.0        0.0       0.00      346.7       0.00       4.19        0.0
20:34             217        0.0         69       24.7      189.4       24.7       26.2       18.6     1011.7       32.3       22.5        0.0        0.0        0.0       0.00      347.8       0.00       4.19        0.0
20:36             217        0.0         69       24.6      189.4       24.6       26.2       18.6     1011.8       32.3       22.5        0.0        0.0        0.0       0.00      348.7       0.00       4.19        0.0
20:38             216        0.0         70       24.5      189.4       24.5       26.1       18.7     1011.7       32.3       22.5        0.0        0.0        0.0       0.00      349.8       0.00       4.19        0.0
20:40             216        0.0         70       24.5      189.4       24.5       26.1       18.7     1011.9       32.3       22.5        0.0        0.0        0.0       0.00      350.6       0.00       4.19        0.0
20:42             216        0.0         70       24.4      189.4       24.4       26.1       18.6     1012.0       32.3       22.5        0.0        0.0        0.0       0.00      351.4       0.00       4.19        0.0
20:44             216        0.0         69       24.4      189.4       24.4       26.0       18.3     1012.0       32.3       22.5        0.0        0.0        0.0       0.00      352.4       0.00       4.19        0.0
20:46             216        0.0         70       24.4      189.4       24.4       26.0       18.6     1012.0       32.3       22.5        0.0        0.0        0.0       0.00      353.3       0.00       4.21        0.0
20:48             216        0.0         70       24.3      189.4       24.3       26.0       18.5     1012.0       32.3       22.5        0.0        0.0        0.0       0.00      354.1       0.00       4.21        0.0
20:50             216        0.0         70       24.3      189.4       24.3       25.9       18.5     1012.0       32.3       22.5        0.0        0.0        0.0       0.00      354.7       0.00       4.21        0.0
20:52             216        0.0         70       24.3      189.4       24.3       25.9       18.5     1012.1       32.3       22.5        0.0        0.0        0.0       0.00      355.2       0.00       4.21        0.0
20:54             216        0.0         70       24.2      189.4       24.2       25.9       18.4     1012.1       32.3       22.5        0.0        0.0        0.0       0.00      355.8       0.00       4.21        0.0
20:56             216        0.0         70       24.2      189.4       24.2       25.8       18.4     1012.1       32.3       22.5        0.0        0.0        0.0       0.00      356.5       0.00       4.21        0.0
20:58             216        0.0         70       24.1      189.4       24.1       25.8       18.3     1012.1       32.3       22.5        0.0        0.0        0.0       0.00      357.0       0.00       4.21        0.0
21:00             216        0.0         70       24.1      189.4       24.1       25.7       18.2     1012.1       32.3       22.5        0.0        0.0        0.0       0.00      357.6       0.00       4.21        0.0
21:02             216        0.0         70       24.1      189.4       24.1       25.7       18.2     1012.1       32.3       22.5        0.0        0.0        0.0       0.00      358.3       0.00       4.23        0.0
21:04             216        0.0         70       24.0      189.4       24.0       25.6       18.2     1012.1       32.3       22.5        0.0        0.0        0.0       0.00      359.1       0.00       4.23        0.0
21:06             216        0.0         70       23.9      189.4       23.9       25.6       18.1     1012.1       32.3       22.5        0.0        0.0        0.0       0.00      359.8       0.00       4.23        0.0
21:08             215        0.0         70       23.9      189.4       23.9       25.6       18.1     1012.2       32.3       22.5        0.0        0.0        0.0       0.00      360.9       0.00       4.23        0.0
21:10             215        0.0         70       23.9      189.4       23.9       25.5       18.1     1012.2       32.3       22.5        0.0        0.0        0.0       0.00      361.6       0.00       4.23        0.0
21:12             215        0.0         70       23.8      189.4       23.8       25.5       18.0     1012.3       32.3       22.5        0.0        0.0        0.0       0.00      362.4       0.00       4.23        0.0
21:14             215        0.0         70       23.8      189.4       23.8       25.4       18.0     1012.2       32.3       22.5        0.0        0.0        0.0       0.00      363.0       0.00       4.23        0.0
21:16             215        0.0         70       23.7      189.4       23.7       25.4       17.9     1012.4       32.3       22.5        0.0        0.0        0.0       0.00      363.6       0.00       4.25        0.0
21:18             215        0.0         71       23.7      189.4       23.7       25.4       18.1     1012.5       32.3       22.5        0.0        0.0        0.0       0.00      364.2       0.00       4.25        0.0
21:20             215        0.0         71       23.6      189.4       23.6       25.3       18.0     1012.5       32.3       22.5        0.0        0.0        0.0       0.00      364.7       0.00       4.25        0.0
21:22             215        0.0         71       23.6      189.4       23.6       25.3       18.0     1012.5       32.3       22.5        0.0        0.0        0.0       0.00      365.4       0.00       4.25        0.0
21:24             215        0.0         71       23.6      189.4       23.6       25.3       18.0     1012.5       32.3       22.5        0.0        0.0        0.0       0.00      366.1       0.00       4.25        0.0
21:26             215        0.0         71       23.5      189.4       23.5       25.2       17.9     1012.5       32.3       22.5        0.0        0.0        0.0       0.00      366.8       0.00       4.25        0.0
21:28             215        0.0         71       23.4      189.4       23.4       25.2       17.9     1012.5       32.3       22.5        0.0        0.0        0.0       0.00      367.5       0.00       4.25        0.0
21:30             215        0.0         71       23.4      189.4       23.4       25.1       17.8     1012.6       32.3       22.5        0.0        0.0        0.0       0.00      368.2       0.00       4.25        0.0
21:32             215        0.0         71       23.3      189.4       23.3       25.0       17.8     1012.5       32.3       22.5        0.0        0.0        0.0       0.00      369.0       0.00       4.26        0.0
21:34             215        0.0         71       23.3      189.4       23.3       25.0       17.7     1012.6       32.3       22.5        0.0        0.0        0.0       0.00      369.7       0.00       4.26        0.0
21:36             215        0.0         71       23.2      189.4       23.2       24.9       17.7     1012.5       32.3       22.5        0.0        0.0        0.0       0.00      370.6       0.00       4.26        0.0
21:38             215        0.0         71       23.2      189.4       23.2       24.9       17.6     1012.5       32.3       22.5        0.0        0.0        0.0       0.00      371.5       0.00       4.26        0.0
21:40             215        0.0         71       23.1      189.4       23.1       24.8       17.6     1012.6       32.3       22.5        0.0        0.0        0.0       0.00      372.3       0.00       4.26        0.0
21:42             215        0.0         72       23.1      189.4       23.1       24.8       17.7     1012.7       32.3       22.5        0.0        0.0        0.0       0.00      373.2       0.00       4.26        0.0
21:44             215        0.0         72       23.1      189.4       23.1       24.8       17.7     1012.6       32.3       22.5        0.0        0.0        0.0       0.00      374.1       0.00       4.26        0.0
21:46             215        0.0         72       23.0      189.4       23.0       24.8       17.7     1012.6       32.3       22.5        0.0        0.0        0.0       0.00      375.0       0.00       4.28        0.0
21:48             215        0.0         72       22.9      189.4       22.9       24.7       17.6     1012.7       32.3       22.5        0.0        0.0        0.0       0.00      375.8       0.00       4.28        0.0
21:50             215        0.0         72       22.9      189.4       22.9       24.7       17.6     1012.7       32.3       22.5        0.0        0.0        0.0       0.00      376.4       0.00       4.28        0.0
21:52             215        0.0         72       22.8      189.4       22.8       24.6       17.5     1012.7       32.3       22.5        0.0        0.0        0.0       0.00      377.2       0.00       4.28        0.0
21:54             215        0.0         72       22.8      189.4       22.8       24.6       17.5     1012.8       32.3       22.5        0.0        0.0        0.0       0.00      377.8       0.00       4.28        0.0
21:56             215        0.0         72       22.7      189.4       22.7       24.5       17.4     1012.8       32.3       22.5        0.0        0.0        0.0       0.00      378.4       0.00       4.28        0.0
21:58             215        0.0         72       22.7      189.4       22.7       24.4       17.4     1012.8       32.3       22.5        0.0        0.0        0.0       0.00      378.9       0.00       4.28        0.0
22:00             215        0.0         72       22.6      189.4       22.6       24.4       17.3     1012.8       32.3       22.5        0.0        0.0        0.0       0.00      379.6       0.00       4.28        0.0
22:02             215        0.0         72       22.5      189.4       22.5       24.3       17.2     1012.8       32.3       22.5        0.0        0.0        0.0       0.00      380.3       0.00       4.28        0.0
22:04             215        0.0         72       22.4      189.4       22.4       24.2       17.2     1012.8       32.3       22.4        0.0        0.0        0.0       0.00      381.2       0.00       4.28        0.0
22:06             215        0.0         72       22.4      189.4       22.4       24.2       17.1     1012.8       32.3       22.4        0.0        0.0        0.0       0.00      382.1       0.00       4.28        0.0
22:08             215        0.0         72       22.3      189.4       22.3       24.1       17.0     1012.8       32.3       22.3        0.0        0.0        0.0       0.00      383.0       0.00       4.28        0.0
22:10             215        0.0         72       22.2      189.4       22.2       24.0       16.9     1012.8       32.3       22.2        0.0        0.0        0.0       0.00      383.7       0.00       4.28        0.0
22:12             215        0.0         72       22.2      189.4       22.2       24.0       16.9     1012.9       32.3       22.2        0.0        0.0        0.0       0.00      384.4       0.00       4.28        0.0
22:14             215        0.0         72       22.2      189.4       22.2       23.9       16.9     1012.8       32.3       22.1        0.0        0.0        0.0       0.00      385.4       0.00       4.28        0.0
22:16             215        0.0         73       22.1      189.4       22.1       24.0       17.0     1012.8       32.3       22.1        0.0        0.0        0.0       0.00      386.1       0.00       4.28        0.0
22:18             215        0.0         73       22.1      189.4       22.1       23.9       17.0     1012.9       32.3       22.1        0.0        0.0        0.0       0.00      387.0       0.00       4.28        0.0
22:20             215        0.0         73       22.0      189.4       22.0       23.8       16.9     1012.8       32.3       22.0        0.0        0.0        0.0       0.00      387.8       0.00       4.28        0.0
22:22             215        0.0         73       21.9      189.4       21.9       23.8       16.9     1012.9       32.3       21.9        0.0        0.0        0.0       0.00      388.5       0.00       4.28        0.0
22:24             215        0.0         73       21.9      189.4       21.9       23.7       16.8     1012.9       32.3       21.9        0.0        0.0        0.0       0.00      389.2       0.00       4.28        0.0
22:26             215        0.0         73       21.9      189.4       21.9       23.7       16.8     1012.8       32.3       21.9        0.0        0.0        0.0       0.00      390.0       0.00       4.28        0.0
22:28             215        0.0         73       21.8      189.4       21.8       23.7       16.8     1012.9       32.3       21.8        0.0        0.0        0.0       0.00      390.7       0.00       4.28        0.0
22:30             215        0.0         73       21.8      189.4       21.8       23.7       16.8     1012.9       32.3       21.8        0.0        0.0        0.0       0.00      391.4       0.00       4.28        0.0
22:32             215        0.0         73       21.8      189.4       21.8       23.6       16.7     1012.9       32.3       21.8        0.0        0.0        0.0       0.00      391.9       0.00       4.28        0.0
22:34             215        0.0         73       21.8      189.4       21.8       23.6       16.7     1012.9       32.3       21.8        0.0        0.0        0.0       0.00      392.7       0.00       4.28        0.0
22:36             215        0.0         73       21.7      189.4       21.7       23.6       16.7     1012.8       32.3       21.7        0.0        0.0        0.0       0.00      393.4       0.00       4.28        0.0
22:38             215        0.0         73       21.7      189.4       21.7       23.6       16.7     1012.9       32.3       21.7        0.0        0.0        0.0       0.00      394.0       0.00       4.28        0.0
22:40             215        0.0         73       21.7      189.4       21.7       23.6       16.7     1012.8       32.3       21.7        0.0        0.0        0.0       0.00      394.6       0.00       4.28        0.0
22:42             215        0.0         73       21.7      189.4       21.7       23.6       16.7     1012.9       32.3       21.7        0.0        0.0        0.0       0.00      395.2       0.00       4.28        0.0
22:44             215        0.0         73       21.7      189.4       21.7       23.5       16.6     1012.9       32.3       21.7        0.0        0.0        0.0       0.00      395.9       0.00       4.28        0.0
22:46             215        0.0         73       21.6      189.4       21.6       23.5       16.6     1012.9       32.3       21.6        0.0        0.0        0.0       0.00      396.7       0.00       4.28        0.0
22:48             215        0.0         73       21.6      189.4       21.6       23.5       16.6     1012.9       32.3       21.6        0.0        0.0        0.0       0.00      397.2       0.00       4.28        0.0
22:50             215        0.0         74       21.6      189.4       21.6       23.5       16.8     1012.9       32.3       21.6        0.0        0.0        0.0       0.00      397.8       0.00       4.28        0.0
22:52             215        0.0         74       21.6      189.4       21.6       23.5       16.7     1012.8       32.3       21.6        0.0        0.0        0.0       0.00      398.4       0.00       4.28        0.0
22:54             215        0.0         74       21.5      189.4       21.5       23.4       16.7     1012.9       32.3       21.5        0.0        0.0        0.0       0.00      399.2       0.00       4.28        0.0
22:56             215        0.0         74       21.4      189.4       21.4       23.4       16.6     1012.9       32.3       21.4        0.0        0.0        0.0       0.00      400.0       0.00       4.28        0.0
22:58             215        0.0         74       21.4      189.4       21.4       23.3       16.6     1012.9       32.3       21.4        0.0        0.0        0.0       0.00      400.8       0.00       4.28        0.0
23:00             215        0.0         74       21.3      189.4       21.3       23.2       16.5     1012.9       32.3       21.3        0.0        0.0        0.0       0.00      401.6       0.00       4.28        0.0
23:02             215        0.0         74       21.3      189.4       21.3       23.2       16.5     1012.9       32.3       21.3        0.0        0.0        0.0       0.00      402.4       0.00       4.28        0.0
23:04             215        0.0         74       21.3      189.4       21.3       23.2       16.5     1013.0       32.3       21.2        0.0        0.0        0.0       0.00      403.2       0.00       4.28        0.0
23:06             215        0.0         74       21.2      189.4       21.2       23.1       16.4     1012.9       32.3       21.2        0.0        0.0        0.0       0.00      403.9       0.00       4.28        0.0
23:08             215        0.0         75       21.2      189.4       21.2       23.2       16.6     1012.9       32.3       21.2        0.0        0.0        0.0       0.00      404.8       0.00       4.28        0.0
23:10             215        0.0         75       21.1      189.4       21.1       23.1       16.5     1013.0       32.3       21.1        0.0        0.0        0.0       0.00      405.7       0.00       4.28        0.0
23:12             215        0.0         75       21.1      189.4       21.1       23.1       16.5     1012.9       32.3       21.1        0.0        0.0        0.0       0.00      406.5       0.00       4.28        0.0
23:14             215        0.0         75       21.1      189.4       21.1       23.0       16.5     1012.9       32.3       21.1        0.0        0.0        0.0       0.00      407.2       0.00       4.28        0.0
23:16             215        0.0         75       21.1      189.4       21.1       23.0       16.5     1012.9       32.3       21.1        0.0        0.0        0.0       0.00      407.8       0.00       4.28        0.0
23:18             215        0.0         75       21.0      189.4       21.0       23.0       16.4     1012.9       32.3       21.0        0.0        0.0        0.0       0.00      408.5       0.00       4.28        0.0
23:20             215        0.0         75       21.0      189.4       21.0       23.0       16.4     1013.0       32.3       21.0        0.0        0.0        0.0       0.00      409.1       0.00       4.28        0.0
23:22             215        0.0         75       21.0      189.4       21.0       23.0       16.4     1012.9       32.3       21.0        0.0        0.0        0.0       0.00      409.7       0.00       4.28        0.0
23:24             215        0.0         75       21.0      189.4       21.0       23.0       16.4     1013.0       32.3       21.0        0.0        0.0        0.0       0.00      410.3       0.00       4.28        0.0
23:26             215        0.0         75       21.0      189.4       21.0       23.0       16.4     1013.0       32.3       20.9        0.0        0.0        0.0       0.00      410.7       0.00       4.28        0.0
23:28             215        0.0         75       20.9      189.4       20.9       22.9       16.4     1012.9       32.3       20.9        0.0        0.0        0.0       0.00      411.5       0.00       4.28        0.0
23:30             215        0.0         75       20.9      189.4       20.9       22.9       16.4     1013.0       32.3       20.9        0.0        0.0        0.0       0.00      412.1       0.00       4.28        0.0
23:32             215        0.0         76       20.9      189.4       20.9       22.9       16.5     1012.9       32.3       20.9        0.0        0.0        0.0       0.00      412.8       0.00       4.28        0.0
23:34             215        0.0         76       20.9      189.4       20.9       22.9       16.5     1012.8       32.3       20.9        0.0        0.0        0.0       0.00      413.5       0.00       4.28        0.0
23:36             215        0.0         76       20.9      189.4       20.9       22.9       16.5     1012.9       32.3       20.9        0.0        0.0        0.0       0.00      414.3       0.00       4.28        0.0
23:38             215        0.0         76       20.9      189.4       20.9       22.9       16.5     1012.8       32.3       20.9        0.0        0.0        0.0       0.00      415.0       0.00       4.28        0.0
23:40             215        0.0         76       20.9      189.4       20.9       22.9       16.5     1012.8       32.3       20.9        0.0        0.0        0.0       0.00      415.6       0.00       4.28        0.0
23:42             215        0.0         76       20.8      189.4       20.8       22.9       16.5     1012.8       32.3       20.8        0.0        0.0        0.0       0.00      416.3       0.00       4.28        0.0
23:44             216        0.0         76       20.8      189.4       20.8       22.9       16.5     1012.8       32.3       20.8        0.0        0.0        0.0       0.00      416.9       0.00       4.28        0.0
23:46             216        0.0         76       20.8      189.4       20.8       22.9       16.5     1012.7       32.3       20.8        0.0        0.0        0.0       0.00      417.5       0.00       4.28        0.0
23:48             216        0.0         76       20.8      189.4       20.8       22.9       16.5     1012.8       32.3       20.8        0.0        0.0        0.0       0.00      418.2       0.00       4.28        0.0
23:50             216        0.0         76       20.8      189.4       20.8       22.9       16.5     1012.8       32.3       20.8        0.0        0.0        0.0       0.00      418.9       0.00       4.28        0.0
23:52             215        0.0         76       20.8      189.4       20.8       22.9       16.5     1012.8       32.3       20.8        0.0        0.0        0.0       0.00      419.6       0.00       4.28        0.0
23:54             215        0.0         76       20.9      189.4       20.9       22.9       16.5     1012.8       32.3       20.8        0.0        0.0        0.0       0.00      420.1       0.00       4.28        0.0
23:56             215        0.0         76       20.9      189.4       20.9       23.0       16.6     1012.7       32.3       20.8        0.0        0.0        0.0       0.00      420.6       0.00       4.28        0.0
23:58             215        0.0         76       20.9      189.4       20.9       23.0       16.6     1012.8       32.3       20.8        0.0        0.0        0.0       0.00      421.1       0.00       4.28        0.0


Detalle de hace 2 das:

9/8/22
Time         Wind Dir  Wind Gust   Humidity       Temp   Tot Rain Wind Chill Heat Index  Dew Point   Barom SL Temp Out H Temp Out L  DailyRain   HourRain   24HrRain   RainRate   Wind Run   Deg Heat   Deg Cool  MonthRain
                          km/hr          %         C         mm         C         C         C         mb         C         C         mm         mm         mm      mm/hr         km         C         C         mm
0:00              220        0.0         71       21.0      189.4       21.0       22.7       15.5     1013.5       21.0       21.0        0.0        0.0        0.0       0.00      413.6       0.00       2.95        0.0
0:02              220        0.0         71       21.0      189.4       21.0       22.7       15.5     1013.5       21.0       21.0        0.0        0.0        0.0       0.00        0.4       0.00       0.00        0.0
0:04              220        0.0         71       20.9      189.4       20.9       22.7       15.5     1013.6       21.0       20.9        0.0        0.0        0.0       0.00        0.9       0.00       0.00        0.0
0:06              220        0.0         71       20.9      189.4       20.9       22.7       15.5     1013.5       21.0       20.9        0.0        0.0        0.0       0.00        1.4       0.00       0.00        0.0
0:08              220        0.0         71       20.9      189.4       20.9       22.7       15.5     1013.6       21.0       20.9        0.0        0.0        0.0       0.00        1.9       0.00       0.00        0.0
0:10              220        0.0         71       20.9      189.4       20.9       22.7       15.5     1013.4       21.0       20.9        0.0        0.0        0.0       0.00        2.1       0.00       0.00        0.0
0:12              220        0.0         71       20.9      189.4       20.9       22.7       15.5     1013.5       21.0       20.9        0.0        0.0        0.0       0.00        2.3       0.00       0.00        0.0
0:14              221        0.0         71       20.9      189.4       20.9       22.7       15.5     1013.5       21.0       20.9        0.0        0.0        0.0       0.00        2.5       0.00       0.00        0.0
0:16              220        0.0         71       20.9      189.4       20.9       22.7       15.5     1013.4       21.0       20.9        0.0        0.0        0.0       0.00        2.6       0.00       0.00        0.0
0:18              220        0.0         71       20.9      189.4       20.9       22.7       15.5     1013.5       21.0       20.9        0.0        0.0        0.0       0.00        2.8       0.00       0.00        0.0
0:20              220        0.0         71       20.9      189.4       20.9       22.7       15.5     1013.5       21.0       20.9        0.0        0.0        0.0       0.00        3.0       0.00       0.00        0.0
0:22              220        0.0         71       20.9      189.4       20.9       22.7       15.5     1013.5       21.0       20.9        0.0        0.0        0.0       0.00        3.1       0.00       0.00        0.0
0:24              220        0.0         71       20.9      189.4       20.9       22.6       15.4     1013.5       21.0       20.9        0.0        0.0        0.0       0.00        3.4       0.00       0.00        0.0
0:26              220        0.0         72       20.9      189.4       20.9       22.7       15.7     1013.5       21.0       20.9        0.0        0.0        0.0       0.00        3.6       0.00       0.00        0.0
0:28              220        0.0         72       20.9      189.4       20.9       22.7       15.7     1013.5       21.0       20.9        0.0        0.0        0.0       0.00        3.8       0.00       0.00        0.0
0:30              220        0.0         72       20.8      189.4       20.8       22.6       15.6     1013.5       21.0       20.8        0.0        0.0        0.0       0.00        4.0       0.00       0.00        0.0
0:32              220        0.0         72       20.8      189.4       20.8       22.6       15.6     1013.4       21.0       20.8        0.0        0.0        0.0       0.00        4.1       0.00       0.00        0.0
0:34              220        0.0         72       20.8      189.4       20.8       22.6       15.6     1013.5       21.0       20.8        0.0        0.0        0.0       0.00        4.3       0.00       0.00        0.0
0:36              220        0.0         72       20.8      189.4       20.8       22.6       15.6     1013.3       21.0       20.7        0.0        0.0        0.0       0.00        4.5       0.00       0.00        0.0
0:38              221        0.0         72       20.7      189.4       20.7       22.5       15.5     1013.2       21.0       20.7        0.0        0.0        0.0       0.00        4.7       0.00       0.00        0.0
0:40              221        0.0         73       20.7      189.4       20.7       22.6       15.7     1013.2       21.0       20.7        0.0        0.0        0.0       0.00        4.9       0.00       0.00        0.0
0:42              221        0.0         73       20.7      189.4       20.7       22.6       15.7     1013.4       21.0       20.7        0.0        0.0        0.0       0.00        5.1       0.00       0.00        0.0
0:44              221        0.0         73       20.7      189.4       20.7       22.5       15.7     1013.3       21.0       20.7        0.0        0.0        0.0       0.00        5.3       0.00       0.00        0.0
0:46              221        0.0         73       20.6      189.4       20.6       22.5       15.6     1013.2       21.0       20.6        0.0        0.0        0.0       0.00        5.5       0.00       0.00        0.0
0:48              221        0.0         73       20.6      189.4       20.6       22.5       15.6     1013.2       21.0       20.6        0.0        0.0        0.0       0.00        5.8       0.00       0.00        0.0
0:50              221        0.0         73       20.6      189.4       20.6       22.5       15.6     1013.2       21.0       20.6        0.0        0.0        0.0       0.00        6.0       0.00       0.00        0.0
0:51              221        0.0         73       20.6      189.4       20.6       22.5       15.6     1013.2       21.0       20.6        0.0        0.0        0.0       0.00        6.3       0.00       0.00        0.0
0:54              221        0.0         73       20.6      189.4       20.6       22.4       15.6     1013.1       21.0       20.6        0.0        0.0        0.0       0.00        6.5       0.00       0.00        0.0
0:56              221        0.0         73       20.6      189.4       20.6       22.4       15.6     1013.2       21.0       20.6        0.0        0.0        0.0       0.00        6.7       0.00       0.00        0.0
0:58              221        0.0         73       20.6      189.4       20.6       22.4       15.6     1013.2       21.0       20.6        0.0        0.0        0.0       0.00        7.0       0.00       0.00        0.0
1:00              221        0.0         73       20.6      189.4       20.6       22.4       15.6     1013.1       21.0       20.5        0.0        0.0        0.0       0.00        7.2       0.00       0.00        0.0
1:02              221        0.0         73       20.5      189.4       20.5       22.3       15.5     1013.1       21.0       20.5        0.0        0.0        0.0       0.00        7.3       0.00       0.00        0.0
1:04              221        0.0         73       20.5      189.4       20.5       22.3       15.5     1013.1       21.0       20.5        0.0        0.0        0.0       0.00        7.4       0.00       0.00        0.0
1:06              221        0.0         73       20.5      189.4       20.5       22.3       15.5     1013.2       21.0       20.5        0.0        0.0        0.0       0.00        7.4       0.00       0.00        0.0
1:08              221        0.0         73       20.5      189.4       20.5       22.3       15.5     1013.1       21.0       20.5        0.0        0.0        0.0       0.00        7.5       0.00       0.00        0.0
1:10              221        0.0         73       20.5      189.4       20.5       22.3       15.5     1013.2       21.0       20.5        0.0        0.0        0.0       0.00        7.6       0.00       0.00        0.0
1:12              221        0.0         74       20.5      189.4       20.5       22.4       15.7     1013.2       21.0       20.5        0.0        0.0        0.0       0.00        7.6       0.00       0.00        0.0
1:14              221        0.0         74       20.4      189.4       20.4       22.4       15.7     1013.1       21.0       20.4        0.0        0.0        0.0       0.00        7.7       0.00       0.00        0.0
1:16              221        0.0         74       20.5      189.4       20.5       22.4       15.7     1013.3       21.0       20.4        0.0        0.0        0.0       0.00        7.8       0.00       0.00        0.0
1:18              221        0.0         74       20.5      189.4       20.5       22.4       15.7     1013.4       21.0       20.4        0.0        0.0        0.0       0.00        8.0       0.00       0.00        0.0
1:20              221        0.0         73       20.5      189.4       20.5       22.3       15.5     1013.4       21.0       20.4        0.0        0.0        0.0       0.00        8.3       0.00       0.00        0.0
1:22              221        0.0         73       20.5      189.4       20.5       22.3       15.5     1013.4       21.0       20.4        0.0        0.0        0.0       0.00        8.5       0.00       0.00        0.0
1:24              221        0.0         73       20.6      189.4       20.6       22.4       15.6     1013.5       21.0       20.4        0.0        0.0        0.0       0.00        8.7       0.00       0.00        0.0
1:26              221        0.0         73       20.6      189.4       20.6       22.4       15.6     1013.5       21.0       20.4        0.0        0.0        0.0       0.00        8.9       0.00       0.00        0.0
1:28              221        0.0         73       20.6      189.4       20.6       22.4       15.6     1013.4       21.0       20.4        0.0        0.0        0.0       0.00        9.1       0.00       0.00        0.0
1:30              221        0.0         73       20.5      189.4       20.5       22.3       15.5     1013.5       21.0       20.4        0.0        0.0        0.0       0.00        9.4       0.00       0.00        0.0
1:32              221        0.0         74       20.5      189.4       20.5       22.4       15.7     1013.4       21.0       20.4        0.0        0.0        0.0       0.00        9.6       0.00       0.00        0.0
1:34              221        0.0         74       20.5      189.4       20.5       22.4       15.7     1013.4       21.0       20.4        0.0        0.0        0.0       0.00        9.8       0.00       0.00        0.0
1:36              221        0.0         74       20.5      189.4       20.5       22.4       15.7     1013.4       21.0       20.4        0.0        0.0        0.0       0.00       10.0       0.00       0.00        0.0
1:38              221        0.0         74       20.5      189.4       20.5       22.4       15.7     1013.4       21.0       20.4        0.0        0.0        0.0       0.00       10.3       0.00       0.00        0.0
1:40              221        0.0         74       20.4      189.4       20.4       22.4       15.7     1013.5       21.0       20.4        0.0        0.0        0.0       0.00       10.4       0.00       0.00        0.0
1:41              221        0.0         74       20.4      189.4       20.4       22.4       15.7     1013.4       21.0       20.4        0.0        0.0        0.0       0.00       10.6       0.00       0.00        0.0
1:44              221        0.0         74       20.4      189.4       20.4       22.4       15.7     1013.3       21.0       20.4        0.0        0.0        0.0       0.00       10.7       0.00       0.00        0.0
1:46              221        0.0         74       20.4      189.4       20.4       22.4       15.7     1013.4       21.0       20.4        0.0        0.0        0.0       0.00       10.8       0.00       0.00        0.0
1:48              221        0.0         74       20.4      189.4       20.4       22.3       15.6     1013.3       21.0       20.4        0.0        0.0        0.0       0.00       10.9       0.00       0.00        0.0
1:50              221        0.0         74       20.4      189.4       20.4       22.4       15.7     1013.4       21.0       20.4        0.0        0.0        0.0       0.00       11.1       0.00       0.00        0.0
1:52              221        0.0         74       20.4      189.4       20.4       22.3       15.6     1013.2       21.0       20.4        0.0        0.0        0.0       0.00       11.1       0.00       0.00        0.0
1:54              221        0.0         74       20.4      189.4       20.4       22.4       15.7     1013.2       21.0       20.4        0.0        0.0        0.0       0.00       11.1       0.00       0.00        0.0
1:56              221        0.0         74       20.4      189.4       20.4       22.3       15.6     1013.2       21.0       20.4        0.0        0.0        0.0       0.00       11.1       0.00       0.00        0.0
1:58              221        0.0         74       20.4      189.4       20.4       22.4       15.7     1013.1       21.0       20.4        0.0        0.0        0.0       0.00       11.1       0.00       0.00        0.0
2:00              221        0.0         74       20.4      189.4       20.4       22.4       15.7     1013.2       21.0       20.4        0.0        0.0        0.0       0.00       11.3       0.00       0.00        0.0
2:02              221        0.0         74       20.4      189.4       20.4       22.3       15.6     1013.2       21.0       20.4        0.0        0.0        0.0       0.00       11.3       0.00       0.00        0.0
2:04              221        0.0         74       20.4      189.4       20.4       22.4       15.7     1013.1       21.0       20.4        0.0        0.0        0.0       0.00       11.3       0.00       0.00        0.0
2:05              221        0.0         74       20.4      189.4       20.4       22.3       15.6     1013.1       21.0       20.4        0.0        0.0        0.0       0.00       11.3       0.00       0.00        0.0
2:08              221        0.0         74       20.4      189.4       20.4       22.4       15.7     1013.1       21.0       20.4        0.0        0.0        0.0       0.00       11.4       0.00       0.00        0.0
2:10              221        0.0         74       20.4      189.4       20.4       22.4       15.7     1013.1       21.0       20.4        0.0        0.0        0.0       0.00       11.7       0.00       0.00        0.0
2:12              221        0.0         74       20.4      189.4       20.4       22.4       15.7     1013.1       21.0       20.4        0.0        0.0        0.0       0.00       11.8       0.00       0.00        0.0
2:14              221        0.0         74       20.4      189.4       20.4       22.4       15.7     1013.1       21.0       20.4        0.0        0.0        0.0       0.00       11.8       0.00       0.00        0.0
2:16              221        0.0         74       20.4      189.4       20.4       22.4       15.7     1013.2       21.0       20.4        0.0        0.0        0.0       0.00       11.8       0.00       0.00        0.0
2:18              221        0.0         74       20.4      189.4       20.4       22.3       15.6     1012.9       21.0       20.4        0.0        0.0        0.0       0.00       11.8       0.00       0.00        0.0
2:20              221        0.0         74       20.4      189.4       20.4       22.3       15.6     1013.0       21.0       20.4        0.0        0.0        0.0       0.00       11.8       0.00       0.00        0.0
2:22              221        0.0         74       20.4      189.4       20.4       22.3       15.6     1012.9       21.0       20.4        0.0        0.0        0.0       0.00       11.8       0.00       0.00        0.0
2:24              221        0.0         74       20.4      189.4       20.4       22.3       15.6     1012.9       21.0       20.4        0.0        0.0        0.0       0.00       11.8       0.00       0.00        0.0
2:25              221        0.0         74       20.4      189.4       20.4       22.3       15.6     1012.9       21.0       20.4        0.0        0.0        0.0       0.00       11.9       0.00       0.00        0.0
2:28              221        0.0         75       20.4      189.4       20.4       22.4       15.8     1013.0       21.0       20.4        0.0        0.0        0.0       0.00       11.9       0.00       0.00        0.0
2:30              221        0.0         75       20.4      189.4       20.4       22.4       15.8     1012.9       21.0       20.4        0.0        0.0        0.0       0.00       11.9       0.00       0.00        0.0
2:32              221        0.0         75       20.4      189.4       20.4       22.4       15.9     1012.8       21.0       20.4        0.0        0.0        0.0       0.00       12.1       0.00       0.00        0.0
2:34              221        0.0         75       20.4      189.4       20.4       22.4       15.9     1012.9       21.0       20.4        0.0        0.0        0.0       0.00       12.1       0.00       0.00        0.0
2:36              221        0.0         75       20.4      189.4       20.4       22.4       15.9     1012.9       21.0       20.4        0.0        0.0        0.0       0.00       12.1       0.00       0.00        0.0
2:38              221        0.0         75       20.4      189.4       20.4       22.4       15.9     1013.0       21.0       20.4        0.0        0.0        0.0       0.00       12.1       0.00       0.00        0.0
2:40              221        0.0         75       20.5      189.4       20.5       22.5       15.9     1013.0       21.0       20.4        0.0        0.0        0.0       0.00       12.1       0.00       0.00        0.0
2:42              221        0.0         75       20.5      189.4       20.5       22.5       15.9     1012.9       21.0       20.4        0.0        0.0        0.0       0.00       12.1       0.00       0.00        0.0
2:44              221        0.0         75       20.5      189.4       20.5       22.5       15.9     1012.8       21.0       20.4        0.0        0.0        0.0       0.00       12.2       0.00       0.00        0.0
2:46              221        0.0         75       20.6      189.4       20.6       22.5       16.0     1012.8       21.0       20.4        0.0        0.0        0.0       0.00       12.3       0.00       0.00        0.0
2:47              221        0.0         75       20.6      189.4       20.6       22.5       16.0     1012.9       21.0       20.4        0.0        0.0        0.0       0.00       12.3       0.00       0.00        0.0
2:50              221        0.0         75       20.6      189.4       20.6       22.5       16.0     1012.9       21.0       20.4        0.0        0.0        0.0       0.00       12.3       0.00       0.00        0.0
2:52              221        0.0         75       20.6      189.4       20.6       22.6       16.0     1012.9       21.0       20.4        0.0        0.0        0.0       0.00       12.4       0.00       0.00        0.0
2:54              221        0.0         75       20.6      189.4       20.6       22.6       16.0     1012.9       21.0       20.4        0.0        0.0        0.0       0.00       12.5       0.00       0.00        0.0
2:56              221        0.0         75       20.6      189.4       20.6       22.6       16.0     1012.8       21.0       20.4        0.0        0.0        0.0       0.00       12.5       0.00       0.00        0.0
2:58              221        0.0         75       20.6      189.4       20.6       22.6       16.0     1012.8       21.0       20.4        0.0        0.0        0.0       0.00       12.5       0.00       0.00        0.0
3:00              221        0.0         75       20.7      189.4       20.7       22.7       16.1     1012.8       21.0       20.4        0.0        0.0        0.0       0.00       12.5       0.00       0.00        0.0
3:02              221        0.0         75       20.7      189.4       20.7       22.7       16.1     1012.9       21.0       20.4        0.0        0.0        0.0       0.00       12.5       0.00       0.00        0.0
3:03              221        0.0         75       20.7      189.4       20.7       22.7       16.1     1012.8       21.0       20.4        0.0        0.0        0.0       0.00       12.5       0.00       0.00        0.0
3:06              221        0.0         75       20.7      189.4       20.7       22.7       16.1     1012.8       21.0       20.4        0.0        0.0        0.0       0.00       12.5       0.00       0.00        0.0
3:08              221        0.0         75       20.7      189.4       20.7       22.7       16.1     1012.8       21.0       20.4        0.0        0.0        0.0       0.00       12.5       0.00       0.00        0.0
3:10              221        0.0         75       20.7      189.4       20.7       22.7       16.1     1012.8       21.0       20.4        0.0        0.0        0.0       0.00       12.5       0.00       0.00        0.0
3:12              221        0.0         75       20.7      189.4       20.7       22.7       16.1     1012.8       21.0       20.4        0.0        0.0        0.0       0.00       12.5       0.00       0.00        0.0
3:14              221        0.0         75       20.7      189.4       20.7       22.7       16.1     1012.8       21.0       20.4        0.0        0.0        0.0       0.00       12.5       0.00       0.00        0.0
3:16              221        0.0         75       20.7      189.4       20.7       22.7       16.1     1012.8       21.0       20.4        0.0        0.0        0.0       0.00       12.6       0.00       0.00        0.0
3:18              221        0.0         75       20.7      189.4       20.7       22.7       16.1     1012.8       21.0       20.4        0.0        0.0        0.0       0.00       12.9       0.00       0.00        0.0
3:19              221        0.0         75       20.7      189.4       20.7       22.7       16.1     1012.8       21.0       20.4        0.0        0.0        0.0       0.00       13.2       0.00       0.00        0.0
3:22              221        0.0         75       20.7      189.4       20.7       22.7       16.1     1012.8       21.0       20.4        0.0        0.0        0.0       0.00       13.6       0.00       0.00        0.0
3:24              221        0.0         75       20.7      189.4       20.7       22.7       16.1     1012.7       21.0       20.4        0.0        0.0        0.0       0.00       13.9       0.00       0.00        0.0
3:26              221        0.0         75       20.7      189.4       20.7       22.7       16.1     1012.7       21.0       20.4        0.0        0.0        0.0       0.00       14.3       0.00       0.00        0.0
3:28              221        0.0         75       20.7      189.4       20.7       22.7       16.1     1012.8       21.0       20.4        0.0        0.0        0.0       0.00       14.5       0.00       0.00        0.0
3:30              221        0.0         75       20.7      189.4       20.7       22.7       16.1     1012.7       21.0       20.4        0.0        0.0        0.0       0.00       14.6       0.00       0.00        0.0
3:32              221        0.0         75       20.7      189.4       20.7       22.7       16.1     1012.7       21.0       20.4        0.0        0.0        0.0       0.00       14.9       0.00       0.00        0.0
3:33              221        0.0         75       20.7      189.4       20.7       22.7       16.1     1012.6       21.0       20.4        0.0        0.0        0.0       0.00       15.1       0.00       0.00        0.0
3:36              221        0.0         75       20.7      189.4       20.7       22.7       16.1     1012.6       21.0       20.4        0.0        0.0        0.0       0.00       15.3       0.00       0.00        0.0
3:38              221        0.0         75       20.7      189.4       20.7       22.7       16.1     1012.7       21.0       20.4        0.0        0.0        0.0       0.00       15.6       0.00       0.00        0.0
3:40              221        0.0         75       20.7      189.4       20.7       22.7       16.1     1012.6       21.0       20.4        0.0        0.0        0.0       0.00       15.9       0.00       0.00        0.0
3:42              221        0.0         75       20.7      189.4       20.7       22.7       16.1     1012.5       21.0       20.4        0.0        0.0        0.0       0.00       16.3       0.00       0.00        0.0
3:44              221        0.0         75       20.7      189.4       20.7       22.7       16.1     1012.4       21.0       20.4        0.0        0.0        0.0       0.00       16.6       0.00       0.00        0.0
3:46              221        0.0         75       20.7      189.4       20.7       22.7       16.1     1012.5       21.0       20.4        0.0        0.0        0.0       0.00       16.8       0.00       0.00        0.0
3:48              221        0.0         75       20.7      189.4       20.7       22.7       16.1     1012.5       21.0       20.4        0.0        0.0        0.0       0.00       17.0       0.00       0.00        0.0
3:50              221        0.0         75       20.7      189.4       20.7       22.7       16.1     1012.3       21.0       20.4        0.0        0.0        0.0       0.00       17.3       0.00       0.00        0.0
3:52              221        0.0         75       20.7      189.4       20.7       22.7       16.1     1012.3       21.0       20.4        0.0        0.0        0.0       0.00       17.6       0.00       0.00        0.0
3:54              221        0.0         75       20.7      189.4       20.7       22.7       16.1     1012.3       21.0       20.4        0.0        0.0        0.0       0.00       17.9       0.00       0.00        0.0
3:56              221        0.0         74       20.7      189.4       20.7       22.6       15.9     1012.5       21.0       20.4        0.0        0.0        0.0       0.00       18.3       0.00       0.00        0.0
3:58              221        0.0         74       20.7      189.4       20.7       22.6       15.9     1012.5       21.0       20.4        0.0        0.0        0.0       0.00       18.5       0.00       0.00        0.0
4:00              221        0.0         74       20.6      189.4       20.6       22.5       15.8     1012.6       21.0       20.4        0.0        0.0        0.0       0.00       18.7       0.00       0.00        0.0
4:02              221        0.0         74       20.7      189.4       20.7       22.6       15.9     1012.5       21.0       20.4        0.0        0.0        0.0       0.00       18.7       0.00       0.00        0.0
4:04              221        0.0         74       20.6      189.4       20.6       22.5       15.8     1012.6       21.0       20.4        0.0        0.0        0.0       0.00       18.9       0.00       0.00        0.0
4:05              221        0.0         74       20.6      189.4       20.6       22.5       15.8     1012.5       21.0       20.4        0.0        0.0        0.0       0.00       19.2       0.00       0.00        0.0
4:08              221        0.0         74       20.6      189.4       20.6       22.5       15.8     1012.6       21.0       20.4        0.0        0.0        0.0       0.00       19.4       0.00       0.00        0.0
4:10              221        0.0         74       20.6      189.4       20.6       22.5       15.8     1012.6       21.0       20.4        0.0        0.0        0.0       0.00       19.5       0.00       0.00        0.0
4:12              221        0.0         74       20.6      189.4       20.6       22.5       15.8     1012.5       21.0       20.4        0.0        0.0        0.0       0.00       19.8       0.00       0.00        0.0
4:14              221        0.0         74       20.5      189.4       20.5       22.4       15.7     1012.5       21.0       20.4        0.0        0.0        0.0       0.00       20.0       0.00       0.00        0.0
4:16              221        0.0         74       20.5      189.4       20.5       22.4       15.7     1012.6       21.0       20.4        0.0        0.0        0.0       0.00       20.2       0.00       0.00        0.0
4:18              221        0.0         74       20.5      189.4       20.5       22.4       15.7     1012.7       21.0       20.4        0.0        0.0        0.0       0.00       20.4       0.00       0.00        0.0
4:20              221        0.0         74       20.5      189.4       20.5       22.4       15.7     1012.6       21.0       20.4        0.0        0.0        0.0       0.00       20.4       0.00       0.00        0.0
4:22              221        0.0         75       20.5      189.4       20.5       22.5       15.9     1012.7       21.0       20.4        0.0        0.0        0.0       0.00       20.6       0.00       0.00        0.0
4:24              221        0.0         75       20.5      189.4       20.5       22.5       15.9     1012.7       21.0       20.4        0.0        0.0        0.0       0.00       20.9       0.00       0.00        0.0
4:26              221        0.0         75       20.5      189.4       20.5       22.5       15.9     1012.6       21.0       20.4        0.0        0.0        0.0       0.00       21.1       0.00       0.00        0.0
4:28              221        0.0         75       20.5      189.4       20.5       22.5       15.9     1012.6       21.0       20.4        0.0        0.0        0.0       0.00       21.2       0.00       0.00        0.0
4:30              221        0.0         75       20.5      189.4       20.5       22.5       15.9     1012.7       21.0       20.4        0.0        0.0        0.0       0.00       21.3       0.00       0.00        0.0
4:32              221        0.0         75       20.4      189.4       20.4       22.4       15.9     1012.7       21.0       20.4        0.0        0.0        0.0       0.00       21.5       0.00       0.00        0.0
4:34              221        0.0         75       20.4      189.4       20.4       22.4       15.9     1012.7       21.0       20.4        0.0        0.0        0.0       0.00       21.6       0.00       0.00        0.0
4:36              221        0.0         75       20.4      189.4       20.4       22.4       15.9     1012.7       21.0       20.4        0.0        0.0        0.0       0.00       21.7       0.00       0.00        0.0
4:38              221        0.0         75       20.4      189.4       20.4       22.4       15.8     1012.7       21.0       20.4        0.0        0.0        0.0       0.00       21.8       0.00       0.00        0.0
4:40              221        0.0         75       20.4      189.4       20.4       22.4       15.8     1012.7       21.0       20.4        0.0        0.0        0.0       0.00       22.1       0.00       0.00        0.0
4:42              221        0.0         75       20.4      189.4       20.4       22.4       15.8     1012.7       21.0       20.4        0.0        0.0        0.0       0.00       22.3       0.00       0.00        0.0
4:44              221        0.0         75       20.4      189.4       20.4       22.4       15.8     1012.7       21.0       20.4        0.0        0.0        0.0       0.00       22.6       0.00       0.00        0.0
4:46              221        0.0         75       20.4      189.4       20.4       22.4       15.8     1012.7       21.0       20.4        0.0        0.0        0.0       0.00       22.7       0.00       0.00        0.0
4:48              221        0.0         75       20.3      189.4       20.3       22.3       15.8     1012.7       21.0       20.3        0.0        0.0        0.0       0.00       22.8       0.00       0.00        0.0
4:50              221        0.0         75       20.3      189.4       20.3       22.3       15.8     1012.7       21.0       20.3        0.0        0.0        0.0       0.00       22.9       0.00       0.00        0.0
4:52              221        0.0         75       20.3      189.4       20.3       22.3       15.8     1012.7       21.0       20.3        0.0        0.0        0.0       0.00       23.1       0.00       0.00        0.0
4:54              221        0.0         75       20.3      189.4       20.3       22.3       15.8     1012.7       21.0       20.3        0.0        0.0        0.0       0.00       23.2       0.00       0.00        0.0
4:56              221        0.0         75       20.3      189.4       20.3       22.3       15.7     1012.8       21.0       20.3        0.0        0.0        0.0       0.00       23.4       0.00       0.00        0.0
4:58              221        0.0         75       20.3      189.4       20.3       22.3       15.7     1012.9       21.0       20.3        0.0        0.0        0.0       0.00       23.5       0.00       0.00        0.0
5:00              221        0.0         75       20.3      189.4       20.3       22.3       15.7     1012.9       21.0       20.3        0.0        0.0        0.0       0.00       23.7       0.00       0.00        0.0
5:02              221        0.0         75       20.2      189.4       20.2       22.2       15.7     1012.8       21.0       20.2        0.0        0.0        0.0       0.00       23.8       0.00       0.00        0.0
5:04              221        0.0         75       20.2      189.4       20.2       22.2       15.7     1012.7       21.0       20.2        0.0        0.0        0.0       0.00       23.9       0.00       0.00        0.0
5:06              221        0.0         76       20.2      189.4       20.2       22.3       15.9     1012.7       21.0       20.2        0.0        0.0        0.0       0.00       24.1       0.00       0.00        0.0
5:08              221        0.0         76       20.2      189.4       20.2       22.3       15.9     1012.8       21.0       20.2        0.0        0.0        0.0       0.00       24.2       0.00       0.00        0.0
5:09              221        0.0         76       20.2      189.4       20.2       22.3       15.9     1012.8       21.0       20.2        0.0        0.0        0.0       0.00       24.4       0.00       0.00        0.0
5:12              221        0.0         77       20.2      189.4       20.2       22.4       16.1     1012.7       21.0       20.2        0.0        0.0        0.0       0.00       24.6       0.00       0.00        0.0
5:14              221        0.0         77       20.2      189.4       20.2       22.4       16.1     1012.7       21.0       20.2        0.0        0.0        0.0       0.00       24.7       0.00       0.00        0.0
5:16              221        0.0         77       20.2      189.4       20.2       22.4       16.1     1012.7       21.0       20.2        0.0        0.0        0.0       0.00       24.9       0.00       0.00        0.0
5:18              221        0.0         77       20.2      189.4       20.2       22.4       16.1     1012.8       21.0       20.2        0.0        0.0        0.0       0.00       25.2       0.00       0.00        0.0
5:20              221        0.0         78       20.2      189.4       20.2       22.4       16.3     1013.0       21.0       20.2        0.0        0.0        0.0       0.00       25.4       0.00       0.00        0.0
5:22              221        0.0         78       20.2      189.4       20.2       22.4       16.3     1012.9       21.0       20.2        0.0        0.0        0.0       0.00       25.5       0.00       0.00        0.0
5:24              221        0.0         78       20.2      189.4       20.2       22.4       16.3     1012.8       21.0       20.2        0.0        0.0        0.0       0.00       25.6       0.00       0.00        0.0
5:26              221        0.0         78       20.2      189.4       20.2       22.4       16.3     1012.9       21.0       20.2        0.0        0.0        0.0       0.00       25.7       0.00       0.00        0.0
5:28              221        0.0         78       20.2      189.4       20.2       22.4       16.2     1012.8       21.0       20.2        0.0        0.0        0.0       0.00       25.9       0.00       0.00        0.0
5:30              221        0.0         78       20.2      189.4       20.2       22.4       16.2     1012.9       21.0       20.2        0.0        0.0        0.0       0.00       26.2       0.00       0.00        0.0
5:31              221        0.0         78       20.2      189.4       20.2       22.4       16.2     1012.8       21.0       20.2        0.0        0.0        0.0       0.00       26.3       0.00       0.00        0.0
5:34              221        0.0         78       20.1      189.4       20.1       22.3       16.2     1012.8       21.0       20.1        0.0        0.0        0.0       0.00       26.5       0.00       0.00        0.0
5:36              221        0.0         78       20.1      189.4       20.1       22.3       16.2     1012.8       21.0       20.1        0.0        0.0        0.0       0.00       26.6       0.00       0.00        0.0
5:38              221        0.0         78       20.1      189.4       20.1       22.3       16.2     1012.7       21.0       20.1        0.0        0.0        0.0       0.00       26.6       0.00       0.00        0.0
5:40              221        0.0         78       20.1      189.4       20.1       22.3       16.1     1012.8       21.0       20.1        0.0        0.0        0.0       0.00       26.6       0.00       0.00        0.0
5:42              221        0.0         79       20.1      189.4       20.1       22.3       16.3     1012.8       21.0       20.1        0.0        0.0        0.0       0.00       26.6       0.00       0.00        0.0
5:44              221        0.0         79       20.1      189.4       20.1       22.3       16.3     1012.8       21.0       20.1        0.0        0.0        0.0       0.00       26.7       0.00       0.00        0.0
5:46              221        0.0         79       20.0      189.4       20.0       22.3       16.3     1012.7       21.0       20.0        0.0        0.0        0.0       0.00       26.7       0.00       0.00        0.0
5:48              221        0.0         79       20.0      189.4       20.0       22.3       16.3     1012.8       21.0       20.0        0.0        0.0        0.0       0.00       26.7       0.00       0.00        0.0
5:49              221        0.0         79       20.0      189.4       20.0       22.3       16.3     1012.8       21.0       19.9        0.0        0.0        0.0       0.00       26.7       0.00       0.00        0.0
5:51              221        0.0         79       19.9      189.4       19.9       22.2       16.2     1012.8       21.0       19.9        0.0        0.0        0.0       0.00       26.7       0.00       0.00        0.0
5:54              221        0.0         79       19.9      189.4       19.9       22.2       16.2     1012.8       21.0       19.9        0.0        0.0        0.0       0.00       26.7       0.00       0.00        0.0
5:56              221        0.0         79       19.9      189.4       19.9       22.2       16.2     1012.9       21.0       19.9        0.0        0.0        0.0       0.00       26.7       0.00       0.00        0.0
5:58              208        0.0         79       19.9      189.4       19.9       22.2       16.1     1012.9       21.0       19.9        0.0        0.0        0.0       0.00       26.7       0.00       0.00        0.0
6:00              175        0.0         79       19.9      189.4       19.9       22.2       16.1     1013.0       21.0       19.9        0.0        0.0        0.0       0.00       26.7       0.00       0.00        0.0
6:02              175        0.0         79       19.9      189.4       19.9       22.2       16.1     1012.9       21.0       19.9        0.0        0.0        0.0       0.00       26.7       0.00       0.00        0.0
6:04              175        0.0         79       19.9      189.4       19.9       22.2       16.1     1013.0       21.0       19.9        0.0        0.0        0.0       0.00       26.8       0.00       0.00        0.0
6:06              175        0.0         80       19.9      189.4       19.9       22.2       16.3     1013.0       21.0       19.9        0.0        0.0        0.0       0.00       26.8       0.00       0.00        0.0
6:08              176        0.0         80       19.9      189.4       19.9       22.2       16.3     1013.0       21.0       19.9        0.0        0.0        0.0       0.00       26.8       0.00       0.00        0.0
6:10              175        0.0         80       19.9      189.4       19.9       22.3       16.4     1013.0       21.0       19.9        0.0        0.0        0.0       0.00       26.9       0.00       0.00        0.0
6:12              175        0.0         80       19.9      189.4       19.9       22.2       16.3     1013.0       21.0       19.9        0.0        0.0        0.0       0.00       26.9       0.00       0.00        0.0
6:14              175        0.0         80       19.9      189.4       19.9       22.3       16.4     1013.0       21.0       19.9        0.0        0.0        0.0       0.00       27.1       0.00       0.00        0.0
6:16              175        0.0         80       19.9      189.4       19.9       22.3       16.4     1013.0       21.0       19.9        0.0        0.0        0.0       0.00       27.3       0.00       0.00        0.0
6:18              175        0.0         80       20.0      189.4       20.0       22.3       16.4     1013.0       21.0       19.9        0.0        0.0        0.0       0.00       27.3       0.00       0.00        0.0
6:20              175        0.0         80       20.0      189.4       20.0       22.3       16.4     1013.1       21.0       19.9        0.0        0.0        0.0       0.00       27.5       0.00       0.00        0.0
6:22              175        0.0         80       20.0      189.4       20.0       22.3       16.4     1013.0       21.0       19.9        0.0        0.0        0.0       0.00       27.5       0.00       0.00        0.0
6:24              175        0.0         80       20.0      189.4       20.0       22.3       16.4     1013.1       21.0       19.9        0.0        0.0        0.0       0.00       27.5       0.00       0.00        0.0
6:26              175        0.0         79       20.1      189.4       20.1       22.3       16.3     1013.1       21.0       19.9        0.0        0.0        0.0       0.00       27.6       0.00       0.00        0.0
6:28              175        0.0         79       20.1      189.4       20.1       22.3       16.3     1013.1       21.0       19.9        0.0        0.0        0.0       0.00       27.6       0.00       0.00        0.0
6:30              175        0.0         79       20.1      189.4       20.1       22.3       16.3     1013.0       21.0       19.9        0.0        0.0        0.0       0.00       27.6       0.00       0.00        0.0
6:32              175        0.0         79       20.1      189.4       20.1       22.4       16.4     1013.1       21.0       19.9        0.0        0.0        0.0       0.00       27.6       0.00       0.00        0.0
6:34              175        0.0         79       20.1      189.4       20.1       22.4       16.4     1012.9       21.0       19.9        0.0        0.0        0.0       0.00       27.6       0.00       0.00        0.0
6:35              175        0.0         79       20.2      189.4       20.2       22.4       16.4     1013.0       21.0       19.9        0.0        0.0        0.0       0.00       27.7       0.00       0.00        0.0
6:38              175        0.0         79       20.2      189.4       20.2       22.4       16.4     1013.0       21.0       19.9        0.0        0.0        0.0       0.00       27.8       0.00       0.00        0.0
6:40              175        0.0         79       20.2      189.4       20.2       22.5       16.5     1013.1       21.0       19.9        0.0        0.0        0.0       0.00       28.0       0.00       0.00        0.0
6:42              175        0.0         79       20.2      189.4       20.2       22.5       16.5     1013.1       21.0       19.9        0.0        0.0        0.0       0.00       28.2       0.00       0.00        0.0
6:43              175        0.0         79       20.3      189.4       20.3       22.6       16.5     1013.1       21.0       19.9        0.0        0.0        0.0       0.00       28.3       0.00       0.00        0.0
6:46              175        0.0         79       20.3      189.4       20.3       22.6       16.6     1013.2       21.0       19.9        0.0        0.0        0.0       0.00       28.4       0.00       0.00        0.0
6:47              175        0.0         79       20.4      189.4       20.4       22.7       16.6     1013.2       21.0       19.9        0.0        0.0        0.0       0.00       28.5       0.00       0.00        0.0
6:50              176        0.0         79       20.4      189.4       20.4       22.7       16.7     1013.1       21.0       19.9        0.0        0.0        0.0       0.00       28.8       0.00       0.00        0.0
6:52              175        0.0         79       20.4      189.4       20.4       22.7       16.7     1013.1       21.0       19.9        0.0        0.0        0.0       0.00       29.1       0.00       0.00        0.0
6:54              175        0.0         79       20.6      189.4       20.6       22.8       16.8     1013.2       21.0       19.9        0.0        0.0        0.0       0.00       29.4       0.00       0.00        0.0
6:55              175        0.0         79       20.6      189.4       20.6       22.9       16.8     1013.1       21.0       19.9        0.0        0.0        0.0       0.00       29.5       0.00       0.00        0.0
6:58              175        0.0         79       20.7      189.4       20.7       23.0       17.0     1013.1       21.0       19.9        0.0        0.0        0.0       0.00       29.5       0.00       0.00        0.0
7:00              175        0.0         78       20.8      189.4       20.8       23.0       16.8     1013.2       21.0       19.9        0.0        0.0        0.0       0.00       29.9       0.00       0.00        0.0
7:02              175        0.0         78       20.8      189.4       20.8       23.0       16.9     1013.2       21.0       19.9        0.0        0.0        0.0       0.00       29.9       0.00       0.00        0.0
7:04              175        0.0         78       20.9      189.4       20.9       23.1       17.0     1013.2       21.0       19.9        0.0        0.0        0.0       0.00       30.1       0.00       0.00        0.0
7:06              175        0.0         78       21.0      189.4       21.0       23.2       17.0     1013.3       21.0       19.9        0.0        0.0        0.0       0.00       30.4       0.00       0.00        0.0
7:08              175        0.0         77       21.1      189.4       21.1       23.2       16.9     1013.2       21.1       19.9        0.0        0.0        0.0       0.00       30.9       0.00       0.00        0.0
7:10              175        0.0         77       21.2      189.4       21.2       23.4       17.0     1013.1       21.2       19.9        0.0        0.0        0.0       0.00       31.4       0.00       0.00        0.0
7:12              175        0.0         77       21.3      189.4       21.3       23.4       17.1     1013.2       21.3       19.9        0.0        0.0        0.0       0.00       31.9       0.00       0.00        0.0
7:14              175        0.0         76       21.3      189.4       21.3       23.4       16.9     1013.2       21.3       19.9        0.0        0.0        0.0       0.00       32.2       0.00       0.00        0.0
7:15              175        0.0         76       21.4      189.4       21.4       23.4       17.0     1013.2       21.4       19.9        0.0        0.0        0.0       0.00       32.4       0.00       0.00        0.0
7:18              175        0.0         76       21.5      189.4       21.5       23.6       17.1     1013.3       21.5       19.9        0.0        0.0        0.0       0.00       32.9       0.00       0.00        0.0
7:20              175        0.0         76       21.6      189.4       21.6       23.6       17.1     1013.2       21.6       19.9        0.0        0.0        0.0       0.00       33.4       0.00       0.00        0.0
7:22              175        0.0         76       21.6      189.4       21.6       23.7       17.2     1013.4       21.6       19.9        0.0        0.0        0.0       0.00       33.9       0.00       0.00        0.0
7:24              175        0.0         75       21.7      189.4       21.7       23.7       17.1     1013.4       21.7       19.9        0.0        0.0        0.0       0.00       34.4       0.00       0.00        0.0
7:26              175        0.0         75       21.8      189.4       21.8       23.8       17.2     1013.4       21.8       19.9        0.0        0.0        0.0       0.00       34.8       0.00       0.00        0.0
7:28              175        0.0         75       21.9      189.4       21.9       23.9       17.3     1013.3       21.9       19.9        0.0        0.0        0.0       0.00       34.9       0.00       0.00        0.0
7:30              175        0.0         74       22.1      189.4       22.1       24.0       17.2     1013.4       22.1       19.9        0.0        0.0        0.0       0.00       35.2       0.00       0.00        0.0
7:31              175        0.0         74       22.2      189.4       22.2       24.1       17.3     1013.4       22.2       19.9        0.0        0.0        0.0       0.00       35.5       0.00       0.00        0.0
7:34              175        0.0         73       22.3      189.4       22.3       24.1       17.2     1013.4       22.3       19.9        0.0        0.0        0.0       0.00       35.9       0.00       0.00        0.0
7:36              175        0.0         72       22.4      189.4       22.4       24.2       17.1     1013.5       22.4       19.9        0.0        0.0        0.0       0.00       36.1       0.00       0.00        0.0
7:38              175        0.0         72       22.6      189.4       22.6       24.3       17.3     1013.5       22.6       19.9        0.0        0.0        0.0       0.00       36.4       0.00       0.00        0.0
7:40              175        0.0         71       22.7      189.4       22.7       24.4       17.1     1013.5       22.7       19.9        0.0        0.0        0.0       0.00       36.7       0.00       0.00        0.0
7:41              175        0.0         70       22.8      189.4       22.8       24.4       17.0     1013.5       22.8       19.9        0.0        0.0        0.0       0.00       36.8       0.00       0.00        0.0
7:44              175        0.0         70       22.9      189.4       22.9       24.5       17.1     1013.4       22.9       19.9        0.0        0.0        0.0       0.00       37.1       0.00       0.00        0.0
7:46              175        0.0         69       23.0      189.4       23.0       24.6       17.0     1013.5       23.0       19.9        0.0        0.0        0.0       0.00       37.4       0.00       0.01        0.0
7:48              175        0.0         69       23.1      189.4       23.1       24.7       17.1     1013.4       23.1       19.9        0.0        0.0        0.0       0.00       37.7       0.00       0.01        0.0
7:49              175        0.0         68       23.2      189.4       23.2       24.7       17.0     1013.4       23.2       19.9        0.0        0.0        0.0       0.00       37.9       0.00       0.01        0.0
7:52              175        0.0         68       23.3      189.4       23.3       24.8       17.1     1013.4       23.3       19.9        0.0        0.0        0.0       0.00       38.1       0.00       0.01        0.0
7:54              175        0.0         68       23.4      189.4       23.4       25.0       17.2     1013.5       23.4       19.9        0.0        0.0        0.0       0.00       38.6       0.00       0.01        0.0
7:56              175        0.0         68       23.6      189.4       23.6       25.1       17.3     1013.4       23.6       19.9        0.0        0.0        0.0       0.00       38.8       0.00       0.01        0.0
7:58              175        0.0         67       23.6      189.4       23.6       25.1       17.1     1013.5       23.6       19.9        0.0        0.0        0.0       0.00       39.0       0.00       0.01        0.0
8:00              175        0.0         67       23.7      189.4       23.7       25.1       17.2     1013.5       23.7       19.9        0.0        0.0        0.0       0.00       39.1       0.00       0.01        0.0
8:02              175        0.0         67       23.7      189.4       23.7       25.1       17.2     1013.6       23.7       19.9        0.0        0.0        0.0       0.00       39.3       0.00       0.03        0.0
8:04              176        0.0         67       23.7      189.4       23.7       25.2       17.2     1013.5       23.7       19.9        0.0        0.0        0.0       0.00       39.3       0.00       0.03        0.0
8:06              175        0.0         66       23.7      189.4       23.7       25.1       17.0     1013.5       23.7       19.9        0.0        0.0        0.0       0.00       39.3       0.00       0.03        0.0
8:08              175        0.0         66       23.8      189.4       23.8       25.2       17.1     1013.5       23.8       19.9        0.0        0.0        0.0       0.00       39.3       0.00       0.03        0.0
8:10              176        0.0         66       23.8      189.4       23.8       25.2       17.1     1013.6       23.8       19.9        0.0        0.0        0.0       0.00       39.5       0.00       0.03        0.0
8:12              175        0.0         66       23.8      189.4       23.8       25.2       17.1     1013.6       23.8       19.9        0.0        0.0        0.0       0.00       39.8       0.00       0.03        0.0
8:14              175        0.0         65       23.9      189.4       23.9       25.2       16.9     1013.5       23.9       19.9        0.0        0.0        0.0       0.00       39.9       0.00       0.03        0.0
8:16              175        0.0         65       23.9      189.4       23.9       25.3       17.0     1013.5       23.9       19.9        0.0        0.0        0.0       0.00       40.1       0.00       0.05        0.0
8:18              175        0.0         65       23.9      189.4       23.9       25.3       17.0     1013.6       23.9       19.9        0.0        0.0        0.0       0.00       40.2       0.00       0.05        0.0
8:20              175        0.0         65       23.9      189.4       23.9       25.3       17.0     1013.6       23.9       19.9        0.0        0.0        0.0       0.00       40.5       0.00       0.05        0.0
8:22              175        0.0         65       23.9      189.4       23.9       25.3       17.0     1013.7       23.9       19.9        0.0        0.0        0.0       0.00       40.6       0.00       0.05        0.0
8:24              175        0.0         65       23.9      189.4       23.9       25.3       17.0     1013.7       23.9       19.9        0.0        0.0        0.0       0.00       40.7       0.00       0.05        0.0
8:26              175        0.0         66       23.9      189.4       23.9       25.3       17.2     1013.7       23.9       19.9        0.0        0.0        0.0       0.00       40.9       0.00       0.05        0.0
8:28              175        0.0         66       23.9      189.4       23.9       25.3       17.2     1013.6       23.9       19.9        0.0        0.0        0.0       0.00       40.9       0.00       0.05        0.0
8:30              175        0.0         65       23.9      189.4       23.9       25.2       16.9     1013.6       23.9       19.9        0.0        0.0        0.0       0.00       41.0       0.00       0.05        0.0
8:32              176        0.0         65       23.8      189.4       23.8       25.1       16.9     1013.5       23.9       19.9        0.0        0.0        0.0       0.00       41.1       0.00       0.07        0.0
8:34              175        0.0         65       23.8      189.4       23.8       25.1       16.9     1013.6       23.9       19.9        0.0        0.0        0.0       0.00       41.2       0.00       0.07        0.0
8:36              175        0.0         65       23.8      189.4       23.8       25.1       16.9     1013.6       23.9       19.9        0.0        0.0        0.0       0.00       41.4       0.00       0.07        0.0
8:38              175        0.0         65       23.8      189.4       23.8       25.1       16.9     1013.6       23.9       19.9        0.0        0.0        0.0       0.00       41.7       0.00       0.07        0.0
8:40              175        0.0         66       23.8      189.4       23.8       25.2       17.1     1013.6       23.9       19.9        0.0        0.0        0.0       0.00       41.8       0.00       0.07        0.0
8:42              176        0.0         66       23.8      189.4       23.8       25.2       17.1     1013.6       23.9       19.9        0.0        0.0        0.0       0.00       42.1       0.00       0.07        0.0
8:44              174        0.0         65       23.8      189.4       23.8       25.1       16.9     1013.7       23.9       19.9        0.0        0.0        0.0       0.00       42.2       0.00       0.07        0.0
8:46              174        0.0         65       23.8      189.4       23.8       25.1       16.9     1013.7       23.9       19.9        0.0        0.0        0.0       0.00       42.2       0.00       0.09        0.0
8:47              174        0.0         65       23.8      189.4       23.8       25.1       16.9     1013.7       23.9       19.9        0.0        0.0        0.0       0.00       42.2       0.00       0.09        0.0
8:50              174        0.0         66       23.8      189.4       23.8       25.2       17.1     1013.7       23.9       19.9        0.0        0.0        0.0       0.00       42.2       0.00       0.09        0.0
8:52              174        0.0         66       23.7      189.4       23.7       25.1       17.0     1013.7       23.9       19.9        0.0        0.0        0.0       0.00       42.2       0.00       0.09        0.0
8:54              174        0.0         67       23.7      189.4       23.7       25.2       17.2     1013.7       23.9       19.9        0.0        0.0        0.0       0.00       42.3       0.00       0.09        0.0
8:55              174        0.0         67       23.7      189.4       23.7       25.2       17.2     1013.7       23.9       19.9        0.0        0.0        0.0       0.00       42.4       0.00       0.09        0.0
8:58              174        0.0         67       23.7      189.4       23.7       25.2       17.2     1013.7       23.9       19.9        0.0        0.0        0.0       0.00       42.4       0.00       0.09        0.0
9:00              174        0.0         67       23.7      189.4       23.7       25.2       17.2     1013.7       23.9       19.9        0.0        0.0        0.0       0.00       42.4       0.00       0.09        0.0
9:02              174        0.0         67       23.8      189.4       23.8       25.2       17.3     1013.7       23.9       19.9        0.0        0.0        0.0       0.00       42.6       0.00       0.10        0.0
9:04              174        0.0         67       23.8      189.4       23.8       25.2       17.3     1013.7       23.9       19.9        0.0        0.0        0.0       0.00       42.7       0.00       0.10        0.0
9:06              174        0.0         67       23.8      189.4       23.8       25.3       17.3     1013.7       23.9       19.9        0.0        0.0        0.0       0.00       42.9       0.00       0.10        0.0
9:08              174        0.0         67       23.9      189.4       23.9       25.3       17.4     1013.7       23.9       19.9        0.0        0.0        0.0       0.00       43.0       0.00       0.10        0.0
9:10              174        0.0         67       24.0      189.4       24.0       25.4       17.5     1013.7       24.0       19.9        0.0        0.0        0.0       0.00       43.0       0.00       0.10        0.0
9:12              174        0.0         67       24.1      189.4       24.1       25.5       17.6     1013.6       24.1       19.9        0.0        0.0        0.0       0.00       43.0       0.00       0.10        0.0
9:14              174        0.0         67       24.2      189.4       24.2       25.6       17.7     1013.7       24.2       19.9        0.0        0.0        0.0       0.00       43.2       0.00       0.10        0.0
9:16              174        0.0         67       24.2      189.4       24.2       25.7       17.7     1013.7       24.3       19.9        0.0        0.0        0.0       0.00       43.3       0.00       0.13        0.0
9:18              174        0.0         66       24.3      189.4       24.3       25.7       17.6     1013.6       24.3       19.9        0.0        0.0        0.0       0.00       43.4       0.00       0.13        0.0
9:20              174        0.0         66       24.4      189.4       24.4       25.8       17.7     1013.7       24.4       19.9        0.0        0.0        0.0       0.00       43.6       0.00       0.13        0.0
9:22              174        0.0         66       24.6      189.4       24.6       26.0       17.8     1013.6       24.6       19.9        0.0        0.0        0.0       0.00       43.8       0.00       0.13        0.0
9:23              174        0.0         64       24.7      189.4       24.7       26.0       17.5     1013.6       24.7       19.9        0.0        0.0        0.0       0.00       44.1       0.00       0.13        0.0
9:26              174        0.0         63       24.8      189.4       24.8       26.0       17.3     1013.7       24.8       19.9        0.0        0.0        0.0       0.00       44.3       0.00       0.13        0.0
9:27              174        0.0         62       24.9      189.4       24.9       26.0       17.1     1013.7       24.9       19.9        0.0        0.0        0.0       0.00       44.5       0.00       0.13        0.0
9:30              175        0.0         62       24.9      189.4       24.9       26.1       17.2     1013.7       24.9       19.9        0.0        0.0        0.0       0.00       44.5       0.00       0.13        0.0
9:32              175        0.0         63       25.0      189.4       25.0       26.2       17.5     1013.6       25.0       19.9        0.0        0.0        0.0       0.00       44.5       0.00       0.16        0.0
9:34              175        0.0         63       25.1      189.4       25.1       26.3       17.6     1013.6       25.1       19.9        0.0        0.0        0.0       0.00       44.7       0.00       0.16        0.0
9:35              175        0.0         62       25.1      189.4       25.1       26.2       17.3     1013.6       25.1       19.9        0.0        0.0        0.0       0.00       44.8       0.00       0.16        0.0
9:38              175        0.0         62       25.2      189.4       25.2       26.3       17.4     1013.6       25.2       19.9        0.0        0.0        0.0       0.00       44.8       0.00       0.16        0.0
9:40              175        0.0         60       25.3      189.4       25.3       26.3       17.0     1013.6       25.3       19.9        0.0        0.0        0.0       0.00       45.1       0.00       0.16        0.0
9:42              175        0.0         59       25.3      189.4       25.3       26.3       16.8     1013.6       25.3       19.9        0.0        0.0        0.0       0.00       45.1       0.00       0.16        0.0
9:44              175        0.0         55       25.4      189.4       25.4       26.1       15.7     1013.7       25.4       19.9        0.0        0.0        0.0       0.00       45.3       0.00       0.16        0.0
9:46              175        0.0         53       25.4      189.4       25.4       26.0       15.1     1013.7       25.4       19.9        0.0        0.0        0.0       0.00       45.7       0.00       0.19        0.0
9:48              175        0.0         53       25.5      189.4       25.5       26.1       15.2     1013.7       25.5       19.9        0.0        0.0        0.0       0.00       45.9       0.00       0.19        0.0
9:50              175        0.0         54       25.6      189.4       25.6       26.2       15.6     1013.7       25.6       19.9        0.0        0.0        0.0       0.00       46.2       0.00       0.19        0.0
9:51              175        0.0         53       25.6      189.4       25.6       26.2       15.3     1013.7       25.6       19.9        0.0        0.0        0.0       0.00       46.5       0.00       0.19        0.0
9:53              175        0.0         53       25.7      189.4       25.7       26.3       15.4     1013.7       25.7       19.9        0.0        0.0        0.0       0.00       46.6       0.00       0.19        0.0
9:56              175        0.0         53       25.8      189.4       25.8       26.4       15.5     1013.7       25.8       19.9        0.0        0.0        0.0       0.00       46.9       0.00       0.19        0.0
9:57              175        0.0         53       25.9      189.4       25.9       26.6       15.6     1013.7       25.9       19.9        0.0        0.0        0.0       0.00       47.3       0.00       0.19        0.0
10:00             175        0.0         53       26.1      189.4       26.1       26.7       15.7     1013.8       26.1       19.9        0.0        0.0        0.0       0.00       47.8       0.00       0.19        0.0
10:02             175        0.0         53       26.2      189.4       26.2       26.8       15.9     1013.8       26.2       19.9        0.0        0.0        0.0       0.00       47.8       0.00       0.23        0.0
10:04             175        0.0         53       26.4      189.4       26.4       27.1       16.1     1013.8       26.4       19.9        0.0        0.0        0.0       0.00       47.9       0.00       0.23        0.0
10:06             175        0.0         53       26.6      189.4       26.6       27.2       16.3     1013.8       26.6       19.9        0.0        0.0        0.0       0.00       48.0       0.00       0.23        0.0
10:08             175        0.0         52       26.8      189.4       26.8       27.4       16.2     1013.8       26.8       19.9        0.0        0.0        0.0       0.00       48.1       0.00       0.23        0.0
10:10             175        0.0         50       27.1      189.4       27.1       27.5       15.8     1013.8       27.1       19.9        0.0        0.0        0.0       0.00       48.7       0.00       0.23        0.0
10:12             175        0.0         50       27.1      189.4       27.1       27.5       15.8     1013.8       27.1       19.9        0.0        0.0        0.0       0.00       49.2       0.00       0.23        0.0
10:14             175        0.0         50       27.2      189.4       27.2       27.6       15.9     1013.8       27.2       19.9        0.0        0.0        0.0       0.00       49.5       0.00       0.23        0.0
10:15             175        0.0         50       27.3      189.4       27.3       27.7       16.0     1013.8       27.3       19.9        0.0        0.0        0.0       0.00       49.7       0.00       0.29        0.0
10:18             175        0.0         50       27.3      189.4       27.3       27.7       16.0     1013.8       27.3       19.9        0.0        0.0        0.0       0.00       50.3       0.00       0.29        0.0
10:20             175        0.0         49       27.3      189.4       27.3       27.6       15.6     1013.8       27.3       19.9        0.0        0.0        0.0       0.00       50.7       0.00       0.29        0.0
10:22             175        0.0         49       27.3      189.4       27.3       27.6       15.6     1013.8       27.3       19.9        0.0        0.0        0.0       0.00       51.1       0.00       0.29        0.0
10:23             175        0.0         49       27.3      189.4       27.3       27.7       15.7     1013.7       27.3       19.9        0.0        0.0        0.0       0.00       51.2       0.00       0.29        0.0
10:26             175        0.0         50       27.4      189.4       27.4       27.9       16.1     1013.7       27.4       19.9        0.0        0.0        0.0       0.00       51.5       0.00       0.29        0.0
10:28             175        0.0         49       27.6      189.4       27.6       27.9       15.9     1013.7       27.6       19.9        0.0        0.0        0.0       0.00       51.9       0.00       0.29        0.0
10:30             175        0.0         46       27.7      189.4       27.7       27.8       15.0     1013.7       27.7       19.9        0.0        0.0        0.0       0.00       52.5       0.00       0.29        0.0
10:32             175        0.0         46       27.7      189.4       27.7       27.8       15.1     1013.6       27.7       19.9        0.0        0.0        0.0       0.00       53.0       0.00       0.35        0.0
10:34             175        0.0         45       27.7      189.4       27.7       27.8       14.7     1013.6       27.7       19.9        0.0        0.0        0.0       0.00       53.6       0.00       0.35        0.0
10:36             175        0.0         44       27.7      189.4       27.7       27.7       14.4     1013.6       27.7       19.9        0.0        0.0        0.0       0.00       54.1       0.00       0.35        0.0
10:38             175        0.0         44       27.8      189.4       27.8       27.7       14.4     1013.6       27.8       19.9        0.0        0.0        0.0       0.00       54.5       0.00       0.35        0.0
10:40             175        0.0         44       27.9      189.4       27.9       27.8       14.5     1013.6       27.9       19.9        0.0        0.0        0.0       0.00       54.9       0.00       0.35        0.0
10:42             175        0.0         44       27.9      189.4       27.9       27.9       14.6     1013.6       27.9       19.9        0.0        0.0        0.0       0.00       55.3       0.00       0.35        0.0
10:44             175        0.0         44       28.0      189.4       28.0       28.0       14.6     1013.6       28.0       19.9        0.0        0.0        0.0       0.00       55.6       0.00       0.35        0.0
10:46             175        0.0         42       28.1      189.4       28.1       27.9       14.0     1013.6       28.1       19.9        0.0        0.0        0.0       0.00       55.7       0.00       0.41        0.0
10:48             175        0.0         44       28.2      189.4       28.2       28.1       14.8     1013.6       28.2       19.9        0.0        0.0        0.0       0.00       55.9       0.00       0.41        0.0
10:50             175        0.0         45       28.3      189.4       28.3       28.4       15.3     1013.7       28.3       19.9        0.0        0.0        0.0       0.00       56.3       0.00       0.41        0.0
10:52             175        0.0         45       28.5      189.4       28.5       28.5       15.4     1013.7       28.5       19.9        0.0        0.0        0.0       0.00       57.1       0.00       0.41        0.0
10:54             175        0.0         45       28.6      189.4       28.6       28.7       15.5     1013.7       28.6       19.9        0.0        0.0        0.0       0.00       57.5       0.00       0.41        0.0
10:56             175        0.0         44       28.8      189.4       28.8       28.7       15.3     1013.7       28.8       19.9        0.0        0.0        0.0       0.00       58.1       0.00       0.41        0.0
10:58             175        0.0         45       28.9      189.4       28.9       29.0       15.8     1013.7       28.9       19.9        0.0        0.0        0.0       0.00       58.4       0.00       0.41        0.0
11:00             175        0.0         45       28.9      189.4       28.9       29.0       15.8     1013.6       28.9       19.9        0.0        0.0        0.0       0.00       58.6       0.00       0.41        0.0
11:02             175        0.0         44       29.1      189.4       29.1       29.1       15.6     1013.7       29.1       19.9        0.0        0.0        0.0       0.00       59.4       0.00       0.48        0.0
11:04             175        0.0         44       29.2      189.4       29.2       29.2       15.7     1013.6       29.2       19.9        0.0        0.0        0.0       0.00       59.9       0.00       0.48        0.0
11:06             175        0.0         44       29.3      189.4       29.3       29.4       15.8     1013.6       29.3       19.9        0.0        0.0        0.0       0.00       60.5       0.00       0.48        0.0
11:08             175        0.0         44       29.5      189.4       29.5       29.6       16.0     1013.5       29.5       19.9        0.0        0.0        0.0       0.00       61.1       0.00       0.48        0.0
11:10             175        0.0         44       29.7      189.4       29.7       29.8       16.2     1013.6       29.7       19.9        0.0        0.0        0.0       0.00       61.4       0.00       0.48        0.0
11:12             175        0.0         44       29.8      189.4       29.8       30.0       16.3     1013.5       29.8       19.9        0.0        0.0        0.0       0.00       62.3       0.00       0.48        0.0
11:14             175        0.0         43       30.0      189.4       30.0       30.1       16.1     1013.6       30.0       19.9        0.0        0.0        0.0       0.00       63.6       0.00       0.48        0.0
11:16             175        0.0         44       30.1      189.4       30.1       30.3       16.5     1013.5       30.1       19.9        0.0        0.0        0.0       0.00       64.6       0.00       0.57        0.0
11:18             175        0.0         43       30.2      189.4       30.2       30.3       16.2     1013.5       30.2       19.9        0.0        0.0        0.0       0.00       65.6       0.00       0.57        0.0
11:20             175        0.0         43       30.2      189.4       30.2       30.3       16.2     1013.4       30.2       19.9        0.0        0.0        0.0       0.00       66.1       0.00       0.57        0.0
11:21             175        0.0         43       30.2      189.4       30.2       30.3       16.3     1013.4       30.2       19.9        0.0        0.0        0.0       0.00       66.2       0.00       0.57        0.0
11:24             175        0.0         43       30.2      189.4       30.2       30.3       16.3     1013.4       30.3       19.9        0.0        0.0        0.0       0.00       66.4       0.00       0.57        0.0
11:26             175        0.0         43       30.3      189.4       30.3       30.4       16.3     1013.4       30.3       19.9        0.0        0.0        0.0       0.00       66.6       0.00       0.57        0.0
11:28             175        0.0         43       30.3      189.4       30.3       30.5       16.4     1013.4       30.3       19.9        0.0        0.0        0.0       0.00       67.9       0.00       0.57        0.0
11:30             175        0.0         43       30.3      189.4       30.3       30.4       16.3     1013.5       30.3       19.9        0.0        0.0        0.0       0.00       69.0       0.00       0.57        0.0
11:32             175        0.0         43       30.3      189.4       30.3       30.4       16.3     1013.4       30.3       19.9        0.0        0.0        0.0       0.00       70.1       0.00       0.65        0.0
11:33             175        0.0         43       30.3      189.4       30.3       30.4       16.3     1013.3       30.3       19.9        0.0        0.0        0.0       0.00       70.7       0.00       0.65        0.0
11:35             175        0.0         44       30.3      189.4       30.3       30.6       16.7     1013.4       30.3       19.9        0.0        0.0        0.0       0.00       71.5       0.00       0.65        0.0
11:38             175        0.0         43       30.4      189.4       30.4       30.5       16.4     1013.4       30.4       19.9        0.0        0.0        0.0       0.00       72.6       0.00       0.65        0.0
11:39             175        0.0         43       30.4      189.4       30.4       30.5       16.4     1013.3       30.4       19.9        0.0        0.0        0.0       0.00       73.8       0.00       0.65        0.0
11:42             175        0.0         43       30.3      189.4       30.3       30.4       16.3     1013.3       30.4       19.9        0.0        0.0        0.0       0.00       74.7       0.00       0.65        0.0
11:44             175        0.0         43       30.3      189.4       30.3       30.4       16.3     1013.4       30.4       19.9        0.0        0.0        0.0       0.00       75.5       0.00       0.65        0.0
11:46             175        0.0         44       30.2      189.4       30.2       30.5       16.6     1013.2       30.4       19.9        0.0        0.0        0.0       0.00       76.0       0.00       0.74        0.0
11:48             175        0.0         44       30.3      189.4       30.3       30.5       16.7     1013.2       30.4       19.9        0.0        0.0        0.0       0.00       76.5       0.00       0.74        0.0
11:50             175        0.0         44       30.3      189.4       30.3       30.5       16.7     1013.1       30.4       19.9        0.0        0.0        0.0       0.00       77.0       0.00       0.74        0.0
11:51             175        0.0         44       30.3      189.4       30.3       30.5       16.7     1013.3       30.4       19.9        0.0        0.0        0.0       0.00       77.6       0.00       0.74        0.0
11:54             175        0.0         44       30.2      189.4       30.2       30.5       16.6     1013.1       30.4       19.9        0.0        0.0        0.0       0.00       78.0       0.00       0.74        0.0
11:56             175        0.0         45       30.2      189.4       30.2       30.5       16.9     1013.0       30.4       19.9        0.0        0.0        0.0       0.00       78.5       0.00       0.74        0.0
11:58             175        0.0         45       30.1      189.4       30.1       30.5       16.9     1013.0       30.4       19.9        0.0        0.0        0.0       0.00       79.2       0.00       0.74        0.0
12:00             175        0.0         45       30.1      189.4       30.1       30.5       16.9     1012.9       30.4       19.9        0.0        0.0        0.0       0.00       80.1       0.00       0.74        0.0
12:02             175        0.0         45       30.2      189.4       30.2       30.5       16.9     1013.0       30.4       19.9        0.0        0.0        0.0       0.00       80.8       0.00       0.82        0.0
12:04             175        0.0         46       30.2      189.4       30.2       30.8       17.3     1012.9       30.4       19.9        0.0        0.0        0.0       0.00       81.0       0.00       0.82        0.0
12:06             175        0.0         46       30.3      189.4       30.3       30.8       17.4     1012.9       30.4       19.9        0.0        0.0        0.0       0.00       81.2       0.00       0.82        0.0
12:08             175        0.0         45       30.4      189.4       30.4       30.8       17.1     1012.8       30.4       19.9        0.0        0.0        0.0       0.00       81.5       0.00       0.82        0.0
12:10             175        0.0         45       30.5      189.4       30.5       31.0       17.2     1012.9       30.5       19.9        0.0        0.0        0.0       0.00       82.4       0.00       0.82        0.0
12:12             175        0.0         45       30.6      189.4       30.6       31.1       17.3     1012.8       30.6       19.9        0.0        0.0        0.0       0.00       83.1       0.00       0.82        0.0
12:14             175        0.0         45       30.8      189.4       30.8       31.4       17.5     1012.8       30.8       19.9        0.0        0.0        0.0       0.00       83.9       0.00       0.82        0.0
12:16             175        0.0         44       30.9      189.4       30.9       31.5       17.3     1012.7       30.9       19.9        0.0        0.0        0.0       0.00       84.7       0.00       0.92        0.0
12:17             175        0.0         44       31.1      189.4       31.1       31.6       17.4     1012.8       31.1       19.9        0.0        0.0        0.0       0.00       85.5       0.00       0.92        0.0
12:20             175        0.0         44       31.2      189.4       31.2       31.8       17.5     1012.8       31.2       19.9        0.0        0.0        0.0       0.00       85.8       0.00       0.92        0.0
12:22             175        0.0         44       31.3      189.4       31.3       31.9       17.6     1012.7       31.3       19.9        0.0        0.0        0.0       0.00       86.3       0.00       0.92        0.0
12:23             175        0.0         44       31.3      189.4       31.3       31.9       17.6     1012.7       31.3       19.9        0.0        0.0        0.0       0.00       86.8       0.00       0.92        0.0
12:26             175        0.0         44       31.3      189.4       31.3       32.0       17.6     1012.7       31.3       19.9        0.0        0.0        0.0       0.00       87.4       0.00       0.92        0.0
12:28             174        0.0         44       31.4      189.4       31.4       32.1       17.7     1012.7       31.4       19.9        0.0        0.0        0.0       0.00       88.3       0.00       0.92        0.0
12:30             174        0.0         44       31.5      189.4       31.5       32.3       17.8     1012.7       31.5       19.9        0.0        0.0        0.0       0.00       89.2       0.00       0.92        0.0
12:32             175        0.0         43       31.6      189.4       31.6       32.2       17.5     1012.7       31.6       19.9        0.0        0.0        0.0       0.00       90.0       0.00       1.02        0.0
12:34             174        0.0         43       31.7      189.4       31.7       32.3       17.6     1012.7       31.7       19.9        0.0        0.0        0.0       0.00       90.6       0.00       1.02        0.0
12:36             176        0.0         43       31.8      189.4       31.8       32.5       17.7     1012.7       31.8       19.9        0.0        0.0        0.0       0.00       91.5       0.00       1.02        0.0
12:38             175        0.0         43       31.9      189.4       31.9       32.7       17.8     1012.7       31.9       19.9        0.0        0.0        0.0       0.00       92.6       0.00       1.02        0.0
12:40             176        0.0         43       32.0      189.4       32.0       32.8       17.9     1012.7       32.0       19.9        0.0        0.0        0.0       0.00       93.7       0.00       1.02        0.0
12:41             176        0.0         43       32.1      189.4       32.1       32.9       17.9     1012.7       32.1       19.9        0.0        0.0        0.0       0.00       94.6       0.00       1.02        0.0
12:44             176        0.0         43       32.2      189.4       32.2       33.1       18.0     1012.7       32.2       19.9        0.0        0.0        0.0       0.00       95.3       0.00       1.02        0.0
12:46             176        0.0         42       32.2      189.4       32.2       32.9       17.6     1012.7       32.2       19.9        0.0        0.0        0.0       0.00       95.9       0.00       1.12        0.0
12:48             176        0.0         42       32.2      189.4       32.2       32.9       17.6     1012.6       32.2       19.9        0.0        0.0        0.0       0.00       96.3       0.00       1.12        0.0
12:50             176        0.0         43       32.2      189.4       32.2       33.2       18.1     1012.6       32.2       19.9        0.0        0.0        0.0       0.00       97.2       0.00       1.12        0.0
12:52             176        0.0         43       32.3      189.4       32.3       33.3       18.1     1012.7       32.3       19.9        0.0        0.0        0.0       0.00       97.6       0.00       1.12        0.0
12:54             176        0.0         43       32.3      189.4       32.3       33.4       18.2     1012.6       32.3       19.9        0.0        0.0        0.0       0.00       97.8       0.00       1.12        0.0
12:56             176        0.0         42       32.5      189.4       32.5       33.4       17.9     1012.5       32.5       19.9        0.0        0.0        0.0       0.00       98.1       0.00       1.12        0.0
12:58             177        0.0         41       32.6      189.4       32.6       33.4       17.7     1012.5       32.6       19.9        0.0        0.0        0.0       0.00       98.9       0.00       1.12        0.0
13:00             176        0.0         41       32.7      189.4       32.7       33.6       17.8     1012.4       32.7       19.9        0.0        0.0        0.0       0.00       99.4       0.00       1.12        0.0
13:02             177        0.0         42       32.8      189.4       32.8       33.9       18.2     1012.5       32.8       19.9        0.0        0.0        0.0       0.00      100.4       0.00       1.23        0.0
13:04             177        0.0         41       32.8      189.4       32.8       33.7       17.9     1012.4       32.8       19.9        0.0        0.0        0.0       0.00      101.2       0.00       1.23        0.0
13:06             177        0.0         41       32.9      189.4       32.9       33.8       17.9     1012.4       32.9       19.9        0.0        0.0        0.0       0.00      101.8       0.00       1.23        0.0
13:08             177        0.0         41       32.8      189.4       32.8       33.7       17.9     1012.3       32.9       19.9        0.0        0.0        0.0       0.00      102.5       0.00       1.23        0.0
13:10             177        0.0         41       32.8      189.4       32.8       33.7       17.9     1012.3       32.9       19.9        0.0        0.0        0.0       0.00      103.4       0.00       1.23        0.0
13:12             177        0.0         41       32.9      189.4       32.9       33.8       17.9     1012.3       32.9       19.9        0.0        0.0        0.0       0.00      104.4       0.00       1.23        0.0
13:14             177        0.0         41       32.9      189.4       32.9       33.8       17.9     1012.2       32.9       19.9        0.0        0.0        0.0       0.00      105.0       0.00       1.23        0.0
13:16             178        0.0         40       33.0      189.4       33.0       33.8       17.6     1012.0       33.0       19.9        0.0        0.0        0.0       0.00      106.0       0.00       1.35        0.0
13:18             178        0.0         40       33.1      189.4       33.1       33.9       17.7     1012.1       33.1       19.9        0.0        0.0        0.0       0.00      107.1       0.00       1.35        0.0
13:20             177        0.0         41       33.1      189.4       33.1       34.1       18.1     1012.1       33.1       19.9        0.0        0.0        0.0       0.00      108.0       0.00       1.35        0.0
13:22             175        0.0         41       33.1      189.4       33.1       34.2       18.1     1012.0       33.1       19.9        0.0        0.0        0.0       0.00      109.4       0.00       1.35        0.0
13:24             175        0.0         41       33.2      189.4       33.2       34.3       18.2     1011.9       33.2       19.9        0.0        0.0        0.0       0.00      110.4       0.00       1.35        0.0
13:25             175        0.0         41       33.3      189.4       33.3       34.5       18.3     1012.0       33.3       19.9        0.0        0.0        0.0       0.00      111.4       0.00       1.35        0.0
13:28             175        0.0         41       33.3      189.4       33.3       34.5       18.3     1012.0       33.3       19.9        0.0        0.0        0.0       0.00      112.3       0.00       1.35        0.0
13:30             177        0.0         41       33.3      189.4       33.3       34.5       18.3     1011.9       33.3       19.9        0.0        0.0        0.0       0.00      113.2       0.00       1.35        0.0
13:32             177        0.0         41       33.3      189.4       33.3       34.5       18.3     1011.9       33.3       19.9        0.0        0.0        0.0       0.00      114.3       0.00       1.47        0.0
13:33             177        0.0         41       33.3      189.4       33.3       34.5       18.3     1011.9       33.3       19.9        0.0        0.0        0.0       0.00      114.6       0.00       1.47        0.0
13:36             177        0.0         41       33.3      189.4       33.3       34.5       18.3     1011.9       33.3       19.9        0.0        0.0        0.0       0.00      115.0       0.00       1.47        0.0
13:38             177        0.0         42       33.3      189.4       33.3       34.8       18.7     1011.9       33.3       19.9        0.0        0.0        0.0       0.00      115.9       0.00       1.47        0.0
13:40             177        0.0         41       33.4      189.4       33.4       34.6       18.4     1011.9       33.4       19.9        0.0        0.0        0.0       0.00      116.8       0.00       1.47        0.0
13:42             177        0.0         41       33.3      189.4       33.3       34.5       18.3     1011.9       33.4       19.9        0.0        0.0        0.0       0.00      117.4       0.00       1.47        0.0
13:44             176        0.0         41       33.4      189.4       33.4       34.6       18.4     1011.9       33.4       19.9        0.0        0.0        0.0       0.00      118.3       0.00       1.47        0.0
13:46             176        0.0         41       33.5      189.4       33.5       34.8       18.5     1011.9       33.5       19.9        0.0        0.0        0.0       0.00      119.1       0.00       1.58        0.0
13:48             176        0.0         41       33.6      189.4       33.6       35.0       18.6     1011.9       33.6       19.9        0.0        0.0        0.0       0.00      120.0       0.00       1.58        0.0
13:50             176        0.0         41       33.7      189.4       33.7       35.2       18.7     1011.8       33.7       19.9        0.0        0.0        0.0       0.00      121.1       0.00       1.58        0.0
13:52             177        0.0         40       33.8      189.4       33.8       35.1       18.4     1011.8       33.8       19.9        0.0        0.0        0.0       0.00      122.3       0.00       1.58        0.0
13:54             178        0.0         40       33.9      189.4       33.9       35.3       18.5     1011.8       33.9       19.9        0.0        0.0        0.0       0.00      123.2       0.00       1.58        0.0
13:56             178        0.0         40       33.9      189.4       33.9       35.3       18.5     1011.7       33.9       19.9        0.0        0.0        0.0       0.00      124.0       0.00       1.58        0.0
13:58             178        0.0         40       33.9      189.4       33.9       35.3       18.5     1011.7       33.9       19.9        0.0        0.0        0.0       0.00      124.9       0.00       1.58        0.0
14:00             178        0.0         40       33.9      189.4       33.9       35.3       18.5     1011.7       33.9       19.9        0.0        0.0        0.0       0.00      125.7       0.00       1.58        0.0
14:02             178        0.0         40       34.0      189.4       34.0       35.4       18.5     1011.7       34.0       19.9        0.0        0.0        0.0       0.00      126.2       0.00       1.71        0.0
14:04             178        0.0         40       34.1      189.4       34.1       35.5       18.6     1011.7       34.1       19.9        0.0        0.0        0.0       0.00      126.9       0.00       1.71        0.0
14:06             178        0.0         40       34.2      189.4       34.2       35.8       18.7     1011.6       34.2       19.9        0.0        0.0        0.0       0.00      127.4       0.00       1.71        0.0
14:08             177        0.0         39       34.4      189.4       34.4       35.8       18.4     1011.5       34.4       19.9        0.0        0.0        0.0       0.00      127.9       0.00       1.71        0.0
14:10             177        0.0         38       34.5      189.4       34.5       35.8       18.1     1011.5       34.5       19.9        0.0        0.0        0.0       0.00      128.6       0.00       1.71        0.0
14:12             178        0.0         38       34.6      189.4       34.6       36.0       18.2     1011.5       34.6       19.9        0.0        0.0        0.0       0.00      129.5       0.00       1.71        0.0
14:14             177        0.0         38       34.7      189.4       34.7       36.1       18.3     1011.5       34.7       19.9        0.0        0.0        0.0       0.00      130.1       0.00       1.71        0.0
14:16             177        0.0         37       34.7      189.4       34.7       35.9       17.9     1011.5       34.7       19.9        0.0        0.0        0.0       0.00      130.5       0.00       1.84        0.0
14:18             177        0.0         37       34.8      189.4       34.8       36.0       18.0     1011.4       34.8       19.9        0.0        0.0        0.0       0.00      131.2       0.00       1.84        0.0
14:20             178        0.0         37       34.8      189.4       34.8       36.1       18.0     1011.5       34.8       19.9        0.0        0.0        0.0       0.00      132.0       0.00       1.84        0.0
14:22             178        0.0         37       34.8      189.4       34.8       36.0       18.0     1011.4       34.8       19.9        0.0        0.0        0.0       0.00      132.7       0.00       1.84        0.0
14:24             178        0.0         36       34.7      189.4       34.7       35.5       17.4     1011.4       34.8       19.9        0.0        0.0        0.0       0.00      133.5       0.00       1.84        0.0
14:26             178        0.0         36       34.5      189.4       34.5       35.3       17.3     1011.4       34.8       19.9        0.0        0.0        0.0       0.00      134.3       0.00       1.84        0.0
14:28             178        0.0         36       34.4      189.4       34.4       35.2       17.2     1011.4       34.8       19.9        0.0        0.0        0.0       0.00      135.1       0.00       1.84        0.0
14:29             178        0.0         35       34.5      189.4       34.5       35.0       16.8     1011.4       34.8       19.9        0.0        0.0        0.0       0.00      136.1       0.00       1.84        0.0
14:32             178        0.0         36       34.6      189.4       34.6       35.4       17.3     1011.4       34.8       19.9        0.0        0.0        0.0       0.00      136.8       0.00       1.97        0.0
14:34             178        0.0         36       34.7      189.4       34.7       35.5       17.4     1011.3       34.8       19.9        0.0        0.0        0.0       0.00      137.5       0.00       1.97        0.0
14:36             178        0.0         36       34.7      189.4       34.7       35.6       17.5     1011.3       34.8       19.9        0.0        0.0        0.0       0.00      138.2       0.00       1.97        0.0
14:38             178        0.0         36       34.8      189.4       34.8       35.8       17.6     1011.3       34.8       19.9        0.0        0.0        0.0       0.00      138.6       0.00       1.97        0.0
14:40             178        0.0         36       34.9      189.4       34.9       36.0       17.7     1011.2       34.9       19.9        0.0        0.0        0.0       0.00      139.0       0.00       1.97        0.0
14:41             178        0.0         36       35.0      189.4       35.0       36.1       17.7     1011.2       35.0       19.9        0.0        0.0        0.0       0.00      140.0       0.00       1.97        0.0
14:44             178        0.0         36       35.1      189.4       35.1       36.3       17.8     1011.2       35.1       19.9        0.0        0.0        0.0       0.00      140.5       0.00       1.97        0.0
14:46             178        0.0         36       35.2      189.4       35.2       36.4       17.9     1011.0       35.2       19.9        0.0        0.0        0.0       0.00      141.0       0.00       2.11        0.0
14:48             179        0.0         38       35.2      189.4       35.2       37.0       18.8     1011.2       35.2       19.9        0.0        0.0        0.0       0.00      141.9       0.00       2.11        0.0
14:50             182        0.0         39       35.2      189.4       35.2       37.3       19.2     1011.2       35.3       19.9        0.0        0.0        0.0       0.00      143.4       0.00       2.11        0.0
14:52             182        0.0         40       35.2      189.4       35.2       37.5       19.5     1011.2       35.3       19.9        0.0        0.0        0.0       0.00      144.6       0.00       2.11        0.0
14:54             182        0.0         41       35.1      189.4       35.1       37.7       19.9     1011.1       35.3       19.9        0.0        0.0        0.0       0.00      145.6       0.00       2.11        0.0
14:56             182        0.0         41       35.1      189.4       35.1       37.6       19.8     1011.0       35.3       19.9        0.0        0.0        0.0       0.00      146.4       0.00       2.11        0.0
14:58             182        0.0         42       35.1      189.4       35.1       37.9       20.2     1011.1       35.3       19.9        0.0        0.0        0.0       0.00      146.7       0.00       2.11        0.0
15:00             182        0.0         42       34.9      189.4       34.9       37.7       20.1     1011.0       35.3       19.9        0.0        0.0        0.0       0.00      147.1       0.00       2.11        0.0
15:02             182        0.0         42       34.9      189.4       34.9       37.6       20.1     1010.9       35.3       19.9        0.0        0.0        0.0       0.00      147.6       0.00       2.24        0.0
15:04             182        0.0         42       34.8      189.4       34.8       37.4       20.0     1011.0       35.3       19.9        0.0        0.0        0.0       0.00      148.3       0.00       2.24        0.0
15:06             182        0.0         43       34.7      189.4       34.7       37.6       20.3     1010.9       35.3       19.9        0.0        0.0        0.0       0.00      149.0       0.00       2.24        0.0
15:08             179        0.0         44       34.7      189.4       34.7       37.9       20.7     1010.9       35.3       19.9        0.0        0.0        0.0       0.00      150.1       0.00       2.24        0.0
15:10             178        0.0         43       34.8      189.4       34.8       37.8       20.4     1010.8       35.3       19.9        0.0        0.0        0.0       0.00      151.3       0.00       2.24        0.0
15:12             181        0.0         44       34.9      189.4       34.9       38.3       20.8     1010.8       35.3       19.9        0.0        0.0        0.0       0.00      153.1       0.00       2.24        0.0
15:14             184        0.0         43       34.9      189.4       34.9       37.9       20.5     1010.9       35.3       19.9        0.0        0.0        0.0       0.00      154.6       0.00       2.24        0.0
15:16             184        0.0         44       34.8      189.4       34.8       38.1       20.8     1010.9       35.3       19.9        0.0        0.0        0.0       0.00      155.8       0.00       2.38        0.0
15:18             184        0.0         44       34.8      189.4       34.8       38.0       20.7     1010.8       35.3       19.9        0.0        0.0        0.0       0.00      156.4       0.00       2.38        0.0
15:20             184        0.0         44       34.8      189.4       34.8       38.0       20.7     1010.8       35.3       19.9        0.0        0.0        0.0       0.00      157.0       0.00       2.38        0.0
15:22             184        0.0         44       34.8      189.4       34.8       38.1       20.8     1010.8       35.3       19.9        0.0        0.0        0.0       0.00      157.5       0.00       2.38        0.0
15:24             175        0.0         44       34.8      189.4       34.8       38.1       20.8     1010.8       35.3       19.9        0.0        0.0        0.0       0.00      158.8       0.00       2.38        0.0
15:26             190        0.0         44       34.8      189.4       34.8       38.1       20.8     1010.9       35.3       19.9        0.0        0.0        0.0       0.00      159.3       0.00       2.38        0.0
15:28             171        0.0         44       34.7      189.4       34.7       37.9       20.7     1010.8       35.3       19.9        0.0        0.0        0.0       0.00      160.0       0.00       2.38        0.0
15:30             178        0.0         44       34.7      189.4       34.7       37.9       20.7     1010.8       35.3       19.9        0.0        0.0        0.0       0.00      160.7       0.00       2.38        0.0
15:32             179        0.0         44       34.7      189.4       34.7       37.8       20.6     1010.8       35.3       19.9        0.0        0.0        0.0       0.00      161.1       0.00       2.51        0.0
15:34             189        0.0         44       34.7      189.4       34.7       37.8       20.6     1010.7       35.3       19.9        0.0        0.0        0.0       0.00      161.6       0.00       2.51        0.0
15:36             190        0.0         44       34.6      189.4       34.6       37.7       20.6     1010.8       35.3       19.9        0.0        0.0        0.0       0.00      162.0       0.00       2.51        0.0
15:37             190        0.0         44       34.6      189.4       34.6       37.6       20.5     1010.7       35.3       19.9        0.0        0.0        0.0       0.00      162.5       0.00       2.51        0.0
15:40             190        0.0         44       34.6      189.4       34.6       37.6       20.5     1010.6       35.3       19.9        0.0        0.0        0.0       0.00      163.3       0.00       2.51        0.0
15:42             190        0.0         45       34.6      189.4       34.6       38.0       21.0     1010.7       35.3       19.9        0.0        0.0        0.0       0.00      163.7       0.00       2.51        0.0
15:44             190        0.0         45       34.7      189.4       34.7       38.1       21.0     1010.7       35.3       19.9        0.0        0.0        0.0       0.00      164.4       0.00       2.51        0.0
15:46             190        0.0         45       34.7      189.4       34.7       38.3       21.1     1010.6       35.3       19.9        0.0        0.0        0.0       0.00      165.3       0.00       2.64        0.0
15:48             190        0.0         45       34.8      189.4       34.8       38.5       21.2     1010.7       35.3       19.9        0.0        0.0        0.0       0.00      166.1       0.00       2.64        0.0
15:50             190        0.0         45       34.9      189.4       34.9       38.6       21.2     1010.7       35.3       19.9        0.0        0.0        0.0       0.00      166.9       0.00       2.64        0.0
15:52             190        0.0         45       34.9      189.4       34.9       38.6       21.2     1010.7       35.3       19.9        0.0        0.0        0.0       0.00      167.3       0.00       2.64        0.0
15:54             194        0.0         45       35.0      189.4       35.0       38.8       21.3     1010.6       35.3       19.9        0.0        0.0        0.0       0.00      168.0       0.00       2.64        0.0
15:56             202        0.0         44       35.0      189.4       35.0       38.5       20.9     1010.6       35.3       19.9        0.0        0.0        0.0       0.00      168.6       0.00       2.64        0.0
15:58             202        0.0         44       35.0      189.4       35.0       38.5       20.9     1010.7       35.3       19.9        0.0        0.0        0.0       0.00      169.4       0.00       2.64        0.0
16:00             202        0.0         44       35.0      189.4       35.0       38.5       20.9     1010.7       35.3       19.9        0.0        0.0        0.0       0.00      169.9       0.00       2.64        0.0
16:02             202        0.0         44       35.1      189.4       35.1       38.6       21.0     1010.7       35.3       19.9        0.0        0.0        0.0       0.00      170.4       0.00       2.78        0.0
16:04             202        0.0         44       35.1      189.4       35.1       38.7       21.0     1010.6       35.3       19.9        0.0        0.0        0.0       0.00      171.1       0.00       2.78        0.0
16:06             200        0.0         44       35.2      189.4       35.2       38.8       21.1     1010.5       35.3       19.9        0.0        0.0        0.0       0.00      171.6       0.00       2.78        0.0
16:08             205        0.0         44       35.2      189.4       35.2       38.9       21.1     1010.6       35.3       19.9        0.0        0.0        0.0       0.00      172.6       0.00       2.78        0.0
16:10             181        0.0         44       35.2      189.4       35.2       38.9       21.1     1010.5       35.3       19.9        0.0        0.0        0.0       0.00      173.5       0.00       2.78        0.0
16:12             198        0.0         44       35.2      189.4       35.2       38.9       21.1     1010.6       35.3       19.9        0.0        0.0        0.0       0.00      174.1       0.00       2.78        0.0
16:14             159        0.0         44       35.1      189.4       35.1       38.7       21.0     1010.6       35.3       19.9        0.0        0.0        0.0       0.00      175.0       0.00       2.78        0.0
16:16             196        0.0         44       35.1      189.4       35.1       38.6       21.0     1010.6       35.3       19.9        0.0        0.0        0.0       0.00      175.9       0.00       2.91        0.0
16:18             200        0.0         44       35.0      189.4       35.0       38.5       20.9     1010.6       35.3       19.9        0.0        0.0        0.0       0.00      176.6       0.00       2.91        0.0
16:20             169        0.0         44       35.0      189.4       35.0       38.5       20.9     1010.6       35.3       19.9        0.0        0.0        0.0       0.00      177.1       0.00       2.91        0.0
16:22             184        0.0         44       35.1      189.4       35.1       38.6       21.0     1010.6       35.3       19.9        0.0        0.0        0.0       0.00      177.8       0.00       2.91        0.0
16:24             196        0.0         44       35.1      189.4       35.1       38.7       21.0     1010.5       35.3       19.9        0.0        0.0        0.0       0.00      178.7       0.00       2.91        0.0
16:26             200        0.0         44       35.1      189.4       35.1       38.7       21.0     1010.5       35.3       19.9        0.0        0.0        0.0       0.00      179.7       0.00       2.91        0.0
16:28             213        0.0         44       35.1      189.4       35.1       38.6       21.0     1010.5       35.3       19.9        0.0        0.0        0.0       0.00      180.6       0.00       2.91        0.0
16:30             222        0.0         44       34.9      189.4       34.9       38.4       20.9     1010.5       35.3       19.9        0.0        0.0        0.0       0.00      181.5       0.00       2.91        0.0
16:32             204        0.0         45       34.9      189.4       34.9       38.6       21.2     1010.6       35.3       19.9        0.0        0.0        0.0       0.00      182.2       0.00       3.05        0.0
16:34             197        0.0         45       34.8      189.4       34.8       38.5       21.2     1010.5       35.3       19.9        0.0        0.0        0.0       0.00      182.9       0.00       3.05        0.0
16:36             195        0.0         45       34.8      189.4       34.8       38.5       21.2     1010.6       35.3       19.9        0.0        0.0        0.0       0.00      183.9       0.00       3.05        0.0
16:38             199        0.0         45       34.8      189.4       34.8       38.5       21.2     1010.6       35.3       19.9        0.0        0.0        0.0       0.00      184.5       0.00       3.05        0.0
16:40             216        0.0         45       34.8      189.4       34.8       38.4       21.1     1010.5       35.3       19.9        0.0        0.0        0.0       0.00      185.6       0.00       3.05        0.0
16:42             220        0.0         45       34.7      189.4       34.7       38.1       21.0     1010.6       35.3       19.9        0.0        0.0        0.0       0.00      186.6       0.00       3.05        0.0
16:44             220        0.0         45       34.6      189.4       34.6       38.0       21.0     1010.5       35.3       19.9        0.0        0.0        0.0       0.00      187.3       0.00       3.05        0.0
16:46             220        0.0         46       34.6      189.4       34.6       38.4       21.3     1010.6       35.3       19.9        0.0        0.0        0.0       0.00      188.2       0.00       3.18        0.0
16:48             251        0.0         46       34.5      189.4       34.5       38.1       21.2     1010.5       35.3       19.9        0.0        0.0        0.0       0.00      189.4       0.00       3.18        0.0
16:50             251        0.0         46       34.3      189.4       34.3       37.8       21.1     1010.5       35.3       19.9        0.0        0.0        0.0       0.00      190.4       0.00       3.18        0.0
16:52             207        0.0         46       34.2      189.4       34.2       37.6       21.0     1010.7       35.3       19.9        0.0        0.0        0.0       0.00      191.5       0.00       3.18        0.0
16:54             205        0.0         46       34.2      189.4       34.2       37.4       20.9     1010.5       35.3       19.9        0.0        0.0        0.0       0.00      192.3       0.00       3.18        0.0
16:56             205        0.0         46       34.2      189.4       34.2       37.4       20.9     1010.5       35.3       19.9        0.0        0.0        0.0       0.00      193.1       0.00       3.18        0.0
16:58             207        0.0         46       34.2      189.4       34.2       37.4       20.9     1010.6       35.3       19.9        0.0        0.0        0.0       0.00      194.2       0.00       3.18        0.0
17:00             224        0.0         46       34.1      189.4       34.1       37.3       20.9     1010.5       35.3       19.9        0.0        0.0        0.0       0.00      195.5       0.00       3.18        0.0
17:02             209        0.0         47       34.1      189.4       34.1       37.5       21.2     1010.5       35.3       19.9        0.0        0.0        0.0       0.00      196.4       0.00       3.31        0.0
17:03             212        0.0         47       34.1      189.4       34.1       37.5       21.2     1010.4       35.3       19.9        0.0        0.0        0.0       0.00      197.2       0.00       3.31        0.0
17:06             216        0.0         47       34.0      189.4       34.0       37.4       21.1     1010.4       35.3       19.9        0.0        0.0        0.0       0.00      198.3       0.00       3.31        0.0
17:08             225        0.0         47       33.9      189.4       33.9       37.3       21.1     1010.4       35.3       19.9        0.0        0.0        0.0       0.00      199.0       0.00       3.31        0.0
17:10             213        0.0         47       33.9      189.4       33.9       37.2       21.0     1010.4       35.3       19.9        0.0        0.0        0.0       0.00      199.9       0.00       3.31        0.0
17:12             216        0.0         47       33.9      189.4       33.9       37.2       21.0     1010.4       35.3       19.9        0.0        0.0        0.0       0.00      200.9       0.00       3.31        0.0
17:14             218        0.0         48       33.8      189.4       33.8       37.3       21.2     1010.3       35.3       19.9        0.0        0.0        0.0       0.00      201.6       0.00       3.31        0.0
17:16             238        0.0         48       33.7      189.4       33.7       37.0       21.1     1010.5       35.3       19.9        0.0        0.0        0.0       0.00      203.0       0.00       3.43        0.0
17:18             207        0.0         48       33.5      189.4       33.5       36.7       21.0     1010.4       35.3       19.9        0.0        0.0        0.0       0.00      204.1       0.00       3.43        0.0
17:20             199        0.0         48       33.4      189.4       33.4       36.5       20.9     1010.4       35.3       19.9        0.0        0.0        0.0       0.00      205.2       0.00       3.43        0.0
17:22             228        0.0         49       33.3      189.4       33.3       36.7       21.2     1010.4       35.3       19.9        0.0        0.0        0.0       0.00      206.9       0.00       3.43        0.0
17:24             211        0.0         49       33.2      189.4       33.2       36.3       21.0     1010.4       35.3       19.9        0.0        0.0        0.0       0.00      207.8       0.00       3.43        0.0
17:26             214        0.0         49       33.1      189.4       33.1       36.2       21.0     1010.4       35.3       19.9        0.0        0.0        0.0       0.00      208.7       0.00       3.43        0.0
17:28             234        0.0         49       33.0      189.4       33.0       36.0       20.9     1010.4       35.3       19.9        0.0        0.0        0.0       0.00      210.2       0.00       3.43        0.0
17:30             246        0.0         50       32.9      189.4       32.9       36.1       21.1     1010.4       35.3       19.9        0.0        0.0        0.0       0.00      211.8       0.00       3.43        0.0
17:32             216        0.0         50       32.7      189.4       32.7       35.7       20.9     1010.5       35.3       19.9        0.0        0.0        0.0       0.00      213.1       0.00       3.54        0.0
17:34             235        0.0         51       32.6      189.4       32.6       35.7       21.1     1010.4       35.3       19.9        0.0        0.0        0.0       0.00      213.9       0.00       3.54        0.0
17:36             200        0.0         51       32.4      189.4       32.4       35.5       21.0     1010.5       35.3       19.9        0.0        0.0        0.0       0.00      214.6       0.00       3.54        0.0
17:38             213        0.0         51       32.3      189.4       32.3       35.2       20.9     1010.4       35.3       19.9        0.0        0.0        0.0       0.00      215.7       0.00       3.54        0.0
17:40             239        0.0         51       32.3      189.4       32.3       35.2       20.9     1010.4       35.3       19.9        0.0        0.0        0.0       0.00      216.6       0.00       3.54        0.0
17:42             224        0.0         51       32.2      189.4       32.2       35.0       20.8     1010.5       35.3       19.9        0.0        0.0        0.0       0.00      217.6       0.00       3.54        0.0
17:44             231        0.0         52       32.2      189.4       32.2       35.2       21.1     1010.4       35.3       19.9        0.0        0.0        0.0       0.00      218.8       0.00       3.54        0.0
17:46             205        0.0         52       32.1      189.4       32.1       35.0       21.0     1010.4       35.3       19.9        0.0        0.0        0.0       0.00      220.1       0.00       3.65        0.0
17:48             214        0.0         52       31.9      189.4       31.9       34.7       20.9     1010.5       35.3       19.9        0.0        0.0        0.0       0.00      221.5       0.00       3.65        0.0
17:50             237        0.0         52       31.9      189.4       31.9       34.6       20.8     1010.4       35.3       19.9        0.0        0.0        0.0       0.00      222.3       0.00       3.65        0.0
17:52             250        0.0         52       31.8      189.4       31.8       34.5       20.8     1010.4       35.3       19.9        0.0        0.0        0.0       0.00      223.2       0.00       3.65        0.0
17:54             246        0.0         53       31.8      189.4       31.8       34.7       21.0     1010.4       35.3       19.9        0.0        0.0        0.0       0.00      224.0       0.00       3.65        0.0
17:56             254        0.0         53       31.7      189.4       31.7       34.6       21.0     1010.4       35.3       19.9        0.0        0.0        0.0       0.00      224.7       0.00       3.65        0.0
17:58             221        0.0         53       31.7      189.4       31.7       34.5       20.9     1010.4       35.3       19.9        0.0        0.0        0.0       0.00      225.7       0.00       3.65        0.0
18:00             231        0.0         53       31.6      189.4       31.6       34.4       20.9     1010.5       35.3       19.9        0.0        0.0        0.0       0.00      226.5       0.00       3.65        0.0
18:02             209        0.0         53       31.6      189.4       31.6       34.3       20.8     1010.5       35.3       19.9        0.0        0.0        0.0       0.00      227.4       0.00       3.75        0.0
18:04             212        0.0         53       31.4      189.4       31.4       34.0       20.7     1010.5       35.3       19.9        0.0        0.0        0.0       0.00      228.3       0.00       3.75        0.0
18:06             244        0.0         53       31.3      189.4       31.3       33.8       20.6     1010.5       35.3       19.9        0.0        0.0        0.0       0.00      229.2       0.00       3.75        0.0
18:08             242        0.0         54       31.3      189.4       31.3       34.0       20.9     1010.5       35.3       19.9        0.0        0.0        0.0       0.00      230.3       0.00       3.75        0.0
18:10             250        0.0         54       31.2      189.4       31.2       33.8       20.8     1010.4       35.3       19.9        0.0        0.0        0.0       0.00      231.0       0.00       3.75        0.0
18:12             221        0.0         54       31.1      189.4       31.1       33.6       20.7     1010.4       35.3       19.9        0.0        0.0        0.0       0.00      231.8       0.00       3.75        0.0
18:14             233        0.0         54       31.1      189.4       31.1       33.5       20.7     1010.4       35.3       19.9        0.0        0.0        0.0       0.00      232.5       0.00       3.75        0.0
18:16             217        0.0         54       31.0      189.4       31.0       33.4       20.6     1010.4       35.3       19.9        0.0        0.0        0.0       0.00      233.6       0.00       3.84        0.0
18:18             211        0.0         54       30.9      189.4       30.9       33.3       20.6     1010.5       35.3       19.9        0.0        0.0        0.0       0.00      234.7       0.00       3.84        0.0
18:20             231        0.0         55       30.9      189.4       30.9       33.5       20.8     1010.4       35.3       19.9        0.0        0.0        0.0       0.00      235.5       0.00       3.84        0.0
18:21             233        0.0         55       30.8      189.4       30.8       33.4       20.8     1010.5       35.3       19.9        0.0        0.0        0.0       0.00      236.9       0.00       3.84        0.0
18:24             236        0.0         55       30.8      189.4       30.8       33.3       20.7     1010.5       35.3       19.9        0.0        0.0        0.0       0.00      238.2       0.00       3.84        0.0
18:26             221        0.0         55       30.7      189.4       30.7       33.2       20.7     1010.4       35.3       19.9        0.0        0.0        0.0       0.00      238.9       0.00       3.84        0.0
18:28             229        0.0         55       30.7      189.4       30.7       33.2       20.7     1010.4       35.3       19.9        0.0        0.0        0.0       0.00      239.6       0.00       3.84        0.0
18:30             224        0.0         55       30.7      189.4       30.7       33.1       20.6     1010.5       35.3       19.9        0.0        0.0        0.0       0.00      240.6       0.00       3.84        0.0
18:32             221        0.0         56       30.7      189.4       30.7       33.3       20.9     1010.5       35.3       19.9        0.0        0.0        0.0       0.00      241.5       0.00       3.93        0.0
18:34             234        0.0         56       30.6      189.4       30.6       33.2       20.8     1010.4       35.3       19.9        0.0        0.0        0.0       0.00      242.2       0.00       3.93        0.0
18:36             257        0.0         55       30.6      189.4       30.6       33.0       20.5     1010.5       35.3       19.9        0.0        0.0        0.0       0.00      242.8       0.00       3.93        0.0
18:38             240        0.0         56       30.4      189.4       30.4       32.9       20.7     1010.5       35.3       19.9        0.0        0.0        0.0       0.00      243.4       0.00       3.93        0.0
18:40             224        0.0         56       30.4      189.4       30.4       32.8       20.6     1010.5       35.3       19.9        0.0        0.0        0.0       0.00      244.2       0.00       3.93        0.0
18:42             208        0.0         56       30.3      189.4       30.3       32.6       20.5     1010.6       35.3       19.9        0.0        0.0        0.0       0.00      245.1       0.00       3.93        0.0
18:44             240        0.0         56       30.2      189.4       30.2       32.5       20.5     1010.5       35.3       19.9        0.0        0.0        0.0       0.00      246.1       0.00       3.93        0.0
18:46             240        0.0         56       30.1      189.4       30.1       32.3       20.4     1010.6       35.3       19.9        0.0        0.0        0.0       0.00      246.9       0.00       4.02        0.0
18:48             229        0.0         57       30.1      189.4       30.1       32.4       20.6     1010.7       35.3       19.9        0.0        0.0        0.0       0.00      247.7       0.00       4.02        0.0
18:50             238        0.0         57       30.0      189.4       30.0       32.3       20.6     1010.8       35.3       19.9        0.0        0.0        0.0       0.00      248.4       0.00       4.02        0.0
18:52             221        0.0         57       29.9      189.4       29.9       32.1       20.5     1010.8       35.3       19.9        0.0        0.0        0.0       0.00      249.1       0.00       4.02        0.0
18:54             238        0.0         57       29.8      189.4       29.8       32.0       20.4     1010.7       35.3       19.9        0.0        0.0        0.0       0.00      250.0       0.00       4.02        0.0
18:56             211        0.0         58       29.7      189.4       29.7       31.9       20.6     1010.7       35.3       19.9        0.0        0.0        0.0       0.00      250.7       0.00       4.02        0.0
18:58             223        0.0         58       29.7      189.4       29.7       31.8       20.5     1010.8       35.3       19.9        0.0        0.0        0.0       0.00      251.7       0.00       4.02        0.0
19:00             229        0.0         58       29.6      189.4       29.6       31.7       20.4     1010.8       35.3       19.9        0.0        0.0        0.0       0.00      252.6       0.00       4.02        0.0
19:02             229        0.0         58       29.5      189.4       29.5       31.6       20.4     1010.8       35.3       19.9        0.0        0.0        0.0       0.00      253.5       0.00       4.09        0.0
19:04             220        0.0         58       29.4      189.4       29.4       31.5       20.3     1010.9       35.3       19.9        0.0        0.0        0.0       0.00      254.3       0.00       4.09        0.0
19:05             221        0.0         59       29.3      189.4       29.3       31.4       20.5     1010.9       35.3       19.9        0.0        0.0        0.0       0.00      255.0       0.00       4.09        0.0
19:08             246        0.0         59       29.3      189.4       29.3       31.3       20.4     1010.9       35.3       19.9        0.0        0.0        0.0       0.00      255.8       0.00       4.09        0.0
19:10             240        0.0         59       29.2      189.4       29.2       31.3       20.4     1010.9       35.3       19.9        0.0        0.0        0.0       0.00      256.5       0.00       4.09        0.0
19:12             228        0.0         59       29.2      189.4       29.2       31.2       20.3     1010.9       35.3       19.9        0.0        0.0        0.0       0.00      257.2       0.00       4.09        0.0
19:14             215        0.0         60       29.1      189.4       29.1       31.2       20.6     1010.9       35.3       19.9        0.0        0.0        0.0       0.00      257.8       0.00       4.09        0.0
19:16             223        0.0         60       29.1      189.4       29.1       31.1       20.5     1011.0       35.3       19.9        0.0        0.0        0.0       0.00      258.5       0.00       4.17        0.0
19:18             213        0.0         60       29.0      189.4       29.0       31.0       20.5     1011.0       35.3       19.9        0.0        0.0        0.0       0.00      259.6       0.00       4.17        0.0
19:20             242        0.0         60       28.9      189.4       28.9       30.8       20.4     1011.0       35.3       19.9        0.0        0.0        0.0       0.00      260.3       0.00       4.17        0.0
19:22             233        0.0         60       28.8      189.4       28.8       30.7       20.2     1011.0       35.3       19.9        0.0        0.0        0.0       0.00      261.1       0.00       4.17        0.0
19:24             217        0.0         61       28.7      189.4       28.7       30.7       20.5     1011.1       35.3       19.9        0.0        0.0        0.0       0.00      261.8       0.00       4.17        0.0
19:26             220        0.0         61       28.6      189.4       28.6       30.5       20.4     1011.0       35.3       19.9        0.0        0.0        0.0       0.00      262.7       0.00       4.17        0.0
19:28             220        0.0         61       28.5      189.4       28.5       30.3       20.3     1011.1       35.3       19.9        0.0        0.0        0.0       0.00      263.5       0.00       4.17        0.0
19:30             221        0.0         62       28.4      189.4       28.4       30.3       20.4     1011.0       35.3       19.9        0.0        0.0        0.0       0.00      264.3       0.00       4.17        0.0
19:32             220        0.0         62       28.3      189.4       28.3       30.2       20.4     1011.2       35.3       19.9        0.0        0.0        0.0       0.00      265.1       0.00       4.23        0.0
19:34             231        0.0         62       28.2      189.4       28.2       30.0       20.3     1011.3       35.3       19.9        0.0        0.0        0.0       0.00      266.0       0.00       4.23        0.0
19:36             222        0.0         62       28.2      189.4       28.2       29.9       20.2     1011.3       35.3       19.9        0.0        0.0        0.0       0.00      266.9       0.00       4.23        0.0
19:37             227        0.0         63       28.1      189.4       28.1       29.9       20.4     1011.3       35.3       19.9        0.0        0.0        0.0       0.00      267.8       0.00       4.23        0.0
19:40             227        0.0         63       28.0      189.4       28.0       29.8       20.3     1011.4       35.3       19.9        0.0        0.0        0.0       0.00      268.9       0.00       4.23        0.0
19:42             222        0.0         63       27.9      189.4       27.9       29.6       20.2     1011.4       35.3       19.9        0.0        0.0        0.0       0.00      270.0       0.00       4.23        0.0
19:44             246        0.0         64       27.8      189.4       27.8       29.6       20.4     1011.4       35.3       19.9        0.0        0.0        0.0       0.00      270.8       0.00       4.23        0.0
19:46             250        0.0         64       27.7      189.4       27.7       29.5       20.3     1011.5       35.3       19.9        0.0        0.0        0.0       0.00      271.6       0.00       4.30        0.0
19:47             248        0.0         64       27.7      189.4       27.7       29.4       20.2     1011.5       35.3       19.9        0.0        0.0        0.0       0.00      272.3       0.00       4.30        0.0
19:50             257        0.0         64       27.6      189.4       27.6       29.3       20.2     1011.5       35.3       19.9        0.0        0.0        0.0       0.00      273.3       0.00       4.30        0.0
19:52             229        0.0         65       27.6      189.4       27.6       29.3       20.4     1011.4       35.3       19.9        0.0        0.0        0.0       0.00      274.1       0.00       4.30        0.0
19:54             253        0.0         65       27.5      189.4       27.5       29.2       20.3     1011.6       35.3       19.9        0.0        0.0        0.0       0.00      274.9       0.00       4.30        0.0
19:56             234        0.0         65       27.4      189.4       27.4       29.0       20.2     1011.6       35.3       19.9        0.0        0.0        0.0       0.00      276.0       0.00       4.30        0.0
19:58             243        0.0         65       27.3      189.4       27.3       29.0       20.2     1011.6       35.3       19.9        0.0        0.0        0.0       0.00      276.8       0.00       4.30        0.0
20:00             238        0.0         65       27.3      189.4       27.3       28.9       20.1     1011.6       35.3       19.9        0.0        0.0        0.0       0.00      277.7       0.00       4.30        0.0
20:02             254        0.0         65       27.2      189.4       27.2       28.8       20.1     1011.6       35.3       19.9        0.0        0.0        0.0       0.00      278.6       0.00       4.35        0.0
20:04             232        0.0         66       27.2      189.4       27.2       28.8       20.3     1011.7       35.3       19.9        0.0        0.0        0.0       0.00      279.3       0.00       4.35        0.0
20:06             246        0.0         66       27.1      189.4       27.1       28.6       20.2     1011.7       35.3       19.9        0.0        0.0        0.0       0.00      280.3       0.00       4.35        0.0
20:08             229        0.0         66       27.0      189.4       27.0       28.5       20.1     1011.7       35.3       19.9        0.0        0.0        0.0       0.00      280.9       0.00       4.35        0.0
20:10             242        0.0         66       26.9      189.4       26.9       28.4       20.1     1011.7       35.3       19.9        0.0        0.0        0.0       0.00      281.5       0.00       4.35        0.0
20:12             246        0.0         66       26.9      189.4       26.9       28.4       20.0     1011.8       35.3       19.9        0.0        0.0        0.0       0.00      282.0       0.00       4.35        0.0
20:14             259        0.0         66       26.9      189.4       26.9       28.4       20.0     1011.8       35.3       19.9        0.0        0.0        0.0       0.00      282.6       0.00       4.35        0.0
20:15             254        0.0         67       26.8      189.4       26.8       28.4       20.2     1011.8       35.3       19.9        0.0        0.0        0.0       0.00      283.8       0.00       4.40        0.0
20:18             245        0.0         67       26.8      189.4       26.8       28.3       20.1     1011.9       35.3       19.9        0.0        0.0        0.0       0.00      285.4       0.00       4.40        0.0
20:20             242        0.0         67       26.7      189.4       26.7       28.2       20.1     1011.9       35.3       19.9        0.0        0.0        0.0       0.00      286.9       0.00       4.40        0.0
20:22             257        0.0         67       26.6      189.4       26.6       28.1       20.0     1011.9       35.3       19.9        0.0        0.0        0.0       0.00      287.9       0.00       4.40        0.0
20:24             220        0.0         68       26.6      189.4       26.6       28.1       20.2     1011.9       35.3       19.9        0.0        0.0        0.0       0.00      289.1       0.00       4.40        0.0
20:26             238        0.0         68       26.5      189.4       26.5       28.0       20.1     1011.9       35.3       19.9        0.0        0.0        0.0       0.00      290.6       0.00       4.40        0.0
20:27             235        0.0         68       26.4      189.4       26.4       28.0       20.1     1011.9       35.3       19.9        0.0        0.0        0.0       0.00      292.2       0.00       4.40        0.0
20:30             260        0.0         68       26.4      189.4       26.4       27.9       20.0     1012.0       35.3       19.9        0.0        0.0        0.0       0.00      293.5       0.00       4.40        0.0
20:32             243        0.0         68       26.4      189.4       26.4       27.9       20.0     1012.0       35.3       19.9        0.0        0.0        0.0       0.00      294.8       0.00       4.45        0.0
20:34             244        0.0         69       26.3      189.4       26.3       27.9       20.2     1012.0       35.3       19.9        0.0        0.0        0.0       0.00      295.9       0.00       4.45        0.0
20:36             261        0.0         69       26.3      189.4       26.3       27.9       20.1     1012.0       35.3       19.9        0.0        0.0        0.0       0.00      296.9       0.00       4.45        0.0
20:38             252        0.0         69       26.3      189.4       26.3       27.9       20.1     1012.1       35.3       19.9        0.0        0.0        0.0       0.00      298.2       0.00       4.45        0.0
20:40             251        0.0         69       26.2      189.4       26.2       27.8       20.1     1012.1       35.3       19.9        0.0        0.0        0.0       0.00      299.4       0.00       4.45        0.0
20:42             249        0.0         69       26.2      189.4       26.2       27.7       20.0     1012.1       35.3       19.9        0.0        0.0        0.0       0.00      300.4       0.00       4.45        0.0
20:44             246        0.0         69       26.2      189.4       26.2       27.7       20.0     1012.1       35.3       19.9        0.0        0.0        0.0       0.00      301.5       0.00       4.45        0.0
20:46             247        0.0         69       26.2      189.4       26.2       27.7       20.0     1012.1       35.3       19.9        0.0        0.0        0.0       0.00      302.2       0.00       4.49        0.0
20:48             248        0.0         69       26.1      189.4       26.1       27.7       20.0     1012.1       35.3       19.9        0.0        0.0        0.0       0.00      303.1       0.00       4.49        0.0
20:50             248        0.0         69       26.1      189.4       26.1       27.7       20.0     1012.1       35.3       19.9        0.0        0.0        0.0       0.00      304.2       0.00       4.49        0.0
20:52             247        0.0         70       26.1      189.4       26.1       27.8       20.2     1012.1       35.3       19.9        0.0        0.0        0.0       0.00      305.3       0.00       4.49        0.0
20:53             232        0.0         70       26.1      189.4       26.1       27.7       20.2     1012.1       35.3       19.9        0.0        0.0        0.0       0.00      306.3       0.00       4.49        0.0
20:56             259        0.0         70       26.1      189.4       26.1       27.7       20.2     1012.1       35.3       19.9        0.0        0.0        0.0       0.00      307.8       0.00       4.49        0.0
20:58             246        0.0         70       25.9      189.4       25.9       27.6       20.1     1012.3       35.3       19.9        0.0        0.0        0.0       0.00      309.2       0.00       4.49        0.0
21:00             246        0.0         70       25.9      189.4       25.9       27.6       20.1     1012.1       35.3       19.9        0.0        0.0        0.0       0.00      310.1       0.00       4.49        0.0
21:02             246        0.0         70       25.9      189.4       25.9       27.5       20.0     1012.2       35.3       19.9        0.0        0.0        0.0       0.00      311.0       0.00       4.53        0.0
21:03             246        0.0         70       25.9      189.4       25.9       27.5       20.0     1012.2       35.3       19.9        0.0        0.0        0.0       0.00      311.9       0.00       4.53        0.0
21:06             244        0.0         70       25.9      189.4       25.9       27.5       20.0     1012.3       35.3       19.9        0.0        0.0        0.0       0.00      313.0       0.00       4.53        0.0
21:08             244        0.0         70       25.8      189.4       25.8       27.5       19.9     1012.4       35.3       19.9        0.0        0.0        0.0       0.00      314.0       0.00       4.53        0.0
21:10             244        0.0         71       25.8      189.4       25.8       27.5       20.2     1012.4       35.3       19.9        0.0        0.0        0.0       0.00      314.7       0.00       4.53        0.0
21:11             244        0.0         71       25.8      189.4       25.8       27.5       20.2     1012.4       35.3       19.9        0.0        0.0        0.0       0.00      315.4       0.00       4.53        0.0
21:14             242        0.0         71       25.8      189.4       25.8       27.5       20.2     1012.5       35.3       19.9        0.0        0.0        0.0       0.00      316.5       0.00       4.53        0.0
21:16             243        0.0         71       25.8      189.4       25.8       27.5       20.1     1012.5       35.3       19.9        0.0        0.0        0.0       0.00      317.3       0.00       4.57        0.0
21:18             244        0.0         71       25.8      189.4       25.8       27.5       20.1     1012.7       35.3       19.9        0.0        0.0        0.0       0.00      318.2       0.00       4.57        0.0
21:20             250        0.0         71       25.7      189.4       25.7       27.4       20.1     1012.6       35.3       19.9        0.0        0.0        0.0       0.00      319.4       0.00       4.57        0.0
21:22             250        0.0         71       25.7      189.4       25.7       27.4       20.1     1012.6       35.3       19.9        0.0        0.0        0.0       0.00      320.3       0.00       4.57        0.0
21:24             250        0.0         71       25.7      189.4       25.7       27.4       20.0     1012.6       35.3       19.9        0.0        0.0        0.0       0.00      321.0       0.00       4.57        0.0
21:26             249        0.0         71       25.7      189.4       25.7       27.4       20.0     1012.7       35.3       19.9        0.0        0.0        0.0       0.00      321.8       0.00       4.57        0.0
21:28             250        0.0         71       25.7      189.4       25.7       27.4       20.0     1012.8       35.3       19.9        0.0        0.0        0.0       0.00      322.4       0.00       4.57        0.0
21:30             248        0.0         71       25.6      189.4       25.6       27.3       20.0     1012.8       35.3       19.9        0.0        0.0        0.0       0.00      323.4       0.00       4.57        0.0
21:32             248        0.0         71       25.6      189.4       25.6       27.3       20.0     1012.8       35.3       19.9        0.0        0.0        0.0       0.00      324.3       0.00       4.61        0.0
21:34             248        0.0         72       25.6      189.4       25.6       27.3       20.1     1012.8       35.3       19.9        0.0        0.0        0.0       0.00      325.3       0.00       4.61        0.0
21:36             245        0.0         72       25.6      189.4       25.6       27.3       20.1     1012.7       35.3       19.9        0.0        0.0        0.0       0.00      326.3       0.00       4.61        0.0
21:38             245        0.0         72       25.5      189.4       25.5       27.3       20.1     1012.7       35.3       19.9        0.0        0.0        0.0       0.00      327.2       0.00       4.61        0.0
21:40             245        0.0         72       25.5      189.4       25.5       27.3       20.1     1012.7       35.3       19.9        0.0        0.0        0.0       0.00      328.1       0.00       4.61        0.0
21:42             245        0.0         72       25.5      189.4       25.5       27.3       20.1     1012.6       35.3       19.9        0.0        0.0        0.0       0.00      329.1       0.00       4.61        0.0
21:44             246        0.0         72       25.4      189.4       25.4       27.2       20.0     1012.7       35.3       19.9        0.0        0.0        0.0       0.00      329.9       0.00       4.61        0.0
21:46             246        0.0         72       25.4      189.4       25.4       27.2       20.0     1012.7       35.3       19.9        0.0        0.0        0.0       0.00      330.6       0.00       4.64        0.0
21:48             246        0.0         72       25.4      189.4       25.4       27.2       20.0     1012.7       35.3       19.9        0.0        0.0        0.0       0.00      331.1       0.00       4.64        0.0
21:50             246        0.0         72       25.4      189.4       25.4       27.2       20.0     1012.7       35.3       19.9        0.0        0.0        0.0       0.00      331.7       0.00       4.64        0.0
21:52             246        0.0         72       25.4      189.4       25.4       27.2       20.0     1012.8       35.3       19.9        0.0        0.0        0.0       0.00      332.5       0.00       4.64        0.0
21:54             246        0.0         72       25.4      189.4       25.4       27.2       20.0     1012.8       35.3       19.9        0.0        0.0        0.0       0.00      333.1       0.00       4.64        0.0
21:56             246        0.0         73       25.4      189.4       25.4       27.2       20.2     1012.9       35.3       19.9        0.0        0.0        0.0       0.00      333.7       0.00       4.64        0.0
21:58             246        0.0         73       25.3      189.4       25.3       27.2       20.1     1012.8       35.3       19.9        0.0        0.0        0.0       0.00      334.4       0.00       4.64        0.0
22:00             246        0.0         73       25.3      189.4       25.3       27.2       20.1     1012.8       35.3       19.9        0.0        0.0        0.0       0.00      335.0       0.00       4.64        0.0
22:02             246        0.0         73       25.3      189.4       25.3       27.2       20.1     1012.9       35.3       19.9        0.0        0.0        0.0       0.00      335.7       0.00       4.68        0.0
22:04             246        0.0         73       25.3      189.4       25.3       27.2       20.1     1012.8       35.3       19.9        0.0        0.0        0.0       0.00      336.4       0.00       4.68        0.0
22:06             246        0.0         73       25.3      189.4       25.3       27.1       20.1     1012.7       35.3       19.9        0.0        0.0        0.0       0.00      337.1       0.00       4.68        0.0
22:08             246        0.0         73       25.3      189.4       25.3       27.1       20.1     1012.7       35.3       19.9        0.0        0.0        0.0       0.00      337.8       0.00       4.68        0.0
22:10             246        0.0         73       25.3      189.4       25.3       27.1       20.1     1012.8       35.3       19.9        0.0        0.0        0.0       0.00      338.5       0.00       4.68        0.0
22:12             246        0.0         73       25.2      189.4       25.2       27.1       20.0     1012.7       35.3       19.9        0.0        0.0        0.0       0.00      339.1       0.00       4.68        0.0
22:14             246        0.0         73       25.2      189.4       25.2       27.1       20.0     1012.7       35.3       19.9        0.0        0.0        0.0       0.00      339.7       0.00       4.68        0.0
22:16             246        0.0         73       25.2      189.4       25.2       27.1       20.0     1012.8       35.3       19.9        0.0        0.0        0.0       0.00      340.1       0.00       4.71        0.0
22:18             245        0.0         73       25.2      189.4       25.2       27.1       20.0     1012.9       35.3       19.9        0.0        0.0        0.0       0.00      340.6       0.00       4.71        0.0
22:20             246        0.0         73       25.2      189.4       25.2       27.1       20.0     1012.7       35.3       19.9        0.0        0.0        0.0       0.00      341.0       0.00       4.71        0.0
22:22             246        0.0         73       25.2      189.4       25.2       27.1       20.0     1012.9       35.3       19.9        0.0        0.0        0.0       0.00      341.5       0.00       4.71        0.0
22:24             246        0.0         73       25.2      189.4       25.2       27.1       20.0     1012.8       35.3       19.9        0.0        0.0        0.0       0.00      342.0       0.00       4.71        0.0
22:26             246        0.0         73       25.2      189.4       25.2       27.1       20.0     1012.9       35.3       19.9        0.0        0.0        0.0       0.00      342.5       0.00       4.71        0.0
22:28             246        0.0         73       25.2      189.4       25.2       27.1       20.0     1012.8       35.3       19.9        0.0        0.0        0.0       0.00      342.8       0.00       4.71        0.0
22:30             246        0.0         73       25.2      189.4       25.2       27.1       20.0     1012.8       35.3       19.9        0.0        0.0        0.0       0.00      343.1       0.00       4.71        0.0
22:32             246        0.0         73       25.2      189.4       25.2       27.0       20.0     1012.8       35.3       19.9        0.0        0.0        0.0       0.00      343.6       0.00       4.75        0.0
22:34             245        0.0         73       25.2      189.4       25.2       27.0       20.0     1012.8       35.3       19.9        0.0        0.0        0.0       0.00      343.9       0.00       4.75        0.0
22:36             246        0.0         73       25.2      189.4       25.2       27.0       20.0     1012.7       35.3       19.9        0.0        0.0        0.0       0.00      344.3       0.00       4.75        0.0
22:38             246        0.0         73       25.2      189.4       25.2       27.0       20.0     1012.8       35.3       19.9        0.0        0.0        0.0       0.00      344.5       0.00       4.75        0.0
22:40             246        0.0         73       25.2      189.4       25.2       27.0       20.0     1012.8       35.3       19.9        0.0        0.0        0.0       0.00      344.9       0.00       4.75        0.0
22:42             246        0.0         73       25.1      189.4       25.1       27.0       19.9     1012.8       35.3       19.9        0.0        0.0        0.0       0.00      345.4       0.00       4.75        0.0
22:44             246        0.0         73       25.1      189.4       25.1       27.0       19.9     1012.8       35.3       19.9        0.0        0.0        0.0       0.00      345.6       0.00       4.75        0.0
22:46             246        0.0         73       25.1      189.4       25.1       27.0       19.9     1012.9       35.3       19.9        0.0        0.0        0.0       0.00      346.1       0.00       4.78        0.0
22:48             246        0.0         73       25.1      189.4       25.1       27.0       19.9     1012.8       35.3       19.9        0.0        0.0        0.0       0.00      346.7       0.00       4.78        0.0
22:50             246        0.0         73       25.1      189.4       25.1       27.0       19.9     1012.8       35.3       19.9        0.0        0.0        0.0       0.00      347.1       0.00       4.78        0.0
22:52             246        0.0         74       25.1      189.4       25.1       27.0       20.2     1012.8       35.3       19.9        0.0        0.0        0.0       0.00      347.4       0.00       4.78        0.0
22:54             246        0.0         74       25.1      189.4       25.1       27.0       20.2     1012.7       35.3       19.9        0.0        0.0        0.0       0.00      347.9       0.00       4.78        0.0
22:56             246        0.0         74       25.1      189.4       25.1       27.0       20.1     1012.8       35.3       19.9        0.0        0.0        0.0       0.00      348.4       0.00       4.78        0.0
22:58             246        0.0         74       25.1      189.4       25.1       27.0       20.1     1012.8       35.3       19.9        0.0        0.0        0.0       0.00      348.9       0.00       4.78        0.0
23:00             246        0.0         74       25.1      189.4       25.1       27.0       20.1     1012.8       35.3       19.9        0.0        0.0        0.0       0.00      349.4       0.00       4.78        0.0
23:02             246        0.0         74       25.1      189.4       25.1       27.0       20.1     1012.7       35.3       19.9        0.0        0.0        0.0       0.00      349.9       0.00       4.81        0.0
23:03             246        0.0         74       25.1      189.4       25.1       27.0       20.1     1012.8       35.3       19.9        0.0        0.0        0.0       0.00      350.3       0.00       4.81        0.0
23:05             246        0.0         74       25.1      189.4       25.1       27.0       20.1     1012.8       35.3       19.9        0.0        0.0        0.0       0.00      350.8       0.00       4.81        0.0
23:08             246        0.0         74       25.1      189.4       25.1       27.0       20.1     1012.9       35.3       19.9        0.0        0.0        0.0       0.00      351.1       0.00       4.81        0.0
23:10             246        0.0         74       25.1      189.4       25.1       27.0       20.1     1012.8       35.3       19.9        0.0        0.0        0.0       0.00      351.3       0.00       4.81        0.0
23:12             246        0.0         74       25.1      189.4       25.1       27.0       20.1     1012.8       35.3       19.9        0.0        0.0        0.0       0.00      351.7       0.00       4.81        0.0
23:14             246        0.0         74       25.1      189.4       25.1       27.0       20.1     1012.8       35.3       19.9        0.0        0.0        0.0       0.00      352.0       0.00       4.81        0.0
23:16             246        0.0         74       25.0      189.4       25.0       26.9       20.0     1012.8       35.3       19.9        0.0        0.0        0.0       0.00      352.3       0.00       4.84        0.0
23:18             246        0.0         74       25.0      189.4       25.0       26.9       20.0     1012.8       35.3       19.9        0.0        0.0        0.0       0.00      352.6       0.00       4.84        0.0
23:20             246        0.0         74       25.0      189.4       25.0       26.9       20.0     1012.9       35.3       19.9        0.0        0.0        0.0       0.00      352.9       0.00       4.84        0.0
23:22             246        0.0         74       25.0      189.4       25.0       26.9       20.0     1012.9       35.3       19.9        0.0        0.0        0.0       0.00      353.1       0.00       4.84        0.0
23:24             246        0.0         74       25.0      189.4       25.0       26.9       20.0     1012.9       35.3       19.9        0.0        0.0        0.0       0.00      353.5       0.00       4.84        0.0
23:26             246        0.0         74       25.0      189.4       25.0       26.9       20.0     1012.9       35.3       19.9        0.0        0.0        0.0       0.00      353.9       0.00       4.84        0.0
23:28             246        0.0         74       24.9      189.4       24.9       26.9       20.0     1012.8       35.3       19.9        0.0        0.0        0.0       0.00      354.1       0.00       4.84        0.0
23:30             246        0.0         74       24.9      189.4       24.9       26.9       20.0     1012.9       35.3       19.9        0.0        0.0        0.0       0.00      354.3       0.00       4.84        0.0
23:32             246        0.0         74       24.9      189.4       24.9       26.9       20.0     1012.9       35.3       19.9        0.0        0.0        0.0       0.00      354.6       0.00       4.87        0.0
23:34             246        0.0         74       24.9      189.4       24.9       26.8       19.9     1012.9       35.3       19.9        0.0        0.0        0.0       0.00      354.8       0.00       4.87        0.0
23:36             246        0.0         74       24.9      189.4       24.9       26.8       19.9     1012.9       35.3       19.9        0.0        0.0        0.0       0.00      354.8       0.00       4.87        0.0
23:37             246        0.0         74       24.9      189.4       24.9       26.8       19.9     1012.9       35.3       19.9        0.0        0.0        0.0       0.00      355.1       0.00       4.87        0.0
23:40             246        0.0         74       24.9      189.4       24.9       26.8       19.9     1012.9       35.3       19.9        0.0        0.0        0.0       0.00      355.4       0.00       4.87        0.0
23:42             246        0.0         74       24.8      189.4       24.8       26.7       19.9     1013.0       35.3       19.9        0.0        0.0        0.0       0.00      355.7       0.00       4.87        0.0
23:44             246        0.0         74       24.8      189.4       24.8       26.7       19.9     1012.9       35.3       19.9        0.0        0.0        0.0       0.00      356.0       0.00       4.87        0.0
23:46             246        0.0         74       24.8      189.4       24.8       26.7       19.9     1012.9       35.3       19.9        0.0        0.0        0.0       0.00      356.2       0.00       4.90        0.0
23:48             246        0.0         74       24.8      189.4       24.8       26.7       19.9     1012.9       35.3       19.9        0.0        0.0        0.0       0.00      356.3       0.00       4.90        0.0
23:50             246        0.0         74       24.8      189.4       24.8       26.7       19.9     1013.0       35.3       19.9        0.0        0.0        0.0       0.00      356.6       0.00       4.90        0.0
23:52             246        0.0         74       24.8      189.4       24.8       26.7       19.9     1013.0       35.3       19.9        0.0        0.0        0.0       0.00      356.7       0.00       4.90        0.0
23:54             246        0.0         74       24.8      189.4       24.8       26.7       19.8     1012.9       35.3       19.9        0.0        0.0        0.0       0.00      357.2       0.00       4.90        0.0
23:56             246        0.0         74       24.8      189.4       24.8       26.7       19.8     1012.9       35.3       19.9        0.0        0.0        0.0       0.00      357.7       0.00       4.90        0.0
23:58             246        0.0         74       24.7      189.4       24.7       26.6       19.8     1012.9       35.3       19.9        0.0        0.0        0.0       0.00      358.1       0.00       4.90        0.0